     2.10           OBSERVATION DATA    G (GPS)             RINEX VERSION / TYPE
teqc 2002Apr3 Duncan Agnew 20050511 23:58:15UTC             PGM / RUN BY / DATE
OSX 5.3|G3|cc|OSX 5.3+|G3+                                  COMMENT
BIT 2 OF LLI FLAGS DATA COLLECTED UNDER A/S CONDITION       COMMENT
L 1362 1981                                                 MARKER NAME
0473                                                        MARKER NUMBER
Steve Van Buren Caltrans District 11                        OBSERVER / AGENCY
440100473 TRIMBLE 5700 NP 1.24 / SP 1.24                    REC # / TYPE / VERS
11885570 TRM41249.00                                        ANT # / TYPE
 -2311972.0000 -4843155.0000  3434986.0000                  APPROX POSITION XYZ
        2.0000        0.0000        0.0000                  ANTENNA: DELTA H/E/N
     1     1                                                WAVELENGTH FACT L1/2
     7    C1    L1    L2    P1    P2    S1    S2            # / TYPES OF OBSERV
SNR is mapped to RINEX snr flag value [1-9]                 COMMENT
L1: 3 -> 1; 8 -> 5; 40 -> 9                                 COMMENT
L2: 1 -> 1; 5 -> 5; 60 -> 9                                 COMMENT
  2004     6    29    13    59   30.0000000     GPS         TIME OF FIRST OBS
                                                            END OF HEADER
 04  6 29 13 59 30.0000000  0  6G 6G10G17G18G21G30
  20356477.5704     -45722.05559    -35070.41858                  20356474.4734
        49.0004         41.0004
  22906576.9384      73924.88359     43518.70457                  22906574.4384
        47.0004         31.7504
  23080276.6174      35457.10959     18585.04657                  23080274.0984
        45.7504         29.7504
  22516982.1954    -122168.52759    -83506.18757                  22516978.4384
        48.0004         34.5004
  21883778.0004     -76324.55959    -53816.08457                  21883773.7274
        48.0004         37.2504
  22457640.7194      66957.05959     39550.93357                  22457637.4694
        47.5004         33.5004
 04  6 29 13 59 40.0000000  0  7G 6G10G17G18G21G26G30
  20353721.2194     -60205.87949    -46356.52948                  20353718.0514
        49.5004         41.2504
  22910923.7894      96767.37549     61318.03947                  22910920.9064
        46.5004         31.2504
  23082328.8444      46245.32849     26991.40347                  23082327.1844
        44.7504         29.0004
  22509676.2194    -160562.30149   -113423.40047                  22509672.8714
        48.2504         34.5004
  21879189.7974    -100433.94149    -72602.61847                  21879185.5944
        48.5004         36.7504
  22512728.5314    -125028.48059    -78347.17557                  22512725.3164
        44.5004         28.2504
  22461623.5004      87887.39849     55860.29347                  22461620.2854
        48.0004         33.0004
 04  6 29 13 59 50.0000000  0  9G 5G 6G10G17G18G21G26G29G30
  24883378.5234      70266.44159     43784.72056                  24883377.3324
        39.0004         20.5004
  20350959.5554     -74720.33649    -57666.49948                  20350956.5004
        50.5004         41.5004
  22915260.8984     119557.75049     79076.75347                  22915257.6414
        47.0004         31.0004
  23084369.0004      56963.37549     35343.12847                  23084366.5354
        45.0004         29.2504
  22502361.7814    -198999.16049   -143374.19747                  22502358.4024
        48.7504         34.2504
  21874590.4144    -124603.82849    -91436.30747                  21874586.2384
        48.5004         36.2504
  22506836.2734    -155990.90649   -102473.70947                  22506833.5904
        45.0004         27.0004
  22709941.031      -54845.26618
        35.500
  22465596.5554     108766.41049     72129.64747                  22465593.6564
        47.7504         32.5004
 04  6 29 14  0  0.0000000  0  9G 5G 6G10G17G18G21G26G29G30
  24888125.0004      95208.98049     63220.48946                  24888123.9144
        38.2504         21.5004
  20348195.3754     -89246.35249    -68985.48348                  20348192.1334
        50.0004         41.2504
  22919591.1174     142314.93049     96809.60247                  22919588.0824
        46.2504         31.2504
  23086398.5004      67630.30149     43655.00147                  23086396.1954
        44.0004         28.2504
  22495042.7034    -237459.94949   -173343.64847                  22495039.8594
        49.0004         34.0004
  21869983.2194    -148815.15249   -110302.28047                  21869979.3794
        47.7504         36.5004
  22500942.7424    -186963.90649   -126608.52047                  22500939.8634
        45.0004         29.5004
  22706207.281      -74467.359 8
        33.750
  22469563.7814     129613.07849     88373.77747                  22469561.1484
        47.5004         33.5004
 04  6 29 14  0 10.0000000  0  9G 5G 6G10G17G18G21G26G29G30
  24892859.9304     120092.41449     82610.09246                  24892858.5314
        38.0004         21.5004
  20345430.4534    -103775.03949    -80306.53548                  20345427.3674
        50.5004         41.2504
  22923917.3204     165047.61349    114523.36647                  22923914.2424
        46.7504         30.5004
  23088420.8444      78254.87149     51933.86347                  23088417.7664
        45.0004         28.0004
  22487721.2974    -275935.76249   -203324.79747                  22487718.1724
        48.7504         34.0004
  21865370.0234    -173059.14149   -129193.69447                  21865365.7974
        49.5004         37.5004
  22495048.7424    -217938.51649   -150744.58447                  22495045.8714
        46.0004         29.0004
  22702473.4454     -94085.38348    -72432.99256                  22702470.9414
        35.5004         16.7504
  22473526.1254     150435.97749    104599.40647                  22473523.4224
        48.0004         33.5004
 04  6 29 14  0 20.0000000  0  9G 5G 6G10G17G18G21G26G29G30
  24897584.7274     144919.47349    101955.88046                  24897583.0354
        39.2504         21.7504
  20342666.1724    -118303.50049    -91627.42748                  20342663.0474
        49.0004         41.5004
  22928238.8754     187758.52049    132220.17347                  22928235.7774
        46.5004         30.7504
  23090434.5394      88839.96149     60181.98747                  23090432.0044
        43.5004         26.7504
  22480397.3054    -314423.80549   -233315.46647                  22480393.8794
        49.5004         34.5004
  21860750.9304    -197332.89849   -148108.32547                  21860746.5434
        48.0004         37.5004
  22489154.3914    -248911.77049   -174879.58647                  22489151.7154
        46.0004         29.7504
  22698741.6564    -113696.59848    -87714.45346                  22698739.4184
        35.0004         16.7504
  22477484.5864     171237.94549    120808.71547                  22477482.4734
        48.0004         33.5004
 04  6 29 14  0 30.0000000  0  9G 5G 6G10G17G18G21G26G29G30
  24902300.3134     169694.85249    121261.30346                  24902297.9964
        40.0004         22.0004
  20339902.2344    -132826.96549   -102944.42648                  20339899.4104
        50.5004         41.5004
  22932557.6644     210452.39149    149903.70247                  22932554.9534
        47.0004         30.5004
  23092442.3444      99390.27049     68402.98947                  23092439.9574
        44.2504         28.2504
  22473071.7194    -352919.30949   -263311.95847                  22473068.7424
        48.5004         34.0004
  21856126.6644    -221631.64549   -167042.40747                  21856122.8094
        48.0004         37.0004
  22483261.6024    -279878.80149   -199009.73147                  22483259.1214
        46.0004         30.2504
  22695012.8134    -133296.08249   -102986.80146                  22695009.7894
        36.7504         18.2504
  22481440.1954     192023.60949    137005.32947                  22481437.5784
        47.7504         33.7504
 04  6 29 14  0 40.0000000  0  9G 5G 6G10G17G18G21G26G29G30
  24907004.5784     194419.56349    140527.27946                  24907003.3594
        41.0004         21.5004
  20337139.6174    -147344.23049   -114256.59548                  20337136.6484
        51.2504         41.7504
  22936872.8674     233130.18449    167574.69647                  22936870.2894
        46.2504         31.5004
  23094443.5234     109906.94549     76597.78047                  23094441.0514
        44.2504         27.5004
  22465744.7974    -391421.00049   -293313.27447                  22465741.7854
        49.0004         35.0004
  21851498.4064    -245954.34849   -185995.17247                  21851493.9144
        49.0004         37.0004
  22477369.8594    -310838.45349   -223134.13347                  22477367.4144
        46.0004         29.7504
  22691284.8204    -152882.59049   -118248.98846                  22691281.9884
        38.5004         17.2504
  22485392.3984     212793.91849    153189.97147                  22485390.4144
        47.7504         33.0004
 04  6 29 14  0 50.0000000  0  9G 5G 6G10G17G18G21G26G29G30
  24911700.8834     219095.82849    159755.57846                  24911698.6844
        41.2504         23.5004
  20334378.9064    -161852.93449   -125562.08248                  20334375.7464
        51.0004         41.5004
  22941185.7194     255794.12149    185234.88247                  22941182.7234
        46.5004         31.2504
  23096439.1644     120392.16449     84768.07747                  23096436.4734
        44.2504         28.2504
  22458417.4534    -429926.51649   -323317.56747                  22458414.7934
        49.0004         35.0004
  21846866.1334    -270298.71949   -204964.82047                  21846861.6024
        49.7504         37.0004
  22471480.6884    -341788.09449   -247250.74247                  22471478.3714
        45.2504         29.2504
  22687561.4844    -172453.89549   -133499.34846                  22687557.9774
        36.7504         18.2504
  22489342.0944     233551.05949    169364.35047                  22489340.1684
        47.0004         33.5004
 04  6 29 14  1  0.0000000  0  8G 6G10G17G18G21G26G29G30
  20331619.5394    -176352.46549   -136860.42048                  20331616.4104
        50.0004         41.0004
  22945495.9614     278444.65249    202884.64147                  22945492.5474
        47.0004         31.0004
  23098428.4064     130846.65249     92914.41247                  23098426.0044
        43.7504         30.2504
  22451089.7814    -468435.33249   -353324.44747                  22451086.7664
        49.0004         35.0004
  21842229.2584    -294664.18449   -223950.89047                  21842224.9264
        49.2504         37.0004
  22465592.7344    -372727.25049   -271359.18747                  22465590.7934
        45.2504         28.7504
  22683839.5234    -192009.31249   -148737.34446                  22683836.3524
        36.5004         17.2504
  22493289.5784     254295.52049    185528.84147                  22493288.0864
        47.0004         33.7504
 04  6 29 14  1 10.0000000  0  8G 6G10G17G18G21G26G29G30
  20328862.4614    -190841.72349   -148150.76048                  20328858.8914
        50.7504         41.2504
  22949803.7504     301082.71949    220524.66647                  22949800.5234
        47.2504         30.0004
  23100412.1334     141271.39849    101037.55747                  23100409.8204
        43.5004         28.5004
  22443761.6414    -506946.19149   -383332.91247                  22443757.8554
        49.2504         34.7504
  21837588.5554    -319049.66449   -242952.57047                  21837584.3954
        49.2504         37.0004
  22459707.9534    -403654.67249   -295458.47647                  22459705.4654
        46.2504         29.2504
  22680120.5164    -211547.71548   -163962.07046                  22680118.3204
        35.0004         15.5004
  22497235.2894     275028.30549    201684.24047                  22497233.1564
        47.2504         34.2504
 04  6 29 14  1 20.0000000  0  8G 6G10G17G18G21G26G29G30
  20326107.5634    -205317.93449   -159430.93348                  20326104.5554
        49.7504         41.2504
  22954110.1804     323710.91849    238157.01347                  22954106.3054
        46.5004         30.5004
  23102390.6094     151669.00049    109139.59147                  23102388.5234
        43.7504         28.5004
  22436432.9534    -545456.38749   -413340.84647                  22436429.5314
        49.5004         34.7504
  21832944.9454    -343452.59849   -261967.84447                  21832940.4384
        48.2504         36.7504
  22453825.6644    -434567.44949   -319546.37547                  22453822.4734
        46.0004         29.5004
  22676407.6724    -231066.27349   -179171.32446                  22676404.1604
        36.0004         16.7504
  22501178.8284     295751.88749    217832.47347                  22501176.9884
        47.0004         34.0004
 04  6 29 14  1 30.0000000  0  8G 6G10G17G18G21G26G29G30
  20323355.3834    -219781.53949   -170701.27348                  20323352.1024
        51.0004         41.0004
  22958413.7974     346328.75049    255781.29047                  22958410.3014
        47.0004         30.7504
  23104363.9304     162039.25049    117220.29747                  23104361.6024
        43.5004         28.5004
  22429105.1254    -583966.19149   -443348.48747                  22429101.7894
        49.5004         34.2504
  21828297.6094    -367873.25049   -280996.92647                  21828293.6024
        49.7504         37.5004
  22447945.6564    -465466.03949   -343623.20547                  22447943.1454
        46.0004         29.0004
  22672697.1024    -250565.40649   -194365.43546                  22672693.5004
        36.7504         18.2504
  22505120.4534     316465.83649    233973.19347                  22505118.4734
        47.2504         32.7504
 04  6 29 14  1 40.0000000  0  8G 6G10G17G18G21G26G29G30
  20320605.8984    -234230.12549   -181959.91748                  20320602.7234
        50.2504         41.0004
  22962716.2034     368938.34049    273399.12847                  22962712.6844
        46.7504         30.7504
  23106332.7034     172384.19549    125281.27047                  23106330.1954
        44.5004         27.7504
  22421777.2974    -622473.42649   -473354.11947                  22421773.6994
        49.7504         34.5004
  21823647.9144    -392309.41849   -300038.10247                  21823643.7234
        49.0004         37.0004
  22442069.1484    -496347.92249   -367687.02147                  22442066.1334
        45.7504         28.7504
  22668989.9224    -270042.89149   -209542.70046                  22668986.7774
        36.5004         18.5004
  22509061.0164     337172.18849    250107.98447                  22509058.5744
        47.0004         33.5004
 04  6 29 14  1 50.0000000  0  8G 6G10G17G18G21G26G29G30
  20317859.4144    -248662.22749   -193205.72948                  20317856.3244
        50.7504         41.5004
  22967017.2974     391541.02049    291011.58947                  22967014.2274
        47.0004         30.0004
  23108297.0234     182705.35949    133323.73647                  23108294.5274
        43.5004         28.7504
  22414450.4304    -660976.45349   -503356.47747                  22414446.6294
        49.5004         34.5004
  21818995.1094    -416759.70349   -319090.27747                  21818991.1524
        49.5004         37.0004
  22436196.0944    -527211.58249   -391736.61547                  22436193.4144
        45.5004         29.0004
  22665288.5554    -289497.02349   -224701.85146                  22665284.9144
        37.0004         19.7504
  22512999.9924     357872.31649    266237.94547                  22512997.4964
        47.5004         33.7504
 04  6 29 14  2  0.0000000  0  8G 6G10G17G18G21G26G29G30
  20315116.6334    -263076.15649   -204437.36848                  20315113.5004
        51.2504         41.2504
  22971317.4614     414138.33649    308619.85847                  22971314.1844
        46.7504         31.5004
  23110256.4534     193004.30149    141348.85847                  23110254.7624
        42.2504         28.2504
  22407124.8444    -699473.59449   -533354.23947                  22407120.6134
        49.5004         34.5004
  21814340.0084    -441222.48849   -338152.19247                  21814335.8914
        49.7504         36.5004
  22430326.6174    -558055.33249   -415770.70447                  22430323.8324
        45.5004         28.7504
  22661590.9144    -308926.20349   -239841.43946                  22661587.7504
        36.5004         19.7504
  22516938.3984     378567.78949    282364.27547                  22516935.7274
        46.7504         33.5004
 04  6 29 14  2 10.0000000  0  8G 6G10G17G18G21G26G29G30
  20312376.9144    -277473.69149   -215656.23248                  20312374.0044
        51.0004         41.0004
  22975616.3834     436728.47349    326222.55447                  22975613.7504
        46.5004         31.5004
  23112211.9924     203279.36749    149355.38147                  23112209.8954
        41.5004         28.2504
  22399799.4774    -737966.60549   -563348.79447                  22399795.9534
        49.7504         34.5004
  21809682.3754    -465699.50849   -357225.19647                  21809677.9494
        49.7504         36.7504
  22424460.5004    -588880.71949   -439790.48647                  22424458.1724
        45.7504         28.7504
  22657898.3364    -328332.07849   -254962.83946                  22657895.3244
        38.0004         19.5004
  22520875.0554     399256.74249    298485.53647                  22520872.5784
        45.7504         33.2504
 04  6 29 14  2 20.0000000  0  8G 6G10G17G18G21G26G29G30
  20309640.5234    -291852.85949   -226860.77848                  20309637.5514
        51.5004         41.5004
  22979914.1564     459313.10549    343820.94847                  22979911.3794
        46.7504         31.0004
  23114162.8754     213532.40249    157344.75247                  23114161.1294
        43.5004         28.0004
  22392475.8364    -776453.59849   -593338.66047                  22392472.0514
        49.2504         34.7504
  21805022.3054    -490188.93449   -376307.86047                  21805017.5474
        50.5004         37.0004
  22418598.5864    -619685.80549   -463794.43147                  22418596.2584
        45.5004         28.7504
  22654210.1884    -347712.80949   -270064.70646                  22654207.8244
        37.7504         20.5004
  22524810.8914     419940.90649    314603.06847                  22524808.6454
        47.0004         34.0004
 04  6 29 14  2 30.0000000  0  8G 6G10G17G18G21G26G29G30
  20306907.8914    -306213.10549   -238050.59648                  20306905.2154
        50.5004         41.2504
  22984210.9454     481892.67249    361415.39947                  22984207.5984
        46.7504         30.5004
  23116109.6334     223763.76649    165317.21747                  23116107.8014
        44.0004         27.5004
  22385153.2974    -814934.02049   -623323.38647                  22385149.7424
        48.7504         34.7504
  21800359.7114    -514690.30549   -395399.84847                  21800354.9264
        50.7504         36.7504
  22412740.4844    -650470.06649   -487782.19847                  22412738.5784
        45.2504         28.0004
  22650526.6484    -367067.69149   -285146.47346                  22650524.6884
        39.2504         21.5004
  22528746.8754     440620.56349    330717.05447                  22528744.3524
        46.5004         33.7504
 04  6 29 14  2 40.0000000  0  8G 6G10G17G18G21G26G29G30
  20304179.1724    -320553.75449   -249225.13248                  20304176.1254
        50.5004         41.5004
  22988506.4064     504467.63749    379006.28247                  22988504.2504
        46.5004         30.5004
  23118052.7274     233974.12549    173273.33047                  23118050.0784
        44.5004         27.0004
  22377831.7814    -853407.16049   -653302.45347                  22377828.3444
        48.7504         35.0004
  21795694.6254    -539202.97749   -414500.62347                  21795690.1644
        49.5004         36.7504
  22406886.6414    -681232.64549   -511753.02147                  22406884.6764
        45.0004         27.2504
  22646849.6724    -386396.24649   -300207.67246                  22646846.6054
        40.5004         22.0004
  22532680.9064     461296.28149    346827.99847                  22532678.5044
        47.5004         34.0004
 04  6 29 14  2 50.0000000  0  8G 6G10G17G18G21G26G29G30
  20301453.7194    -334875.46149   -260384.91348                  20301450.2344
        50.7504         41.2504
  22992801.1884     527037.28549    396593.00447                  22992798.9184
        46.2504         29.7504
  23119991.9144     244162.87949    181212.61547                  23119988.6954
        42.7504         27.2504
  22370512.5314    -891873.57849   -683276.28047                  22370508.6294
        49.0004         34.0004
  21791028.2194    -563727.54349   -433610.67547                  21791023.4104
        48.5004         37.0004
  22401036.6174    -711974.02049   -535707.36646                  22401034.4344
        44.0004         25.5004
  22643176.1724    -405698.80949   -315248.61646                  22643173.3834
        40.2504         22.5004
  22536614.4454     481967.32049    362935.28447                  22536612.1724
        45.7504         33.2504
 04  6 29 14  3  0.0000000  0  8G 6G10G17G18G21G26G29G30
  20298732.0944    -349177.19549   -271529.12248                  20298728.8754
        49.7504         41.2504
  22997094.9694     549602.49249    414176.24647                  22997092.7464
        46.0004         29.5004
  23121926.9304     254330.90649    189135.75747                  23121923.4884
        43.0004         27.7504
  22363193.5784    -930332.41449   -713244.20447                  22363189.7114
        48.5004         34.2504
  21786359.1334    -588263.22349   -452729.38847                  21786354.4774
        48.2504         36.7504
  22395191.0234    -742693.32049   -559644.47147                  22395189.0314
        43.7504         26.0004
  22639508.3674    -424974.53949   -330268.67546                  22639505.0234
        40.2504         22.0004
  22540547.2114     502634.43849    379039.50847                  22540544.7114
        46.0004         32.7504
 04  6 29 14  3 10.0000000  0  8G 6G10G17G18G21G26G29G30
  20296014.7504    -363457.64849   -282656.74948                  20296011.1954
        49.7504         41.5004
  23001388.7584     572164.45349    431756.99647                  23001386.1764
        46.0004         29.0004
  23123857.6644     264479.40249    197043.64247                  23123854.7464
        42.7504         26.0004
  22355876.8364    -968782.17249   -743205.04747                  22355873.0664
        48.7504         34.7504
  21781688.5394    -612808.64549   -471855.69547                  21781683.8444
        47.7504         37.0004
  22389349.4534    -773389.00449   -583563.19346                  22389347.6094
        43.7504         24.5004
  22635845.0554    -444222.04349   -345266.75446                  22635842.0474
        40.7504         22.7504
  22544479.7114     523298.88749    395141.65947                  22544477.5594
        45.7504         33.5004
 04  6 29 14  3 20.0000000  0  8G 6G10G17G18G21G26G29G30
  20293301.3754    -377715.93749   -293767.11248                  20293298.0164
        50.2504         41.2504
  23005681.3364     594723.83249    449335.71847                  23005679.1914
        46.0004         29.5004
  23125785.7734     274609.29749    204937.06447                  23125782.6954
        42.5004         26.5004
  22348562.1024   -1007222.05549   -773158.20647                  22348557.9534
        49.2504         34.2504
  21777016.0474    -637363.09049   -490989.03447                  21777011.3874
        48.5004         37.0004
  22383513.2974    -804060.28549   -607462.90146                  22383510.5474
        43.5004         23.7504
  22632188.0394    -463440.47749   -360242.15746                  22632184.7814
        41.2504         22.7504
  22548411.3834     543961.28549    411242.23447                  22548409.6644
        46.5004         34.0004
 04  6 29 14  3 30.0000000  0  8G 6G10G17G18G21G26G29G30
  20290592.5084    -391951.00049   -304859.38248                  20290589.4304
        48.5004         41.5004
  23009974.1094     617281.52349    466913.09847                  23009971.4734
        45.5004         30.0004
  23127709.7274     284721.53949    212816.72647                  23127707.1094
        43.5004         27.0004
  22341249.6254   -1045650.95749   -803102.81147                  22341245.0474
        49.2504         34.2504
  21772341.6804    -661925.53949   -510128.61947                  21772337.5474
        47.7504         37.5004
  22377681.3834    -834705.89149   -631342.60146                  22377678.0394
        43.5004         25.0004
  22628536.3444    -482628.76649   -375194.09946                  22628534.0004
        41.2504         22.5004
  22552343.1094     564622.62149    427341.94447                  22552341.8444
        46.7504         34.0004
 04  6 29 14  3 40.0000000  0  8G 6G10G17G18G21G26G29G30
  20287888.1484    -406164.47349   -315934.82848                  20287884.8484
        50.2504         41.5004
  23014265.9924     639835.72749    484487.78947                  23014263.6414
        45.0004         28.7504
  23129630.0084     294814.48849    220681.35147                  23129628.0554
        42.5004         26.0004
  22333938.0004   -1084070.48449   -833040.09347                  22333934.2854
        48.2504         34.5004
  21767665.6174    -686497.55949   -529275.64047                  21767661.4104
        48.2504         37.2504
  22371854.1884    -865327.43449   -655203.55946                  22371850.8834
        43.7504         24.0004
  22624890.6024    -501788.46549   -390123.73646                  22624887.5394
        40.5004         24.2504
  22556274.3444     585281.00049    443439.36847                  22556272.6254
        47.0004         33.5004
 04  6 29 14  3 50.0000000  0  8G 6G10G17G18G21G26G29G30
  20285187.6094    -420354.14849   -326991.72248                  20285185.0274
        50.0004         41.5004
  23018557.5944     662388.52749    502061.39447                  23018555.0314
        44.7504         28.5004
  23131547.6484     304890.15649    228532.49446                  23131545.6174
        42.0004         24.5004
  22326629.9454   -1122478.41849   -862968.35347                  22326625.6024
        49.5004         34.0004
  21762988.0164    -711077.06249   -548428.50147                  21762983.8134
        49.5004         37.2504
  22366032.1724    -895922.69949   -679044.01147                  22366028.9264
        44.0004         25.7504
  22621250.4304    -520917.49249   -405029.47146                  22621247.4414
        41.5004         24.2504
  22560205.3594     605938.48449    459536.10247                  22560203.9064
        46.5004         33.7504
 04  6 29 14  4  0.0000000  0  8G 6G10G17G18G21G26G29G30
  20282491.8984    -434520.51249   -338030.44548                  20282489.0594
        51.0004         41.5004
  23022848.6724     684939.35249    519633.45547                  23022846.1564
        44.2504         29.5004
  23133461.7814     314948.25849    236369.97547                  23133459.7114
        42.0004         26.0004
  22319323.0864   -1160875.12949   -892887.86447                  22319318.9304
        49.2504         33.7504
  21758309.4844    -735664.52349   -567587.56147                  21758304.8444
        50.0004         37.5004
  22360215.2894    -926491.98849   -702864.22247                  22360211.9384
        44.0004         26.5004
  22617616.1954    -540016.08649   -419911.49646                  22617612.9964
        40.5004         25.2504
  22564136.4454     626594.48449    475631.66947                  22564134.5124
        46.2504         34.0004
 04  6 29 14  4 10.0000000  0  8G 6G10G17G18G21G26G29G30
  20279800.6564    -448663.30149   -349050.81548                  20279797.9804
        51.0004         41.7504
  23027139.9144     707488.25849    537204.02747                  23027137.5164
        44.5004         28.5004
  23135372.8364     324988.80949    244193.76547                  23135370.2114
        42.2504         26.7504
  22312018.1644   -1199260.39849   -922798.45847                  22312014.4614
        49.0004         34.0004
  21753629.3054    -760259.75449   -586752.67647                  21753624.4924
        49.2504         37.0004
  22354402.8444    -957035.05949   -726664.02547                  22354400.1884
        44.7504         27.2504
  22613987.5944    -559084.07049   -434769.69346                  22613984.2624
        41.0004         24.7504
  22568066.8204     647249.14149    491726.19447                  22568064.8204
        47.2504         34.0004
 04  6 29 14  4 20.0000000  0  8G 6G10G17G18G21G26G29G30
  20277113.7114    -462783.00849   -360053.19048                  20277110.6414
        50.0004         42.0004
  23031429.8754     730034.43049    554772.44147                  23031427.9654
        44.7504         29.0004
  23137280.2034     335011.28149    252003.43947                  23137277.4774
        43.2504         26.5004
  22304715.3754   -1237634.87949   -952700.65047                  22304711.9654
        48.7504         33.5004
  21748947.3054    -784863.38349   -605924.34547                  21748942.9184
        48.5004         37.0004
  22348595.7974    -987552.37949   -750443.73647                  22348593.0274
        44.7504         29.5004
  22610364.7814    -578122.09849   -449604.50646                  22610361.9924
        41.5004         25.5004
  22571996.2814     667901.60549    507819.01747                  22571994.7584
        46.5004         33.5004
 04  6 29 14  4 30.0000000  0  8G 6G10G17G18G21G26G29G30
  20274431.4064    -476878.54349   -371036.73548                  20274428.5204
        49.7504         41.2504
  23035720.6254     752579.00049    572339.61047                  23035718.5204
        44.5004         28.7504
  23139184.2114     345016.69549    259799.87847                  23139181.2664
        44.2504         28.5004
  22297415.6174   -1275997.34049   -982593.46447                  22297412.0124
        49.2504         34.0004
  21744264.3364    -809474.25849   -625101.65647                  21744260.0274
        49.0004         37.0004
  22342793.5554   -1018042.69949   -774202.44247                  22342791.1644
        44.2504         29.0004
  22606747.7664    -597128.89849   -464415.00746                  22606745.0394
        40.5004         25.0004
  22575926.1484     688552.90249    523910.91347                  22575924.5354
        47.0004         33.5004
 04  6 29 14  4 40.0000000  0  8G 6G10G17G18G21G26G29G30
  20271753.9694    -490948.32449   -382000.20348                  20271751.0434
        48.5004         41.2504
  23040010.1804     775123.31649    589906.58447                  23040008.6094
        44.7504         29.0004
  23141085.0394     355006.63349    267584.23147                  23141081.9414
        44.5004         27.0004
  22290118.1804   -1314346.23449  -1012475.71947                  22290114.7734
        49.2504         34.2504
  21739579.7584    -834091.04749   -644283.56347                  21739575.5984
        47.0004         37.2504
  22336996.9694   -1048504.42249   -797938.82247                  22336994.7154
        44.0004         29.0004
  22603137.1414    -616102.92249   -479199.96746                  22603134.6134
        40.0004         23.7504
  22579856.5864     709204.51649    540003.05447                  22579854.3634
        47.0004         34.0004
 04  6 29 14  4 50.0000000  0  8G 6G10G17G18G21G26G29G30
  20269081.3674    -504993.76249   -392944.69948                  20269078.4064
        50.2504         41.2504
  23044300.5084     797665.84449    607472.18347                  23044298.2384
        44.0004         29.5004
  23142982.2504     364979.58249    275355.34447                  23142979.5354
        43.7504         27.5004
  22282823.2974   -1352682.94549  -1042348.47347                  22282819.6524
        49.2504         34.5004
  21734893.7894    -858715.13349   -663471.17547                  21734889.9224
        49.2504         37.0004
  22331205.5234   -1078938.89849   -821654.00447                  22331203.0594
        44.0004         27.5004
  22599532.1644    -635045.54349   -493960.46546                  22599530.0514
        41.5004         24.5004
  22583785.7734     729854.73049    556094.12047                  22583783.8134
        47.7504         33.2504
 04  6 29 14  5  0.0000000  0  8G 6G10G17G18G21G26G29G30
  20266412.9144    -519015.27749   -403870.56548                  20266410.0864
        50.0004         41.0004
  23048589.7894     820206.03149    625035.93847                  23048587.6484
        45.0004         29.2504
  23144877.2504     374935.02749    283112.83547                  23144874.1604
        43.7504         26.2504
  22275529.7814   -1391007.91449  -1072212.08347                  22275526.6254
        48.7504         34.2504
  21730206.4774    -883347.00049   -682664.82947                  21730202.2584
        47.7504         36.7504
  22325419.0554   -1109346.43749   -845348.19547                  22325416.3364
        43.7504         28.5004
  22595933.6024    -653957.12949   -508696.76446                  22595931.1054
        41.2504         25.2504
  22587715.1884     750503.12549    572183.75347                  22587712.9414
        47.5004         32.5004
 04  6 29 14  5 10.0000000  0  8G 6G10G17G18G21G26G29G30
  20263749.9534    -533010.30549   -414775.79748                  20263746.9414
        49.5004         41.0004
  23052878.8984     842746.29349    642599.77647                  23052877.0784
        44.7504         30.0004
  23146768.8834     384875.56349    290858.70747                  23146766.0164
        43.7504         26.5004
  22268239.7194   -1429318.60249  -1102064.56247                  22268235.7734
        48.7504         34.2504
  21725518.4774    -907984.10949   -701862.57647                  21725513.6644
        48.7504         36.5004
  22319638.2814   -1139724.47749   -869019.41547                  22319635.0864
        43.2504         29.0004
  22592341.8134    -672835.14849   -523406.92147                  22592339.2344
        41.0004         25.7504
  22591645.0784     771151.99649    588273.78647                  22591642.2464
        47.5004         33.0004
 04  6 29 14  5 20.0000000  0  8G 6G10G17G18G21G26G29G30
  20261092.0554    -546978.62549   -425660.20048                  20261088.9804
        50.0004         41.0004
  23057168.7814     865286.66049    660163.67647                  23057166.3444
        45.2504         29.7504
  23148657.5084     394801.34449    298593.06047                  23148655.3594
        44.0004         26.5004
  22260952.1414   -1467614.67249  -1131905.65247                  22260948.0944
        48.2504         34.2504
  21720828.8984    -932626.28949   -721064.27147                  21720824.2034
        48.2504         36.2504
  22313863.1484   -1170072.69149   -892667.37947                  22313860.0004
        44.0004         28.2504
  22588755.0634    -691679.46549   -538090.83046                  22588753.1294
        39.5004         24.2504
  22595574.3524     791801.42249    604364.22347                  22595571.4574
        47.7504         33.0004
 04  6 29 14  5 30.0000000  0  8G 6G10G17G18G21G26G29G30
  20258438.8834    -560921.04349   -436524.42548                  20258435.7544
        50.0004         41.0004
  23061457.3834     887826.16849    677726.91547                  23061455.1134
        45.5004         29.5004
  23150543.6414     404711.43449    306315.18247                  23150541.6334
        45.5004         26.7504
  22253667.1564   -1505897.09849  -1161736.09947                  22253663.5124
        48.5004         34.0004
  21716138.7734    -957274.49249   -740270.66647                  21716134.0864
        49.0004         37.0004
  22308093.3444   -1200391.86749   -916292.71447                  22308091.1254
        44.7504         29.0004
  22585176.1094    -710490.80949   -552749.02546                  22585173.0784
        38.5004         23.0004
  22599503.6884     812450.37549    620454.32047                  22599500.7624
        47.5004         32.7504
 04  6 29 14  5 40.0000000  0  8G 6G10G17G18G21G26G29G30
  20255790.3914    -574837.69949   -447368.57948                  20255787.6644
        51.7504         41.5004
  23065746.1334     910364.63349    695289.32747                  23065744.1564
        44.2504         29.5004
  23152426.6334     414605.71949    314025.00347                  23152424.0704
        45.5004         28.0004
  22246384.8054   -1544165.78149  -1191555.86347                  22246380.9384
        48.7504         33.7504
  21711446.8914    -981928.78549   -759481.81247                  21711442.3954
        50.0004         37.0004
  22302329.7424   -1230681.92249   -939895.37347                  22302326.8404
        45.5004         30.0004
  22581602.3054    -729269.24649   -567381.54546                  22581599.7504
        39.0004         22.5004
  22603432.7274     833098.70349    636543.89947                  22603430.1844
        47.5004         32.0004
 04  6 29 14  5 50.0000000  0  9G16G 6G10G17G18G21G26G29G30
  24780136.0084     -95560.39159    -64982.66256                  24780133.0634
        36.0004         21.2504
  20253147.0004    -588728.25049   -458192.39048                  20253144.2194
        50.2504         41.5004
  23070035.5634     932902.13749    712851.02347                  23070033.4104
        44.7504         29.7504
  23154306.3364     424484.53549    321722.76947                  23154304.0864
        44.2504         27.7504
  22239105.1804   -1582420.53549  -1221364.74947                  22239101.3244
        48.2504         33.2504
  21706754.6484   -1006588.99249   -778697.55847                  21706750.0124
        49.5004         37.2504
  22296571.8834   -1260942.62949   -963475.15047                  22296568.7584
        45.0004         30.0004
  22578035.1954    -748014.47349   -581988.20846                  22578032.3404
        38.5004         22.0004
  22607362.2894     853746.45349    652633.05347                  22607359.6414
        47.5004         32.5004
 04  6 29 14  6  0.0000000  0  9G16G 6G10G17G18G21G26G29G30
  24773616.0314    -129825.23049    -91682.58146                  24773612.3094
        38.5004         22.5004
  20250508.7114    -602592.66049   -468995.83648                  20250506.0784
        48.7504         41.5004
  23074323.9454     955438.60249    730411.88247                  23074321.6174
        44.5004         29.5004
  23156183.3594     434347.71549    329408.35847                  23156180.7504
        44.2504         27.5004
  22231828.2734   -1620661.30149  -1251162.74247                  22231824.1334
        49.2504         34.5004
  21702060.9064   -1031255.04349   -797917.85947                  21702056.7854
        48.7504         37.2504
  22290818.2274   -1291173.75049   -987031.87247                  22290816.3554
        44.5004         30.0004
  22574473.8914    -766726.49249   -596569.00546                  22574471.8054
        40.0004         23.2504
  22611290.9534     874393.55149    668721.68547                  22611288.1604
        48.0004         32.5004
 04  6 29 14  6 10.0000000  0  9G16G 6G10G17G18G21G26G29G30
  24767098.2894    -164071.21549   -118367.69546                  24767095.9454
        38.5004         22.5004
  20247874.8834    -616433.09049   -479780.59448                  20247872.0704
        50.5004         41.7504
  23078611.9694     977971.76249    747970.17947                  23078609.4804
        45.0004         29.2504
  23158056.7894     444193.18849    337080.15547                  23158054.1334
        44.7504         28.5004
  22224553.4384   -1658890.05549  -1280951.38247                  22224549.4574
        49.7504         34.0004
  21697365.1804   -1055929.28949   -817144.55247                  21697361.3874
        50.0004         37.0004
  22285071.0944   -1321377.50049  -1010567.26047                  22285068.5594
        45.2504         31.2504
  22570919.3284    -785407.26649   -611125.50046                  22570916.5314
        40.2504         24.0004
  22615218.9384     895037.68049    684808.00147                  22615216.4414
        48.0004         31.5004
 04  6 29 14  6 20.0000000  0  9G16G 6G10G17G18G21G26G29G30
  24760586.3444    -198297.30949   -145037.38346                  24760582.7504
        38.7504         22.7504
  20245245.9304    -630248.39549   -490545.77148                  20245242.8284
        50.7504         41.2504
  23082899.0234    1000502.56649    765526.64247                  23082896.4454
        44.5004         29.7504
  23159927.0394     454021.94549    344738.90747                  23159924.8754
        45.0004         27.7504
  22217281.6884   -1697105.77749  -1310729.85847                  22217277.5784
        49.7504         35.0004
  21692668.6644   -1080610.64849   -836376.78047                  21692664.6724
        50.5004         37.2504
  22279329.1484   -1351552.62949  -1034080.32147                  22279326.5044
        46.5004         30.0004
  22567371.3834    -804055.87149   -625656.85446                  22567367.9804
        39.7504         24.5004
  22619148.0554     915679.76249    700892.71947                  22619144.0314
        48.0004         32.0004
 04  6 29 14  6 30.0000000  0  9G16G 6G10G17G18G21G26G29G30
  24754077.2974    -232501.96549   -171690.36746                  24754073.7934
        38.5004         23.0004
  20242622.0554    -644037.23449   -501290.32748                  20242618.7114
        51.0004         41.0004
  23087186.4774    1023032.20749    783082.19247                  23087183.6174
        44.5004         29.5004
  23161794.7344     463835.24249    352385.61247                  23161792.5124
        44.0004         27.5004
  22210011.9614   -1735307.11749  -1340497.14147                  22210008.0784
        48.7504         34.2504
  21687970.7274   -1105297.78949   -855613.51047                  21687966.4574
        50.2504         37.0004
  22273592.3444   -1381697.62949  -1057569.95247                  22273590.0864
        46.5004         30.2504
  22563829.0944    -822670.75849   -640161.96246                  22563825.6254
        39.2504         23.7504
  22623075.2504     936321.04749    716976.82447                  22623072.7974
        48.2504         31.5004
 04  6 29 14  6 40.0000000  0  9G16G 6G10G17G18G21G26G29G30
  24747572.5084    -266685.70749   -198327.02146                  24747569.0234
        37.5004         22.7504
  20240003.2734    -657799.97749   -512014.54548                  20239999.8674
        50.7504         40.7504
  23091473.2894    1045560.14849    800636.41947                  23091470.9844
        44.5004         29.7504
  23163659.1954     473632.75049    360020.02047                  23163657.1684
        44.0004         28.7504
  22202745.3364   -1773494.50049  -1370253.54447                  22202741.5824
        49.0004         33.7504
  21683271.8204   -1129991.20749   -874855.13747                  21683267.2504
        50.7504         37.0004
  22267861.5704   -1411813.04349  -1081036.48547                  22267859.5124
        45.5004         31.0004
  22560292.4534    -841252.44549   -654641.21746                  22560290.1174
        40.2504         24.2504
  22627003.1254     956960.89849    733059.82047                  22627000.7734
        47.5004         31.0004
 04  6 29 14  6 50.0000000  0  9G16G 6G10G17G18G21G26G29G30
  24741071.6254    -300848.71149   -224947.58346                  24741067.5594
        39.2504         24.0004
  20237389.0234    -671536.99249   -522718.71648                  20237385.9104
        51.0004         40.7504
  23095759.9224    1068085.89549    818188.92647                  23095757.3554
        45.0004         29.7504
  23165520.1804     483414.03149    367641.78447                  23165518.5394
        43.7504         28.2504
  22195480.9534   -1811668.14849  -1399999.23147                  22195477.6174
        49.0004         34.2504
  21678571.6174   -1154691.03549   -894101.74747                  21678566.9184
        51.2504         37.2504
  22262136.5634   -1441898.91849  -1104480.02447                  22262134.2234
        45.7504         31.7504
  22556763.5864    -859801.17249   -669094.72247                  22556760.4184
        39.7504         26.2504
  22630930.5704     977598.95749    749141.40547                  22630927.9614
        47.0004         30.7504
 04  6 29 14  7  0.0000000  0  9G16G 6G10G17G18G21G26G29G30
  24734574.1564    -334991.51649   -251552.34446                  24734570.3134
        38.5004         22.5004
  20234780.0004    -685248.75449   -533403.20848                  20234776.7034
        50.7504         41.0004
  23100046.5164    1090608.79749    835739.24947                  23100043.5164
        45.5004         30.5004
  23167378.0944     493178.52049    375250.45447                  23167376.9494
        43.0004         27.7504
  22188219.4454   -1849828.57849  -1429734.62747                  22188215.7114
        49.5004         34.5004
  21673869.7814   -1179397.96149   -913353.90447                  21673865.3674
        50.0004         37.5004
  22256416.7584   -1471955.77749  -1127900.94347                  22256414.2814
        46.0004         31.2504
  22553239.3054    -878317.46549   -683523.02746                  22553236.9224
        38.5004         25.5004
  22634856.7584     998234.48449    765221.03747                  22634854.5274
        46.7504         30.2504
 04  6 29 14  7 10.0000000  0  9G16G 6G10G17G18G21G26G29G30
  24728081.2814    -369112.92249   -278140.43646                  24728076.9654
        39.7504         24.5004
  20232175.9614    -698934.09449   -544067.11448                  20232172.9734
        50.7504         40.7504
  23104331.6564    1113129.87549    853288.10547                  23104328.9224
        44.7504         30.2504
  23169233.2504     502927.31349    382846.90447                  23169231.5164
        42.7504         27.5004
  22180959.9774   -1887974.69549  -1459458.87247                  22180956.6374
        48.5004         34.5004
  21669167.3364   -1204110.88749   -932610.74947                  21669162.8014
        49.5004         37.2504
  22250702.6334   -1501982.36749  -1151298.31647                  22250700.1134
        45.7504         30.7504
  22549721.7114    -896800.19149   -697925.14746                  22549720.1414
        39.0004         24.0004
  22638783.3364    1018868.40249    781299.40447                  22638780.9734
        47.5004         31.0004
 04  6 29 14  7 20.0000000  0  9G16G 6G10G17G18G21G26G29G30
  24721591.8524    -403212.89149   -304711.83046                  24721588.0084
        39.0004         24.5004
  20229576.4304    -712592.93049   -554710.36248                  20229573.3134
        51.5004         41.0004
  23108617.5004    1135649.06649    870835.50247                  23108614.1454
        45.5004         30.0004
  23171085.3444     512660.41849    390431.10947                  23171084.1804
        43.5004         27.5004
  22173704.1564   -1926106.39849  -1489171.88147                  22173700.4064
        48.7504         35.0004
  21664463.2034   -1228829.89849   -951872.30047                  21664458.7624
        49.7504         36.7504
  22244994.8594   -1531978.64149  -1174672.03447                  22244992.5474
        45.7504         31.7504
  22546211.5314    -915249.14849   -712300.93346                  22546209.0124
        40.5004         25.2504
  22642710.2734    1039500.75849    797376.54047                  22642707.1684
        46.2504         30.2504
 04  6 29 14  7 30.0000000  0  9G16G 6G10G17G18G21G26G29G30
  24715107.1804    -437289.41849   -331264.99546                  24715103.5904
        39.0004         22.7504
  20226982.6334    -726223.40649   -565331.51948                  20226979.4964
        50.5004         41.2504
  23112902.4534    1158168.14149    888382.82747                  23112899.6334
        45.5004         30.0004
  23172935.1254     522379.81349    398004.65647                  23172933.4184
        43.5004         28.2504
  22166450.7584   -1964221.69549  -1518872.11147                  22166447.4844
        48.5004         35.2504
  21659758.5784   -1253552.96549   -971137.04747                  21659754.1524
        49.5004         36.5004
  22239292.7584   -1561942.46149  -1198020.46047                  22239290.5904
        45.2504         31.2504
  22542707.2344    -933662.46149   -726648.96846                  22542705.0004
        41.2504         24.7504
  22646636.2974    1060133.22749    813453.78347                  22646633.6684
        46.5004         29.5004
 04  6 29 14  7 40.0000000  0  9G16G 6G10G17G18G21G26G29G30
  24708626.8594    -471344.42249   -357801.34246                  24708623.1804
        38.0004         24.5004
  20224393.9224    -739827.53149   -575932.15548                  20224390.9964
        50.7504         41.0004
  23117187.1334    1180684.97749    905928.38247                  23117184.9384
        45.2504         31.2504
  23174781.5004     532083.32049    405565.80147                  23174779.6054
        43.0004         28.0004
  22159200.3134   -2002322.58249  -1548561.08947                  22159197.4414
        48.2504         34.2504
  21655052.6954   -1278282.17649   -990406.55447                  21655048.7894
        50.7504         36.5004
  22233596.4774   -1591875.89549  -1221345.21847                  22233594.2464
        45.2504         31.5004
  22539209.8524    -952042.13749   -740970.77346                  22539207.2384
        40.7504         25.0004
  22650561.9304    1080763.74649    829529.49247                  22650559.7704
        45.7504         29.0004
 04  6 29 14  7 50.0000000  0  9G16G 6G10G17G18G21G26G29G30
  24702151.7344    -505375.99249   -384319.44046                  24702147.2544
        39.5004         22.7504
  20221810.5234    -753403.24249   -586510.63448                  20221807.5204
        51.5004         41.0004
  23121471.6414    1203201.30149    923473.56947                  23121469.0204
        44.5004         30.0004
  23176625.6174     541772.85949    413116.10647                  23176623.8094
        43.5004         28.5004
  22151953.3524   -2040407.14849  -1578237.37747                  22151949.8834
        48.2504         34.7504
  21650346.3284   -1303015.75049  -1009679.45647                  21650342.0864
        50.0004         37.0004
  22227906.5704   -1621776.85249  -1244644.67247                  22227904.4804
        45.2504         31.0004
  22535718.8674    -970386.25449   -755264.89647                  22535716.1844
        40.5004         25.7504
  22654488.2974    1101393.90249    845604.92947                  22654485.3874
        46.5004         28.5004
 04  6 29 14  8  0.0000000  0  9G16G 6G10G17G18G21G26G29G30
  24695679.3834    -539385.63349   -410820.47546                  24695675.8404
        40.5004         24.5004
  20219232.3594    -766952.12949   -597068.21548                  20219229.3054
        51.0004         41.5004
  23125755.9614    1225715.49649    941017.09447                  23125753.4264
        44.5004         30.0004
  23178466.2194     551446.97749    420654.36047                  23178464.3954
        43.7504         28.5004
  22144708.8984   -2078476.85549  -1607902.08647                  22144705.1174
        48.5004         35.5004
  21645638.5084   -1327755.17249  -1028956.93647                  21645634.2464
        50.0004         37.2504
  22222222.6484   -1651646.90249  -1267920.04647                  22222220.3484
        46.2504         31.7504
  22532234.9774    -988696.20749   -769532.38047                  22532232.3364
        41.7504         26.0004
  22658413.5164    1122022.24249    861678.94947                  22658411.3134
        46.5004         29.7504
 04  6 29 14  8 10.0000000  0  9G16G 6G10G17G18G21G26G29G30
  24689212.0394    -573372.60249   -437303.81146                  24689208.0984
        39.2504         23.5004
  20216659.3524    -780473.53149   -607604.38348                  20216656.0434
        51.0004         41.5004
  23130039.9384    1248228.04349    958559.31247                  23130037.7234
        44.5004         29.2504
  23180304.1884     561106.16849    428180.99747                  23180302.4184
        43.7504         28.5004
  22137467.1884   -2116531.10949  -1637554.74347                  22137464.1454
        48.2504         36.0004
  21640929.8674   -1352499.86349  -1048238.51647                  21640925.6804
        49.7504         37.5004
  22216545.0314   -1681485.15649  -1291170.62447                  22216542.4494
        45.5004         31.5004
  22528757.6484   -1006971.48849   -783772.85547                  22528754.4654
        41.0004         26.7504
  22662338.7814    1142649.07049    877751.78747                  22662336.5594
        45.0004         29.2504
 04  6 29 14  8 20.0000000  0  9G16G 6G10G17G18G21G26G29G30
  24682748.6564    -607335.44949   -463768.39646                  24682745.6804
        38.5004         24.5004
  20214091.7974    -793965.91049   -618117.92348                  20214088.7304
        50.5004         41.0004
  23134324.2274    1270740.25049    976101.29747                  23134321.1454
        44.7504         29.5004
  23182139.8524     570751.71949    435696.99947                  23182137.9264
        42.5004         28.2504
  22130228.7584   -2154568.46149  -1667194.24447                  22130225.4494
        48.2504         35.5004
  21636219.9844   -1377248.52349  -1067523.18947                  21636215.7274
        50.2504         37.0004
  22210872.7734   -1711290.25449  -1314395.37047                  22210870.5824
        46.2504         31.0004
  22525286.8054   -1025210.53949   -797985.10747                  22525283.6484
        43.0004         27.0004
  22666263.6024    1163275.81649    893824.55147                  22666261.5904
        45.5004         30.2504
 04  6 29 14  8 30.0000000  0  9G16G 6G10G17G18G21G26G29G30
  24676290.4064    -641274.72349   -490214.55746                  24676287.0164
        39.7504         24.0004
  20211529.6174    -807430.02049   -628609.44048                  20211526.4804
        51.0004         41.2504
  23138607.6484    1293251.34049    993642.38447                  23138605.0394
        45.2504         30.0004
  23183973.0314     580383.12149    443201.98747                  23183970.6294
        43.2504         27.7504
  22122993.7894   -2192589.55149  -1696821.05747                  22122990.5744
        48.7504         35.2504
  21631509.7504   -1402001.71149  -1086811.39047                  21631505.3914
        50.0004         36.7504
  22205207.6484   -1741062.71949  -1337594.69147                  22205205.0634
        46.7504         30.2504
  22521823.4844   -1043413.88349   -812169.52047                  22521820.3914
        43.2504         26.7504
  22670188.9224    1183901.57849    909896.57847                  22670186.2544
        45.5004         29.5004
 04  6 29 14  8 40.0000000  0  9G16G 6G10G17G18G21G26G29G30
  24669836.1564    -675189.53149   -516641.63846                  24669832.9574
        40.0004         24.0004
  20208973.0084    -820864.98449   -639078.25248                  20208970.2774
        51.2504         41.0004
  23142891.3984    1315762.05949   1011183.19247                  23142888.5944
        44.7504         30.2504
  23185802.9534     590001.20749    450696.59247                  23185801.3164
        43.0004         28.0004
  22115762.0394   -2230593.32449  -1726434.38147                  22115758.5744
        49.2504         35.2504
  21626798.8054   -1426758.62149  -1106102.49547                  21626794.2074
        50.5004         37.0004
  22199548.4064   -1770801.53949  -1360767.79247                  22199545.8484
        45.2504         30.2504
  22518366.0164   -1061580.80949   -826325.57947                  22518362.9064
        43.2504         27.5004
  22674113.5084    1204527.16849    925968.46547                  22674110.9344
        44.5004         29.0004
 04  6 29 14  8 50.0000000  0  9G16G 6G10G17G18G21G26G29G30
  24663387.1884    -709080.13749   -543049.91846                  24663383.3754
        39.5004         22.5004
  20206421.9614    -834270.95349   -649524.46948                  20206418.4494
        51.7504         41.0004
  23147175.3364    1338272.11349   1028723.49347                  23147172.3914
        44.2504         30.0004
  23187630.7034     599605.68449    458180.56347                  23187629.2464
        43.7504         27.5004
  22108533.4694   -2268580.13749  -1756034.48547                  22108529.7074
        48.7504         35.2504
  21622087.1564   -1451519.49649  -1125396.67147                  21622082.5354
        50.7504         36.0004
  22193895.6414   -1800506.92649  -1383914.82147                  22193893.3364
        46.2504         30.0004
  22514915.9064   -1079711.44949   -840453.34847                  22514912.8364
        42.2504         27.7504
  22678038.0704    1225152.23449    942039.92847                  22678035.5314
        45.0004         29.0004
 04  6 29 14  9  0.0000000  0  9G16G 6G10G17G18G21G26G29G30
  24656943.0004    -742945.66849   -569438.67446                  24656939.2074
        40.2504         22.0004
  20203876.7894    -847647.15249   -659947.48048                  20203873.4264
        51.5004         40.7504
  23151458.2344    1360782.14549   1046263.74847                  23151455.6524
        44.2504         29.2504
  23189456.0004     609197.23049    465654.46247                  23189454.4064
        44.0004         28.2504
  22101308.1334   -2306549.17249  -1785620.74647                  22101304.2774
        49.0004         34.7504
  21617374.3284   -1476283.74249  -1144693.48647                  21617369.8444
        51.0004         36.7504
  22188249.4694   -1830177.93049  -1407035.09847                  22188246.6054
        46.2504         29.0004
  22511472.9304   -1097805.00449   -854552.20947                  22511469.6724
        42.0004         27.5004
  22681962.9844    1245777.37949    958111.48447                  22681960.8204
        44.0004         29.0004
 04  6 29 14  9 10.0000000  0  9G16G 6G10G17G18G21G26G29G30
  24650503.0634    -776787.57849   -595808.99946                  24650499.3794
        39.0004         22.7504
  20201336.7664    -860995.04349   -670348.44448                  20201333.3484
        51.2504         41.2504
  23155742.1094    1383290.42649   1063802.63147                  23155738.8834
        43.5004         29.0004
  23191278.9454     618774.34049    473117.13147                  23191276.8054
        45.2504         27.7504
  22094086.2504   -2344501.73449  -1815194.15647                  22094082.2774
        48.5004         34.7504
  21612661.2344   -1501052.77749  -1163994.03947                  21612656.8634
        50.2504         37.0004
  22182609.5944   -1859816.13749  -1430129.76147                  22182606.8244
        46.0004         29.2504
  22508035.8754   -1115862.86749   -868623.28447                  22508033.1374
        42.5004         27.0004
  22685887.5704    1266400.88349    974181.70547                  22685885.4384
        44.0004         28.7504
 04  6 29 14  9 20.0000000  0  9G16G 6G10G17G18G21G26G29G30
  24644067.3914    -810602.87149   -622158.52946                  24644064.4694
        39.7504         22.0004
  20198802.4224    -874311.66049   -680725.03448                  20198799.6094
        51.0004         41.5004
  23160024.9924    1405799.89549   1081342.47947                  23160022.3874
        44.0004         29.2504
  23193099.2734     628340.02349    480570.90447                  23193097.0084
        44.2504         28.0004
  22086867.7894   -2382434.82449  -1844752.41047                  22086863.5394
        49.2504         34.5004
  21607947.3054   -1525823.55149  -1183295.93447                  21607942.8714
        50.7504         37.0004
  22176976.4614   -1889418.29749  -1453196.39647                  22176973.5314
        46.2504         27.5004
  22504607.5474   -1133882.12549   -882664.24847                  22504604.4884
        43.5004         27.2504
  22689812.2424    1287025.68049    990252.97047                  22689809.7624
        44.2504         29.0004
 04  6 29 14  9 30.0000000  0  9G16G 6G10G17G18G21G26G29G30
  24637638.2974    -844393.45749   -648488.83746                  24637634.4964
        40.5004         22.0004
  20196273.8834    -887598.96949   -691078.79248                  20196271.3554
        51.0004         41.2504
  23164308.5784    1428308.34049   1098881.49147                  23164305.4454
        43.5004         29.7504
  23194916.4064     637892.20749    488014.13947                  23194914.2504
        44.7504         28.0004
  22079652.1094   -2420350.64849  -1874297.19947                  22079648.1954
        48.2504         35.7504
  21603232.8754   -1550598.15649  -1202600.83147                  21603229.0744
        50.7504         36.7504
  22171349.5704   -1918986.33649  -1476236.41847                  22171346.2854
        46.2504         28.5004
  22501186.0164   -1151864.72349   -896676.67947                  22501182.3094
        42.5004         27.0004
  22693736.4694    1307649.54749   1006323.50647                  22693734.6954
        44.0004         28.7504
 04  6 29 14  9 40.0000000  0  9G16G 6G10G17G18G21G26G29G30
  24631212.5164    -878159.59649   -674800.09246                  24631208.7624
        40.7504         22.5004
  20193751.0314    -900857.16449   -701409.86048                  20193748.1954
        51.0004         41.0004
  23168591.2974    1450815.38349   1116419.42947                  23168588.4734
        43.5004         29.2504
  23196731.1024     647430.57849    495446.63847                  23196729.0354
        44.5004         27.0004
  22072440.5634   -2458249.31249  -1903828.61347                  22072436.6994
        49.0004         35.2504
  21598517.6724   -1575376.89849  -1221908.94747                  21598513.5084
        50.5004         36.5004
  22165729.6954   -1948520.50849  -1499250.05547                  22165726.5904
        47.0004         28.5004
  22497770.6954   -1169810.88749   -910660.71747                  22497767.8674
        43.2504         27.7504
  22697661.2974    1328272.19149   1022393.07647                  22697658.9964
        45.0004         29.5004
 04  6 29 14  9 50.0000000  0  9G16G 6G10G17G18G21G26G29G30
  24624791.9304    -911900.12149   -701091.44546                  24624787.9964
        39.5004         23.0004
  20191233.7734    -914085.35549   -711717.55048                  20191230.6684
        51.5004         41.0004
  23172874.5704    1473321.86749   1133956.94047                  23172871.2424
        43.5004         29.5004
  23198544.1954     656956.08649    502869.09347                  23198541.6994
        44.7504         26.7504
  22065232.0554   -2496129.75049  -1933345.82447                  22065228.6524
        48.7504         34.2504
  21593801.9614   -1600158.87149  -1241219.56747                  21593797.6724
        51.2504         37.0004
  22160115.9614   -1978019.78949  -1522236.51447                  22160112.9534
        46.5004         29.7504
  22494362.2424   -1187719.65249   -924615.62947                  22494359.8204
        42.2504         26.7504
  22701585.1024    1348894.32849   1038462.24747                  22701583.6804
        44.5004         30.0004
 04  6 29 14 10  0.0000000  0  9G16G 6G10G17G18G21G26G29G30
  24618376.5634    -945615.78149   -727363.37646                  24618372.8554
        38.2504         22.0004
  20188722.3284    -927284.07449   -722002.26548                  20188719.2934
        51.5004         41.2504
  23177157.0234    1495827.14549   1151493.52647                  23177153.2074
        44.5004         28.2504
  23200354.6024     666468.13749    510281.08547                  23200351.8284
        45.0004         26.5004
  22058027.1564   -2533992.58249  -1962849.33547                  22058023.0234
        48.0004         34.7504
  21589085.1644   -1624944.66049  -1260533.16747                  21589080.8714
        50.5004         37.2504
  22154509.1414   -2007484.62149  -1545196.11847                  22154506.5594
        46.0004         29.2504
  22490961.1724   -1205591.59049   -938541.78747                  22490958.1174
        41.0004         25.7504
  22705509.3364    1369515.26249   1054530.48047                  22705507.9304
        44.7504         30.5004
 04  6 29 14 10 10.0000000  0  9G16G 6G10G17G18G21G26G29G30
  24611965.7664    -979304.84449   -753614.58546                  24611961.6914
        39.5004         22.2504
  20186216.7034    -940451.67649   -732262.74048                  20186213.5554
        51.2504         41.2504
  23181439.4924    1518332.70349   1169030.29747                  23181436.1884
        45.5004         29.5004
  23202161.9844     675968.21949    517683.73047                  23202159.5474
        44.7504         27.0004
  22050825.7424   -2571836.17249  -1992337.84347                  22050822.1914
        48.5004         34.5004
  21584368.2664   -1649732.66849  -1279848.51047                  21584363.4414
        50.5004         36.7504
  22148909.2194   -2036913.41449  -1568127.62347                  22148906.2194
        46.5004         29.2504
  22487567.7894   -1223425.04349   -952437.96146                  22487564.6604
        41.5004         25.5004
  22709433.7274    1390136.45749   1070598.93647                  22709431.4964
        45.5004         30.2504
 04  6 29 14 10 20.0000000  0  9G16G 6G10G17G18G21G26G29G30
  24605558.8364   -1012968.30949   -779845.82346                  24605556.1914
        39.0004         22.5004
  20183716.6724    -953589.19149   -742499.76448                  20183713.5514
        51.2504         41.7504
  23185722.0554    1540837.27349   1186566.33047                  23185718.4414
        44.5004         31.0004
  23203966.9224     685455.33249    525076.28047                  23203964.8674
        44.5004         27.7504
  22043627.7194   -2609661.50049  -2021812.12147                  22043624.0704
        48.2504         34.7504
  21579650.7344   -1674524.02349  -1299166.44347                  21579646.0234
        51.2504         36.5004
  22143315.9774   -2066307.09449  -1591031.79347                  22143313.0944
        46.0004         30.7504
  22484181.1024   -1241221.15249   -966305.07846                  22484178.1054
        42.5004         24.5004
  22713357.5704    1410756.71949   1086666.66047                  22713355.7894
        46.0004         31.5004
 04  6 29 14 10 30.0000000  0  9G16G 6G10G17G18G21G26G29G30
  24599158.4064   -1046606.73849   -806057.62946                  24599155.4414
        40.5004         22.5004
  20181222.1954    -966697.16849   -752713.79048                  20181219.1954
        51.5004         41.7504
  23190004.0314    1563340.19149   1204101.03147                  23190001.4224
        44.2504         30.5004
  23205770.3834     694928.87549    532458.26247                  23205768.0634
        44.5004         28.0004
  22036433.1884   -2647469.23049  -2051272.67647                  22036430.2814
        48.7504         35.0004
  21574932.1484   -1699319.38749  -1318487.51147                  21574927.5084
        50.0004         37.5004
  22137729.1334   -2095666.16449  -1613908.98647                  22137726.3094
        45.5004         29.5004
  22480801.8914   -1258980.27349   -980143.33147                  22480798.5004
        42.5004         26.5004
  22717281.3054    1431375.28149   1102733.05647                  22717279.2034
        46.0004         31.2504
 04  6 29 14 10 40.0000000  0  9G16G 6G10G17G18G21G26G29G30
  24592761.3594   -1080219.49249   -832249.38146                  24592758.6804
        39.7504         22.0004
  20178733.4844    -979775.09049   -762904.38048                  20178730.5744
        51.7504         41.5004
  23194286.3834    1585841.88749   1221634.79747                  23194283.2504
        44.5004         30.0004
  23207570.5004     704389.32849    539830.04047                  23207568.2074
        44.5004         27.0004
  22029242.0634   -2685258.81649  -2080719.10747                  22029238.8834
        49.0004         35.5004
  21570213.1414   -1724118.28949  -1337811.32347                  21570208.4224
        50.0004         37.2504
  22132148.8524   -2124989.94149  -1636758.70447                  22132146.3444
        45.0004         29.7504
  22477429.4614   -1276701.91049   -993952.42146                  22477426.2664
        43.0004         24.5004
  22721204.1804    1451992.59849   1118798.48147                  22721202.4884
        46.0004         31.5004
 04  6 29 14 10 50.0000000  0  9G16G 6G10G17G18G21G26G29G30
  24586371.0394   -1113804.88349   -858419.81446                  24586367.2624
        38.7504         21.7504
  20176250.8444    -992821.24649   -773070.21048                  20176247.9614
        52.2504         41.2504
  23198567.9844    1608343.91049   1239168.82847                  23198565.1914
        43.7504         28.5004
  23209368.6414     713838.35949    547192.91347                  23209366.4534
        44.7504         27.2504
  22022054.6884   -2723028.43749  -2110149.97047                  22022051.4494
        48.5004         35.5004
  21565493.6334   -1748919.05549  -1357136.60047                  21565489.1684
        50.5004         37.2504
  22126575.2504   -2154276.70349  -1659579.56947                  22126573.1994
        44.0004         28.2504
  22474064.4774   -1294384.35249  -1007730.97347                  22474061.5044
        43.0004         25.7504
  22725128.3054    1472610.25049   1134864.17847                  22725126.4184
        46.2504         31.5004
 04  6 29 14 11  0.0000000  0  9G16G 6G10G17G18G21G26G29G30
  24579984.7504   -1147363.85949   -884569.66746                  24579980.6054
        38.0004         21.2504
  20173774.2424   -1005836.60549   -783212.06048                  20173771.2154
        51.7504         41.5004
  23202849.9384    1630845.18849   1256702.25047                  23202846.8404
        44.0004         27.5004
  23211164.5314     723274.95749    554546.09347                  23211162.4454
        45.0004         27.7504
  22014871.2114   -2760779.07849  -2139566.04247                  22014867.6804
        48.5004         35.5004
  21560773.8054   -1773722.57449  -1376464.01647                  21560769.3984
        50.5004         37.7504
  22121009.0554   -2183527.29349  -1682372.25047                  22121007.1484
        43.7504         28.2504
  22470707.0864   -1312028.47749  -1021479.64246                  22470704.5944
        42.2504         24.7504
  22729052.0864    1493227.12149   1150929.26047                  22729049.0594
        47.2504         31.5004
 04  6 29 14 11 10.0000000  0  9G16G 6G10G17G18G21G26G29G30
  24573603.3444   -1180899.08649   -910700.99846                  24573598.8164
        39.2504         21.0004
  20171302.7424   -1018823.94549   -793332.07248                  20171299.5864
        51.7504         41.5004
  23207130.7734    1653342.84449   1274232.90547                  23207128.0274
        43.2504         28.2504
  23212956.8984     732696.35249    561887.42047                  23212955.0004
        44.7504         26.5004
  22007690.5634   -2798513.47349  -2168969.46647                  22007687.0594
        48.5004         35.5004
  21556052.7424   -1798531.78949  -1395795.88447                  21556048.0084
        51.0004         37.5004
  22115449.5084   -2212744.43749  -1705138.83547                  22115447.2384
        43.0004         29.0004
  22467356.7424   -1329637.19549  -1035200.74446                  22467353.6024
        42.5004         24.0004
  22732974.0314    1513840.21549   1166991.39947                  22732972.2274
        47.5004         31.5004
 04  6 29 14 11 20.0000000  0  9G16G 6G10G17G18G21G26G29G30
  24567226.7584   -1214408.00049   -936811.81046                  24567221.8874
        39.2504         22.0004
  20168837.0004   -1031780.69149   -803428.23048                  20168833.8634
        51.7504         41.0004
  23211411.8444    1675839.21149   1291762.50447                  23211409.1294
        44.0004         28.0004
  23214747.5554     742105.00449    569218.79647                  23214745.8674
        43.7504         26.5004
  22000513.1024   -2836228.94149  -2198358.13647                  22000509.6414
        48.5004         36.5004
  21551331.3444   -1823344.05949  -1415130.12347                  21551326.3364
        51.0004         37.5004
  22109896.6564   -2241925.50049  -1727877.32247                  22109894.0204
        43.2504         28.2504
  22464012.9924   -1347207.83649  -1048892.11246                  22464010.2344
        41.5004         24.7504
  22736896.2504    1534452.02049   1183052.53947                  22736894.3524
        46.5004         32.2504
 04  6 29 14 11 30.0000000  0  9G16G 6G10G17G18G21G26G29G30
  24560855.4924   -1247889.34049   -962901.13346                  24560850.1914
        38.5004         21.5004
  20166377.5164   -1044705.56649   -813499.56948                  20166374.6414
        51.7504         41.0004
  23215692.6414    1698335.46149   1309292.02447                  23215690.1524
        42.5004         27.7504
  23216535.7194     751502.12549    576541.24746                  23216533.8984
        43.0004         25.5004
  21993340.1884   -2873924.39849  -2227731.21247                  21993336.6994
        48.5004         37.0004
  21546609.1024   -1848158.26249  -1434465.86247                  21546604.7464
        51.5004         37.2504
  22104350.4694   -2271069.21549  -1750586.72947                  22104347.9494
        43.2504         28.5004
  22460676.4144   -1364739.05949  -1062552.81046                  22460674.3244
        40.5004         23.7504
  22740818.3594    1555063.53149   1199113.46347                  22740816.2424
        47.0004         32.2504
 04  6 29 14 11 40.0000000  0  9G16G 6G10G17G18G21G26G29G30
  24554488.6724   -1281343.91449   -988969.71746                  24554484.5204
        39.0004         20.7504
  20163923.9774   -1057599.37549   -823546.70548                  20163921.3324
        51.5004         41.0004
  23219973.6414    1720830.53949   1326820.63047                  23219971.3554
        43.2504         27.5004
  23218321.7504     760886.78549    583853.94246                  23218319.4534
        44.2504         25.5004
  21986170.5314   -2911600.64549  -2257089.32147                  21986166.8714
        48.5004         36.0004
  21541886.6334   -1872975.37149  -1453803.86047                  21541881.8954
        51.2504         36.7504
  22098811.4844   -2300176.35249  -1773267.63447                  22098808.6724
        44.0004         27.5004
  22457347.7114   -1382231.92649  -1076183.66346                  22457344.9774
        42.2504         25.0004
  22744740.5634    1575673.83649   1215173.42547                  22744738.5234
        47.0004         31.7504
 04  6 29 14 11 50.0000000  0  9G16G 6G10G17G18G21G26G29G30
  24548127.6334   -1314772.09449  -1015017.57646                  24548123.6414
        37.5004         20.2504
  20161476.0164   -1070462.56249   -833569.96848                  20161473.4574
        51.7504         41.2504
  23224253.8984    1743323.91849   1344347.94847                  23224250.8834
        42.5004         27.5004
  23220104.9384     770258.60249    591156.66047                  23220102.7464
        44.0004         26.2504
  21979004.5234   -2949258.04749  -2286432.74147                  21979000.6684
        49.5004         36.0004
  21537163.5164   -1897795.71149  -1473144.39647                  21537158.9344
        51.5004         37.0004
  22093279.6564   -2329247.27749  -1795920.31147                  22093277.4884
        43.0004         28.5004
  22454026.0084   -1399686.71549  -1089784.78746                  22454023.2704
        43.0004         25.0004
  22748661.8204    1596282.32449   1231231.96247                  22748660.4224
        46.5004         31.7504
 04  6 29 14 12  0.0000000  0  9G16G 6G10G17G18G21G26G29G30
  24541772.0314   -1348172.79749  -1041044.03746                  24541767.5824
        38.0004         21.0004
  20159034.1024   -1083294.09449   -843568.56548                  20159031.8284
        51.2504         41.2504
  23228533.4304    1765816.49249   1361874.60347                  23228531.3364
        42.7504         27.0004
  23221886.4844     779618.55549    598450.10146                  23221883.6884
        44.5004         25.5004
  21971842.3134   -2986895.45749  -2315760.59047                  21971838.1094
        49.0004         35.7504
  21532440.1414   -1922618.30149  -1492486.67147                  21532435.3524
        51.5004         37.0004
  22087754.3984   -2358280.75449  -1818543.79947                  22087752.6214
        42.5004         26.7504
  22450712.1644   -1417102.34449  -1103355.45146                  22450708.9024
        42.0004         24.5004
  22752583.6724    1616889.98449   1247289.87447                  22752581.6414
        46.5004         32.2504
 04  6 29 14 12 10.0000000  0  9G16G 6G10G17G18G21G26G29G30
  24535420.9614   -1381546.98049  -1067049.89446                  24535416.8594
        38.7504         20.2504
  20156598.5084   -1096094.91849   -853543.25348                  20156595.8914
        51.5004         41.5004
  23232813.5944    1788307.23849   1379399.85147                  23232811.4384
        43.7504         27.5004
  23223665.1174     788965.75049    605733.63847                  23223662.1884
        44.5004         26.7504
  21964683.7734   -3024513.93449  -2345073.68347                  21964680.1724
        49.0004         36.0004
  21527715.3834   -1947444.14849  -1511831.48347                  21527711.3484
        51.5004         37.7504
  22082236.3984   -2387277.79749  -1841138.90447                  22082235.3444
        41.7504         26.2504
  22447405.1484   -1434479.71949  -1116896.23646                  22447402.0274
        41.7504         25.2504
  22756504.7894    1637495.55149   1263346.13747                  22756502.8524
        46.2504         31.2504
 04  6 29 14 12 20.0000000  0  9G16G 6G10G17G18G21G26G29G30
  24529075.3834   -1414892.94949  -1093033.84346                  24529071.6524
        37.5004         19.7504
  20154168.8914   -1108863.33249   -863492.67448                  20154165.7934
        51.2504         41.5004
  23237093.5554    1810797.68049   1396924.85347                  23237091.5514
        43.5004         27.5004
  23225441.1024     798301.58649    613008.27947                  23225438.6254
        43.7504         26.5004
  21957529.0554   -3062111.78549  -2374370.71247                  21957525.4384
        49.0004         35.5004
  21522990.9384   -1972271.63349  -1531177.57847                  21522987.2934
        51.0004         38.0004
  22076726.0864   -2416236.65249  -1863704.25147                  22076724.4964
        42.7504         26.2504
  22444106.3134   -1451817.30549  -1130406.05547                  22444103.3874
        42.0004         26.2504
  22760425.8594    1658100.58649   1279401.98647                  22760423.8094
        46.5004         30.5004
 04  6 29 14 12 30.0000000  0  9G16G 6G10G17G18G21G26G29G30
  24522736.0944   -1448209.91049  -1118995.00246                  24522731.8244
        37.7504         19.7504
  20151745.3364   -1121598.68049   -873416.33048                  20151742.4734
        51.7504         41.2504
  23241373.3984    1833288.32449   1414450.02147                  23241371.5354
        45.0004         28.7504
  23227216.6174     807626.82049    620274.72647                  23227213.3484
        43.7504         26.0004
  21950378.4384   -3099688.35549  -2403651.14247                  21950374.4024
        49.0004         35.5004
  21518266.5944   -1997100.11349  -1550524.45647                  21518261.9574
        50.5004         37.5004
  22071222.5944   -2445156.50849  -1886239.16547                  22071220.8054
        42.7504         27.0004
  22440814.6564   -1469114.23449  -1143884.16346                  22440812.1994
        41.5004         24.5004
  22764346.7504    1678705.70749   1295457.93747                  22764344.8014
        46.7504         31.2504
 04  6 29 14 12 40.0000000  0  9G16G 6G10G17G18G21G26G29G30
  24516400.6724   -1481498.84449  -1144934.44946                  24516397.7304
        36.0004         19.2504
  20149328.3284   -1134301.85949   -883314.91148                  20149325.2154
        51.2504         41.7504
  23245653.4924    1855778.11349   1431974.51747                  23245651.2974
        44.7504         29.0004
  23228988.5394     816940.51649    627532.08447                  23228985.9964
        45.0004         26.7504
  21943231.4384   -3137244.42649  -2432915.61147                  21943228.0084
        49.0004         35.0004
  21513541.4774   -2021930.67649  -1569872.94747                  21513536.7344
        51.0004         37.0004
  22065726.6954   -2474038.33649  -1908744.47447                  22065724.3284
        42.0004         26.0004
  22437530.4144   -1486371.52049  -1157331.41647                  22437527.9844
        41.5004         26.5004
  22768267.8754    1699309.77349   1311513.03347                  22768265.7774
        46.0004         31.7504
 04  6 29 14 12 50.0000000  0  9G16G 6G10G17G18G21G26G29G30
  24510071.3594   -1514759.79349  -1170852.06546                  24510068.3524
        37.2504         19.7504
  20146917.0784   -1146973.05149   -893188.56448                  20146913.9024
        52.0004         41.5004
  23249932.8594    1878266.82049   1449498.16747                  23249930.3164
        44.7504         28.7504
  23230758.7504     826242.46949    634780.37147                  23230756.4184
        44.5004         27.0004
  21936088.8914   -3174780.25449  -2462164.31747                  21936084.6914
        48.7504         35.0004
  21508816.0864   -2046763.42249  -1589223.13647                  21508811.2704
        51.5004         37.5004
  22060237.9614   -2502882.07049  -1931220.11347                  22060235.5394
        43.0004         25.7504
  22434253.9304   -1503589.37549  -1170747.90347                  22434251.9614
        41.0004         26.2504
  22772188.3134    1719912.53549   1327567.12147                  22772186.5824
        46.5004         30.5004
 04  6 29 14 13  0.0000000  0  9G16G 6G10G17G18G21G26G29G30
  24503747.3284   -1547991.74249  -1196747.15246                  24503743.6294
        38.0004         19.5004
  20144511.8834   -1159611.20749   -903036.47748                  20144508.6094
        52.2504         41.5004
  23254212.5314    1900755.25449   1467021.60147                  23254209.7154
        45.0004         29.0004
  23232526.5634     835533.61749    642020.19847                  23232524.3484
        45.0004         27.5004
  21928950.5474   -3212294.84849  -2491396.45347                  21928946.4614
        48.7504         35.0004
  21504090.1484   -2071597.62149  -1608574.46647                  21504085.4264
        51.0004         37.2504
  22054756.6884   -2531686.63749  -1953665.21847                  22054753.9804
        43.7504         26.5004
  22430985.8444   -1520766.66849  -1184132.81547                  22430983.0354
        39.7504         26.5004
  22776109.0314    1740514.68449   1343620.73847                  22776106.9574
        47.0004         30.7504
 04  6 29 14 13 10.0000000  0  9G16G 6G10G17G18G21G26G29G30
  24497429.2814   -1581193.87549  -1222618.95346                  24497425.1684
        36.7504         19.7504
  20142113.3834   -1172215.59049   -912858.08148                  20142110.1134
        51.0004         41.5004
  23258491.5164    1923244.10249   1484545.36347                  23258489.0904
        44.5004         28.7504
  23234292.8834     844814.77049    649252.28347                  23234290.5124
        44.7504         27.0004
  21921815.5634   -3249787.30149  -2520611.34247                  21921811.8954
        49.0004         34.5004
  21499364.3204   -2096432.13749  -1627926.04147                  21499359.8754
        51.2504         37.7504
  22049282.6414   -2560451.28549  -1976079.20746                  22049279.8094
        43.2504         24.5004
  22427725.3444   -1537902.56249  -1197485.45846                  22427722.3164
        40.7504         25.5004
  22780029.2504    1761117.09449   1359674.53747                  22780027.5864
        46.2504         30.2504
 04  6 29 14 13 20.0000000  0  9G16G 6G10G17G18G21G26G29G30
  24491115.5084   -1614368.19949  -1248469.00246                  24491111.9884
        37.7504         20.5004
  20139721.1414   -1184788.13749   -922654.87548                  20139717.6484
        51.5004         41.7504
  23262771.1254    1945731.14149   1502067.72947                  23262768.2624
        44.7504         28.2504
  23236056.7194     854083.70749    656474.77847                  23236053.9574
        44.5004         28.2504
  21914684.9454   -3287259.64849  -2549810.58747                  21914680.7464
        48.7504         34.7504
  21494637.8594   -2121269.16449  -1647279.57147                  21494633.7504
        51.0004         36.7504
  22043816.6644   -2589177.91049  -1998463.60446                  22043813.4924
        43.2504         24.5004
  22424471.2344   -1554999.16049  -1210807.50047                  22424468.3444
        40.2504         26.2504
  22783949.5314    1781717.41449   1375726.73147                  22783947.4844
        47.0004         30.5004
 04  6 29 14 13 30.0000000  0  9G16G 6G10G17G18G21G26G29G30
  24484808.9144   -1647513.21149  -1274296.22246                  24484804.1954
        37.2504         19.2504
  20137334.7734   -1197327.48049   -932425.79448                  20137331.1684
        50.7504         41.2504
  23267049.7274    1968217.68849   1519589.69347                  23267047.7384
        44.2504         28.2504
  23237817.9844     863341.96549    663689.02847                  23237816.1134
        45.0004         27.5004
  21907558.4224   -3324710.50849  -2578993.07347                  21907554.2734
        49.0004         36.0004
  21489911.3594   -2146107.52349  -1666634.14147                  21489907.3674
        50.7504         37.5004
  22038357.3594   -2617865.05949  -2020817.19146                  22038354.1134
        43.5004         22.5004
  22421226.0474   -1572055.01249  -1224097.73146                  22421223.0164
        40.2504         25.5004
  22787869.4224    1802317.00049   1391778.34847                  22787867.5004
        46.5004         31.0004
 04  6 29 14 13 40.0000000  0  9G16G 6G10G17G18G21G26G29G30
  24478507.9304   -1680628.31649  -1300100.25846                  24478502.2154
        37.0004         17.7504
  20134955.1024   -1209832.89149   -942170.28648                  20134951.5824
        50.0004         41.0004
  23271328.9924    1990704.26249   1537111.70347                  23271326.4104
        43.7504         28.5004
  23239577.7194     872590.05549    670895.30447                  23239576.5664
        43.5004         28.0004
  21900435.8364   -3362139.18449  -2608158.26047                  21900431.9224
        47.5004         35.5004
  21485184.6724   -2170946.30949  -1685989.03747                  21485180.4774
        50.0004         37.2504
  22032905.9304   -2646512.05949  -2043139.52646                  22032902.8094
        43.0004         24.5004
  22417988.5704   -1589069.52049  -1237355.81246                  22417984.6524
        40.0004         25.5004
  22791788.9614    1822916.28149   1407829.72847                  22791787.0004
        46.0004         29.7504
 04  6 29 14 13 50.0000000  0  9G16G 6G10G17G18G21G26G29G30
  24472211.2424   -1713713.53949  -1325880.96246                  24472207.1134
        37.7504         18.2504
  20132581.4534   -1222304.60249   -951888.50448                  20132578.3874
        51.5004         41.0004
  23275607.7974    2013190.60249   1554633.47847                  23275605.2934
        43.7504         29.0004
  23241335.8524     881827.86349    678093.58647                  23241334.4774
        43.7504         27.0004
  21893317.5704   -3399545.78149  -2637306.25947                  21893313.9414
        48.5004         36.2504
  21480458.1334   -2195785.69149  -1705344.39947                  21480453.3954
        51.5004         37.0004
  22027462.1804   -2675118.88749  -2065430.58246                  22027459.1644
        44.5004         25.5004
  22414758.2584   -1606042.71949  -1250581.68646                  22414754.6994
        41.0004         25.5004
  22795709.2344    1843515.03549   1423880.68347                  22795707.0234
        47.0004         30.0004
 04  6 29 14 14  0.0000000  0  9G16G 6G10G17G18G21G26G29G30
  24465922.0784   -1746768.38349  -1351637.97846                  24465917.2894
        37.0004         18.2504
  20130214.7344   -1234742.11349   -961580.06948                  20130211.8364
        51.5004         40.7504
  23279887.3054    2035676.95749   1572155.32347                  23279884.2934
        43.5004         29.2504
  23243092.0634     891055.77049    685284.14346                  23243090.5204
        43.2504         25.5004
  21886203.7664   -3436929.88749  -2666436.72847                  21886200.2034
        49.0004         36.0004
  21475730.9614   -2220625.45349  -1724700.07347                  21475726.1994
        50.7504         37.5004
  22022026.3914   -2703685.12549  -2087689.98346                  22022023.6484
        44.0004         25.2504
  22411536.7424   -1622974.15249  -1263775.03346                  22411532.6254
        41.0004         25.5004
  22799628.6804    1864113.54749   1439931.47247                  22799626.6804
        46.5004         31.0004
 04  6 29 14 14 10.0000000  0  9G16G 6G10G17G18G21G26G29G30
  24459637.3054   -1779794.26249  -1377372.43246                  24459632.5514
        36.7504         18.2504
  20127854.2194   -1247146.83649   -971246.08648                  20127851.2894
        51.0004         41.2504
  23284165.9534    2058161.92649   1589676.05247                  23284163.2464
        44.2504         28.0004
  23244845.5704     900272.42249    692465.91047                  23244844.2194
        43.0004         26.7504
  21879093.7424   -3474292.84049  -2695550.71147                  21879090.3484
        49.2504         36.0004
  21471004.1024   -2245466.96549  -1744057.09147                  21470999.1294
        51.5004         37.2504
  22016597.7664   -2732211.95349  -2109918.66747                  22016595.6564
        44.2504         27.0004
  22408321.4774   -1639865.28149  -1276936.92846                  22408318.1914
        39.5004         25.0004
  22803548.3594    1884710.21549   1455980.81847                  22803546.1684
        46.5004         30.7504
 04  6 29 14 14 20.0000000  0  9G16G 6G10G17G18G21G26G29G30
  24453358.6644   -1812788.43049  -1403082.16746                  24453354.3094
        36.2504         18.2504
  20125500.5634   -1259515.94149   -980884.35748                  20125497.6294
        51.2504         41.0004
  23288444.8364    2080648.09049   1607197.71547                  23288442.7424
        43.7504         28.7504
  23246597.5784     909480.53549    699641.03447                  23246596.2234
        43.2504         26.2504
  21871988.4774   -3511631.78549  -2724645.98147                  21871984.8594
        49.5004         36.5004
  21466276.9064   -2270307.43449  -1763413.30247                  21466272.1334
        51.0004         38.0004
  22011177.3754   -2760696.62549  -2132114.52347                  22011175.3754
        45.0004         26.2504
  22405115.7734   -1656713.12149  -1290065.10746                  22405113.0664
        40.0004         24.0004
  22807467.8204    1905307.74649   1472030.83147                  22807465.9774
        46.0004         30.7504
 04  6 29 14 14 30.0000000  0  9G16G 6G10G17G18G21G26G29G30
  24447085.6884   -1845752.10249  -1428768.16046                  24447081.7774
        37.7504         17.7504
  20123153.4454   -1271850.84449   -990495.97848                  20123150.3634
        51.0004         41.0004
  23292723.6254    2103133.98049   1624719.15847                  23292721.8324
        44.5004         28.5004
  23248348.4304     918678.66449    706808.40046                  23248346.8284
        43.2504         25.2504
  21864887.2034   -3548948.12149  -2753723.64247                  21864883.8324
        49.0004         36.0004
  21461549.0864   -2295148.32849  -1782769.85147                  21461545.0944
        50.7504         38.5004
  22005765.0784   -2789140.34049  -2154278.46647                  22005762.5634
        45.0004         28.5004
  22401917.7584   -1673519.23849  -1303160.76046                  22401914.9694
        40.2504         24.2504
  22811387.3984    1925904.64849   1488080.33647                  22811385.6844
        46.5004         29.7504
 04  6 29 14 14 40.0000000  0  9G16G 6G10G17G18G21G26G29G30
  24440818.8204   -1878684.98849  -1454430.06846                  24440814.9454
        39.0004         18.2504
  20120812.8594   -1284151.12949  -1000080.61448                  20120809.8204
        51.5004         41.0004
  23297002.7814    2125619.72749   1642240.48947                  23297000.3714
        44.5004         29.0004
  23250096.5314     927867.07449    713968.20246                  23250095.3794
        44.2504         25.5004
  21857790.4534   -3586241.61749  -2782783.51147                  21857786.9384
        49.5004         35.5004
  21456822.7424   -2319989.41849  -1802126.54247                  21456818.5474
        50.5004         38.0004
  22000360.3524   -2817542.81649  -2176410.27247                  22000357.2734
        44.5004         28.0004
  22398727.8444   -1690283.17649  -1316223.57446                  22398724.9694
        42.7504         25.5004
  22815306.3364    1946500.99649   1504129.42947                  22815304.9264
        47.0004         29.7504
 04  6 29 14 14 50.0000000  0  9G16G 6G10G17G18G21G26G29G30
  24434557.4064   -1911586.79749  -1480067.89146                  24434554.0004
        39.5004         17.7504
  20118478.5554   -1296416.65249  -1009638.17148                  20118475.6954
        51.5004         41.5004
  23301281.8054    2148105.48049   1659761.82847                  23301278.7894
        43.7504         28.5004
  23251843.9384     937045.95349    721120.56747                  23251841.7384
        44.2504         26.5004
  21850698.0864   -3623511.90249  -2811825.29047                  21850694.3714
        49.5004         36.0004
  21452095.6644   -2344830.46949  -1821483.22147                  21452091.1884
        51.0004         37.0004
  21994963.0634   -2845903.71549  -2198509.66847                  21994960.4344
        44.5004         28.7504
  22395545.4144   -1707004.74649  -1329253.39047                  22395543.2664
        42.7504         26.2504
  22819225.6414    1967096.97349   1520178.23547                  22819223.7504
        46.0004         29.0004
 04  6 29 14 15  0.0000000  0  9G16G 6G10G17G18G21G26G29G30
  24428302.8204   -1944457.60949  -1505681.56146                  24428298.0634
        39.0004         18.2504
  20116151.3674   -1308647.41049  -1019168.63648                  20116148.3914
        51.5004         41.7504
  23305560.9224    2170591.02749   1677283.02347                  23305558.1994
        43.5004         28.0004
  23253588.7034     946215.27749    728265.48247                  23253586.6454
        43.0004         27.0004
  21843610.1254   -3660759.03549  -2840849.02947                  21843606.4844
        50.0004         35.5004
  21447368.4454   -2369671.58649  -1840839.94347                  21447363.9924
        50.5004         37.5004
  21989574.2814   -2874223.09449  -2220576.71147                  21989571.6644
        44.7504         28.5004
  22392371.3284   -1723683.94549  -1342250.14647                  22392368.8714
        42.0004         26.2504
  22823145.4614    1987692.29749   1536226.51347                  22823142.4924
        46.2504         29.5004
 04  6 29 14 15 10.0000000  0  9G16G 6G10G17G18G21G26G29G30
  24422052.4844   -1977297.90249  -1531271.28046                  24422048.7154
        38.7504         19.0004
  20113830.1094   -1320844.03549  -1028672.50748                  20113827.2584
        51.7504         41.5004
  23309839.6024    2193075.66049   1694803.51947                  23309836.3914
        43.0004         27.5004
  23255331.7584     955374.39849    735402.45746                  23255329.0984
        43.7504         25.2504
  21836526.6254   -3697983.60549  -2869855.18447                  21836523.2584
        49.5004         35.2504
  21442641.3674   -2394513.40249  -1860197.20247                  21442636.6094
        50.5004         37.2504
  21984193.6724   -2902501.41049  -2242611.76447                  21984190.2664
        45.0004         28.7504
  22389205.8364   -1740321.41449  -1355214.39946                  22389202.7774
        43.0004         24.5004
  22827064.1724    2008286.14849   1552273.67147                  22827061.2624
        46.2504         27.7504
 04  6 29 14 15 20.0000000  0  9G16G 6G10G17G18G21G26G29G30
  24415809.7664   -2010106.28949  -1556836.29046                  24415805.2384
        36.5004         18.2504
  20111515.8984   -1333005.10949  -1038148.67348                  20111513.2234
        51.5004         41.5004
  23314118.1094    2215560.63749   1712324.25947                  23314115.1374
        43.5004         28.2504
  23257073.3444     964524.60249    742532.45847                  23257070.5904
        44.0004         26.5004
  21829447.7194   -3735184.25449  -2898842.70847                  21829443.7194
        49.0004         35.5004
  21437914.3284   -2419354.55149  -1879553.94647                  21437909.8204
        51.2504         37.5004
  21978819.9454   -2930737.25449  -2264613.72947                  21978817.2624
        44.7504         29.5004
  22386047.4454   -1756915.77049  -1368145.07746                  22386045.0164
        43.0004         25.2504
  22830983.0164    2028879.94949   1568320.78647                  22830980.6844
        45.7504         28.0004
 04  6 29 14 15 30.0000000  0  9G16G 6G10G17G18G21G26G29G30
  24409572.4924   -2042882.43449  -1582376.18746                  24409567.8164
        36.2504         18.5004
  20109208.4844   -1345130.40249  -1047596.96248                  20109205.8444
        51.0004         41.2504
  23318396.8834    2238046.08649   1729845.37847                  23318393.8204
        43.5004         29.0004
  23258812.4454     973666.12149    749655.74547                  23258810.3524
        44.2504         26.7504
  21822373.4844   -3772360.60249  -2927811.28147                  21822369.3054
        49.0004         36.0004
  21433187.3444   -2444194.90249  -1898910.06947                  21433182.7234
        51.0004         37.5004
  21973454.7734   -2958930.19949  -2286582.26447                  21973451.8874
        45.2504         29.0004
  22382898.3444   -1773466.69549  -1381041.91847                  22382895.5554
        44.0004         26.5004
  22834901.8364    2049473.68049   1584367.84647                  22834899.3284
        46.0004         28.5004
 04  6 29 14 15 40.0000000  0  9G16G 6G10G17G18G21G26G29G30
  24403341.8284   -2075627.94948  -1607892.16846                  24403335.9964
        35.7504         17.7504
  20106908.2114   -1357221.53949  -1057018.64348                  20106904.5744
        51.2504         41.5004
  23322675.2194    2260530.21149   1747365.48147                  23322672.7154
        43.0004         28.5004
  23260549.8134     982797.27049    756770.88247                  23260548.4224
        44.2504         26.5004
  21815303.0944   -3809514.28949  -2956762.21047                  21815299.2114
        49.0004         36.0004
  21428459.7424   -2469036.12549  -1918266.86847                  21428455.7194
        50.7504         36.7504
  21968097.8134   -2987081.94149  -2308518.68547                  21968095.0664
        44.2504         28.7504
  22379757.0944   -1789975.88749  -1393906.22947                  22379753.6484
        44.7504         27.7504
  22838820.3204    2070065.52749   1600413.41547                  22838817.4774
        46.5004         29.2504
 04  6 29 14 15 50.0000000  0  9G16G 6G10G17G18G21G26G29G30
  24397116.5704   -2108341.97349  -1633383.62246                  24397110.7464
        37.0004         18.2504
  20104613.8204   -1369277.54749  -1066412.94348                  20104610.7624
        50.7504         41.0004
  23326953.7814    2283013.77049   1764885.11147                  23326951.6414
        43.5004         29.0004
  23262285.6884     991918.96949    763878.69847                  23262283.3284
        43.5004         26.0004
  21808237.5554   -3846644.43449  -2985694.78347                  21808233.4924
        49.5004         36.0004
  21423732.8524   -2493877.25049  -1937623.59147                  21423728.1884
        50.2504         36.7504
  21962748.7034   -3015191.47349  -2330422.21647                  21962746.0864
        44.2504         29.2504
  22376623.2814   -1806442.43049  -1406737.33147                  22376619.9264
        44.7504         27.5004
  22842738.1254    2090656.39149   1616458.26147                  22842736.2194
        45.5004         28.5004
 04  6 29 14 16  0.0000000  0  9G16G 6G10G17G18G21G26G29G30
  24390896.9454   -2141023.62549  -1658849.87546                  24390891.7154
        37.2504         19.0004
  20102326.3524   -1381297.65649  -1075779.26248                  20102322.8954
        51.0004         41.0004
  23331232.0784    2305497.52049   1782404.90247                  23331230.4064
        42.5004         29.0004
  23264020.2424    1001032.06649    770979.81547                  23264017.5044
        44.2504         26.5004
  21801176.6334   -3883750.20749  -3014608.35947                  21801172.5514
        50.2504         36.2504
  21419005.9614   -2518717.48049  -1956979.61547                  21419001.3634
        50.7504         37.0004
  21957407.9924   -3043257.79349  -2352292.06447                  21957405.6024
        44.0004         29.5004
  22373497.8134   -1822865.32449  -1419534.39847                  22373495.4494
        44.5004         26.0004
  22846656.3284    2111246.89549   1632502.81147                  22846653.4064
        45.2504         28.2504
 04  6 29 14 16 10.0000000  0  9G16G 6G10G17G18G21G26G29G30
  24384683.2194   -2173676.33249  -1684293.49446                  24384678.7464
        37.0004         19.2504
  20100045.1954   -1393285.31649  -1085120.29248                  20100041.7664
        51.2504         41.2504
  23335510.2894    2327977.81349   1799921.99947                  23335508.1484
        43.2504         28.2504
  23265752.2194    1010132.94549    778071.39347                  23265750.1414
        44.5004         27.5004
  21794119.8524   -3920835.07449  -3043505.65247                  21794115.7894
        49.7504         36.5004
  21414278.5634   -2543560.35249  -1976337.68647                  21414274.1524
        51.0004         36.7504
  21952074.5004   -3071284.45749  -2374131.01447                  21952072.2074
        44.5004         29.2504
  22370380.6414   -1839248.17249  -1432300.25747                  22370377.6954
        42.7504         26.5004
  22850574.2504    2131833.39149   1648544.22747                  22850571.6524
        46.0004         28.0004
 04  6 29 14 16 20.0000000  0  9G16G 6G10G17G18G21G26G29G30
  24378475.8834   -2206299.15249  -1709713.83046                  24378471.7424
        38.5004         19.2504
  20097770.1884   -1405239.68749  -1094435.40048                  20097766.9024
        51.7504         40.5004
  23339787.6414    2350455.36749   1817436.93247                  23339785.6914
        42.5004         28.0004
  23267481.5784    1019222.50849    785154.13347                  23267479.7074
        45.5004         27.5004
  21787067.1484   -3957898.13749  -3072385.97247                  21787062.9804
        50.0004         36.5004
  21409550.7504   -2568405.01249  -1995697.17447                  21409546.1414
        51.0004         37.0004
  21946748.5704   -3099270.44149  -2395938.29547                  21946746.4494
        44.2504         28.7504
  22367270.3054   -1855590.07849  -1445034.19247                  22367268.0004
        43.5004         26.2504
  22854490.5474    2152416.61349   1664583.07047                  22854488.4924
        46.2504         28.7504
 04  6 29 14 16 30.0000000  0  9G16G 6G10G17G18G21G26G29G30
  24372273.5004   -2238890.23449  -1735109.43646                  24372269.7384
        38.5004         19.7504
  20095502.2584   -1417158.88349  -1103723.09148                  20095499.1644
        51.0004         41.0004
  23344064.7274    2372932.00449   1834951.20347                  23344062.8134
        42.7504         28.5004
  23269209.4844    1028302.66049    792229.58647                  23269207.4024
        44.5004         28.5004
  21780018.3754   -3994937.49249  -3101247.80947                  21780014.6334
        50.5004         35.7504
  21404822.5554   -2593249.68049  -2015056.66347                  21404818.6414
        50.5004         37.5004
  21941431.2734   -3127213.85249  -2417712.38747                  21941429.0554
        43.5004         28.5004
  22364169.0554   -1871889.15249  -1457734.75447                  22364166.6724
        43.5004         27.5004
  22858408.1094    2172998.33649   1680620.77047                  22858404.9384
        46.2504         28.5004
 04  6 29 14 16 40.0000000  0  9G16G 6G10G17G18G21G26G29G30
  24366077.7344   -2271448.85249  -1760479.81346                  24366074.3204
        38.2504         19.2504
  20093240.8754   -1429042.13749  -1112982.76548                  20093237.6644
        51.5004         41.2504
  23348342.1564    2395408.15649   1852465.06647                  23348339.9344
        43.5004         28.0004
  23270935.1254    1037373.80949    799297.98747                  23270933.8874
        43.7504         26.7504
  21772974.6484   -4031952.54349  -3130090.70547                  21772970.6684
        49.7504         36.0004
  21400095.3754   -2618093.96949  -2034415.84947                  21400090.8284
        50.7504         37.0004
  21936121.8364   -3155113.98049  -2439452.76247                  21936119.5984
        44.5004         28.2504
  22361076.0084   -1888144.67649  -1470401.41047                  22361073.5234
        43.0004         26.5004
  22862324.2584    2193578.95749   1696657.60447                  22862320.9494
        46.2504         28.5004
 04  6 29 14 16 50.0000000  0 10G16G 6G10G17G18G21G26G29G30G22
  24359888.9924   -2303974.18049  -1785824.23146                  24359885.4494
        37.2504         18.5004
  20090986.4384   -1440888.69949  -1122213.85548                  20090983.4924
        51.2504         41.5004
  23352618.8524    2417884.53549   1869979.12647                  23352617.2934
        43.5004         28.0004
  23272660.2814    1046436.90249    806360.14147                  23272658.6214
        44.0004         27.2504
  21765935.6334   -4068942.41849  -3158913.96947                  21765931.6334
        49.5004         35.5004
  21395367.6954   -2642936.69149  -2053773.81447                  21395363.3954
        51.0004         37.0004
  21930821.3134   -3182969.79349  -2461158.58547                  21930819.3524
        44.5004         29.2504
  22357990.6334   -1904355.92249  -1483033.54347                  22357988.8484
        43.0004         26.5004
  22866240.1884    2214159.23049   1712694.17547                  22866237.0664
        46.2504         28.7504
  24410997.664     -189627.03118
        31.500
 04  6 29 14 17  0.0000000  0 10G16G 6G10G17G18G21G26G29G30G22
  24353706.0394   -2336466.10549  -1811142.67746                  24353702.5044
        37.7504         19.0004
  20088739.1884   -1452698.54349  -1131416.33848                  20088736.4844
        51.0004         41.5004
  23356895.9774    2440361.03149   1887493.26747                  23356894.1374
        43.7504         29.5004
  23274383.1094    1055491.85249    813415.92847                  23274381.7894
        44.0004         27.2504
  21758901.3914   -4105907.01649  -3187717.55947                  21758897.8794
        49.5004         35.7504
  21390640.7114   -2667777.97349  -2073130.65947                  21390636.2704
        51.5004         37.0004
  21925529.0944   -3210781.36349  -2482829.94047                  21925526.8244
        44.2504         28.5004
  22354914.3834   -1920522.78149  -1495631.09947                  22354911.4104
        43.2504         27.5004
  22870156.2274    2234739.03549   1728730.37647                  22870153.1644
        46.2504         28.0004
  24402241.773     -235645.473 8
        33.000
 04  6 29 14 17 10.0000000  0 10G16G 6G10G17G18G21G26G29G30G22
  24347529.1334   -2368924.73849  -1836435.11746                  24347525.1334
        39.2504         18.5004
  20086499.2974   -1464471.77049  -1140590.28648                  20086496.1024
        51.0004         41.2504
  23361172.8754    2462837.50049   1905007.37147                  23361171.1564
        43.0004         28.2504
  23276105.2344    1064538.53549    820465.26947                  23276102.7664
        43.5004         26.5004
  21751872.1174   -4142846.50049  -3216501.56347                  21751868.2304
        49.7504         36.5004
  21385913.5944   -2692617.94949  -2092486.48847                  21385909.1684
        50.7504         37.0004
  21920245.4534   -3238548.64149  -2504466.81547                  21920242.6374
        45.2504         29.2504
  22351846.2974   -1936645.44949  -1508194.21147                  22351843.5594
        42.7504         26.5004
  22874072.2734    2255318.08249   1744765.97247                  22874069.3714
        45.7504         28.7504
  24393485.078     -281661.859 9
        36.250
 04  6 29 14 17 20.0000000  0 10G16G 6G10G17G18G21G26G29G30G22
  24341359.3594   -2401349.32449  -1861701.01646                  24341354.0234
        40.0004         19.2504
  20084265.6254   -1476207.59049  -1149735.07648                  20084262.7464
        51.0004         41.0004
  23365450.4454    2485314.47749   1922521.87647                  23365448.6884
        43.5004         29.5004
  23277824.8594    1073577.66449    827508.74747                  23277823.3754
        43.5004         27.0004
  21744847.7424   -4179760.10949  -3245265.39547                  21744843.6644
        49.0004         36.0004
  21381187.2424   -2717455.96149  -2111840.78547                  21381182.6844
        50.7504         37.5004
  21914969.8594   -3266270.94149  -2526068.58547                  21914967.1254
        45.0004         29.2504
  22348786.4304   -1952723.05949  -1520722.19747                  22348784.0164
        43.0004         25.7504
  22877988.8284    2275897.00849   1760801.49847                  22877985.3754
        47.2504         28.2504
  24384729.680     -327675.453 9
        37.500
 04  6 29 14 17 30.0000000  0 10G16G 6G10G17G18G21G26G29G30G22
  24335195.4614   -2433739.43049  -1886940.06346                  24335189.7034
        38.2504         19.2504
  20082039.7344   -1487905.71949  -1158850.51348                  20082036.6294
        52.5004         41.5004
  23369727.4614    2507792.27749   1940037.01147                  23369726.2234
        44.0004         29.0004
  23279544.3674    1082609.65249    834546.63147                  23279542.3364
        42.7504         27.0004
  21737828.1644   -4216647.34449  -3274008.70447                  21737824.1764
        48.7504         36.0004
  21376461.1564   -2742291.55149  -2131193.19947                  21376456.4344
        50.5004         38.0004
  21909703.1094   -3293947.61749  -2547634.84747                  21909700.5704
        45.7504         30.2504
  22345736.2974   -1968755.20349  -1533214.78947                  22345734.1294
        43.5004         27.5004
  22881904.9924    2296476.01649   1776837.07047                  22881901.4104
        47.0004         28.0004
  24375974.430     -373685.867 9
        38.500
 04  6 29 14 17 40.0000000  0 10G16G 6G10G17G18G21G26G29G30G22
  24329038.3364   -2466095.21949  -1912152.31446                  24329033.0704
        38.7504         19.7504
  20079820.8364   -1499566.25449  -1167936.65148                  20079817.3914
        51.0004         41.2504
  23374005.9144    2530270.53149   1957552.51347                  23374003.8094
        43.5004         28.7504
  23281260.1414    1091634.23049    841578.73646                  23281259.2894
        41.7504         25.5004
  21730813.7344   -4253508.49249  -3302731.67247                  21730810.4024
        47.5004         36.5004
  21371735.4064   -2767125.10249  -2150544.03047                  21371730.7814
        51.0004         37.7504
  21904445.2034   -3321578.93049  -2569165.74847                  21904442.8674
        46.0004         31.5004
  22342694.1174   -1984742.17649  -1545672.21447                  22342691.5864
        44.2504         26.7504
  22885820.8984    2317054.80549   1792872.47047                  22885818.0474
        47.2504         28.7504
  24367219.516     -419693.273 9
        38.500
 04  6 29 14 17 50.0000000  0 10G16G 6G10G17G18G21G26G29G30G22
  24322887.1484   -2498417.63749  -1937338.64746                  24322882.5704
        40.2504         18.2504
  20077608.5784   -1511190.17649  -1176994.25748                  20077605.7344
        51.2504         41.5004
  23378282.8134    2552748.18849   1975067.55247                  23378281.1844
        43.0004         29.0004
  23282977.0234    1100650.42649    848604.33547                  23282975.0394
        41.5004         26.2504
  21723804.2194   -4290344.43449  -3331434.99547                  21723801.0864
        48.0004         36.7504
  21367009.9924   -2791957.65649  -2169894.07547                  21367005.5634
        51.2504         37.5004
  21899195.5164   -3349165.71549  -2590661.92547                  21899193.5944
        45.2504         30.5004
  22339660.3754   -2000684.79749  -1558094.99447                  22339657.4964
        44.0004         27.2504
  22889736.6174    2337632.28549   1808906.87847                  22889734.0704
        48.2504         29.7504
  24358464.633     -465698.605 9
        38.250
 04  6 29 14 18  0.0000000  0 10G16G 6G10G17G18G21G26G29G30G22
  24316743.5474   -2530705.59049  -1962498.04946                  24316739.1524
        39.5004         20.2504
  20075403.8054   -1522776.43449  -1186022.50448                  20075400.6214
        51.0004         41.5004
  23382560.2344    2575226.08649   1992582.78047                  23382559.0084
        43.5004         28.0004
  23284690.5554    1109659.14849    855624.10747                  23284689.2934
        40.7504         25.7504
  21716799.3914   -4327154.09449  -3360117.83347                  21716796.5904
        47.2504         37.0004
  21362284.9534   -2816788.27749  -2189242.61147                  21362280.8914
        51.0004         37.2504
  21893954.3834   -3376706.96549  -2612122.64647                  21893952.0204
        45.0004         31.0004
  22336635.3834   -2016582.16049  -1570482.55747                  22336632.0904
        45.2504         27.0004
  22893652.3914    2358209.23449   1824940.82747                  22893649.6804
        48.0004         30.0004
  24349711.250     -511700.848 9
        37.750
 04  6 29 14 18 10.0000000  0 10G16G 6G10G17G18G21G26G29G30G22
  24310605.8364   -2562959.39149  -1987630.88646                  24310601.6724
        39.0004         20.2504
  20073206.3134   -1534325.41049  -1195021.71548                  20073203.0594
        51.0004         40.7504
  23386837.7344    2597703.79749   2010097.86947                  23386836.8594
        43.2504         28.5004
  23286403.7974    1118660.02749    862637.74647                  23286402.2814
        41.0004         27.2504
  21709799.7734   -4363937.96549  -3388780.58747                  21709796.4414
        47.7504         36.7504
  21357559.9144   -2841617.19149  -2208589.80547                  21357555.6914
        50.5004         36.7504
  21888722.1414   -3404202.98449  -2633548.10147                  21888719.5664
        46.2504         29.7504
  22333618.7424   -2032434.59449  -1582835.12647                  22333615.3954
        44.0004         26.7504
  22897567.7664    2378785.23449   1840974.06147                  22897565.4844
        48.0004         29.7504
  24340957.086     -557700.309 9
        37.000
 04  6 29 14 18 20.0000000  0 10G16G 6G10G17G18G21G26G29G30G22
  24304474.5634   -2595178.10949  -2012736.37546                  24304471.1844
        38.2504         21.5004
  20071015.7114   -1545836.24249  -1203991.19548                  20071012.2424
        50.7504         41.5004
  23391115.1174    2620182.05549   2027613.37747                  23391113.9024
        43.5004         28.0004
  23288115.0864    1127653.91049    869645.93547                  23288113.5204
        41.7504         26.5004
  21702805.1564   -4400695.03549  -3417422.45347                  21702801.8164
        48.5004         36.7504
  21352835.5314   -2866443.48449  -2227934.96747                  21352831.4694
        50.0004         37.0004
  21883498.8594   -3431652.71549  -2654937.51247                  21883495.9734
        46.0004         29.5004
  22330610.3674   -2048241.14149  -1595151.89947                  22330607.8524
        43.5004         27.0004
  22901482.7344    2399361.01649   1857007.11347                  22901480.4024
        47.5004         30.0004
  24332204.523     -603695.879 8
        35.750
 04  6 29 14 18 30.0000000  0 10G16G 6G10G17G18G21G26G29G30G22
  24298350.6254   -2627362.25049  -2037814.93446                  24298347.3754
        38.2504         21.5004
  20068832.4694   -1557309.37949  -1212931.30548                  20068829.3014
        51.2504         41.2504
  23395392.1334    2642660.35949   2045128.92047                  23395391.6294
        43.0004         28.7504
  23289825.9844    1136640.46949    876648.42247                  23289824.0634
        42.7504         26.5004
  21695815.5314   -4437425.69549  -3446043.74347                  21695812.2814
        48.0004         36.7504
  21348111.7424   -2891267.78549  -2247278.58247                  21348107.4804
        50.0004         37.5004
  21878284.0704   -3459056.51649  -2676291.11847                  21878281.2624
        45.0004         28.7504
  22327610.5554   -2064002.31649  -1607433.35947                  22327608.3484
        42.2504         27.2504
  22905398.8834    2419935.97349   1873039.52247                  22905396.0234
        48.0004         30.5004
  24323452.672     -649688.207 9
        36.500
 04  6 29 14 18 40.0000000  0 10G16G 6G10G17G18G21G26G29G30G22
  24292232.4144   -2659510.86749  -2062865.79846                  24292229.4064
        39.5004         21.0004
  20066656.2814   -1568743.84449  -1221841.27948                  20066653.1804
        50.7504         41.0004
  23399670.0004    2665139.38749   2062645.02147                  23399668.7734
        43.2504         28.0004
  23291534.9694    1145620.35949    883645.72747                  23291532.3404
        39.5004         26.0004
  21688831.1724   -4474129.12949  -3474643.82547                  21688827.4264
        48.0004         36.5004
  21343388.9384   -2916089.34849  -2266620.08047                  21343383.6764
        50.5004         37.5004
  21873078.3054   -3486413.49249  -2697608.21147                  21873075.6724
        45.7504         29.5004
  22324620.9064   -2079717.15649  -1619678.68747                  22324617.8444
        44.0004         29.2504
  22909313.8984    2440510.80549   1889071.86647                  22909311.7194
        47.0004         30.7504
  24314702.023     -695676.148 9
        37.000
 04  6 29 14 18 50.0000000  0 10G16G 6G10G17G18G21G26G29G30G22
  24286122.5164   -2691623.57049  -2087888.66446                  24286117.6564
        41.2504         21.5004
  20064488.1644   -1580139.48049  -1230720.99548                  20064485.2234
        51.2504         41.5004
  23403947.7584    2687619.25049   2080161.79047                  23403946.1334
        42.7504         28.5004
  23293242.1564    1154593.89849    890638.12746                  23293239.4804
        42.7504         25.2504
  21681851.8914   -4510804.98849  -3503222.40247                  21681848.5084
        48.2504         37.2504
  21338665.9694   -2940907.78549  -2285959.12447                  21338660.9734
        50.0004         37.5004
  21867881.6334   -3513723.36749  -2718888.66247                  21867878.1094
        44.7504         28.2504
  22321639.0234   -2095385.31649  -1631887.63647                  22321636.7344
        44.7504         29.2504
  22913229.1644    2461085.76249   1905104.27847                  22913227.0664
        47.0004         30.7504
  24305950.852     -741659.516 8
        35.750
 04  6 29 14 19  0.0000000  0 10G16G 6G10G17G18G21G26G29G30G22
  24280018.0474   -2723700.29749  -2112883.54546                  24280013.7704
        41.2504         21.5004
  20062326.9694   -1591496.02349  -1239570.26148                  20062323.8984
        50.5004         41.5004
  23408225.5864    2710099.99649   2097679.23647                  23408224.3094
        43.0004         27.0004
  23294948.9694    1163561.18849    897625.60547                  23294945.5274
        39.7504         25.7504
  21674878.1094   -4547453.17649  -3531779.44547                  21674874.3794
        48.5004         37.0004
  21333943.6414   -2965722.98449  -2305295.65047                  21333939.2934
        50.7504         37.5004
  21862693.5394   -3540985.87149  -2740132.16447                  21862690.2154
        45.7504         28.5004
  22318666.7274   -2111006.83649  -1644060.27247                  22318663.8954
        45.5004         29.0004
  22917144.4614    2481660.73049   1921136.67947                  22917142.9414
        46.7504         30.7504
  24297202.375     -787638.191 8
        35.500
 04  6 29 14 19 10.0000000  0 10G16G 6G10G17G18G21G26G29G30G22
  24273920.7814   -2755742.34849  -2137851.42546                  24273915.9024
        40.7504         21.5004
  20060173.0864   -1602814.87549  -1248390.13548                  20060170.0314
        51.5004         41.5004
  23412503.3284    2732580.10549   2115196.19647                  23412502.3094
        43.2504         28.0004
  23296653.5004    1172520.79349    904607.11846                  23296650.8284
        41.0004         25.2504
  21667909.1644   -4584075.05949  -3560315.96147                  21667905.9024
        48.7504         36.5004
  21329221.8054   -2990536.32849  -2324630.71647                  21329216.9534
        50.5004         37.2504
  21857514.0004   -3568202.38749  -2761339.80147                  21857511.0824
        45.0004         27.2504
  22315702.2664   -2126582.97749  -1656197.52447                  22315699.9104
        45.2504         29.5004
  22921059.5164    2502234.15249   1937167.90047                  22921057.7854
        45.0004         30.0004
  24288452.188     -833613.520 8
        34.500
 04  6 29 14 19 20.0000000  0 10G16G 6G10G17G18G21G26G29G30G22
  24267830.2274   -2787747.00849  -2162790.05746                  24267825.1884
        41.0004         21.5004
  20058026.5704   -1614093.34849  -1257178.55148                  20058024.0824
        51.2504         40.7504
  23416781.8914    2755062.14149   2132714.62947                  23416780.6134
        44.2504         28.0004
  23298357.3594    1181475.43049    911584.74647                  23298355.3754
        40.7504         26.0004
  21660945.8204   -4620667.87549  -3588829.82747                  21660942.3164
        48.2504         36.7504
  21324500.8284   -3015345.17249  -2343962.27547                  21324496.5984
        49.7504         37.5004
  21852344.8204   -3595370.04749  -2782509.41447                  21852341.4534
        44.5004         27.2504
  22312747.6954   -2142111.12549  -1668297.37647                  22312744.9614
        43.0004         30.5004
  22924974.7814    2522808.71549   1953200.00347                  22924973.1764
        44.7504         29.2504
  24279704.094     -879582.699 8
        34.750
 04  6 29 14 19 30.0000000  0 10G16G 6G10G17G18G21G26G29G30G22
  24261746.1174   -2819715.19549  -2187700.31646                  24261741.7114
        40.5004         21.5004
  20055888.1254   -1625332.41849  -1265936.28448                  20055885.2704
        51.0004         41.0004
  23421060.4224    2777545.03549   2150233.74147                  23421059.1644
        44.5004         29.0004
  23300060.1724    1190424.12949    918557.72347                  23300058.1134
        40.7504         26.2504
  21653987.8134   -4657232.56249  -3617321.80247                  21653984.5124
        49.0004         36.7504
  21319780.3754   -3040150.48049  -2363291.08847                  21319776.3054
        50.2504         37.0004
  21847183.7344   -3622489.77349  -2803641.65547                  21847181.4654
        44.7504         27.2504
  22309801.7814   -2157592.12149  -1680360.48947                  22309799.0634
        44.7504         29.7504
  22928890.0704    2543383.24249   1969232.08747                  22928888.6844
        45.7504         30.5004
  24270956.977     -925546.559 8
        35.250
 04  6 29 14 19 39.9990000  0 10G16G 6G10G17G18G21G26G29G30G22
  24255670.6124   -2851643.99649  -2212579.88946                  24255665.0894
        39.5004         21.0004
  20053757.0894   -1636531.31249  -1274662.69948                  20053754.3124
        50.5004         41.0004
  23425338.3864    2800026.19149   2167751.50647                  23425337.2804
        43.5004         28.2504
  23301761.7534    1199365.57049    925525.09346                  23301760.0544
        41.5004         25.0004
  21647035.6834   -4693765.79749  -3645789.24147                  21647032.1084
        48.5004         37.5004
  21315061.1284   -3064950.18449  -2382615.53747                  21315057.4724
        49.7504         37.2504
  21842032.6284   -3649559.07449  -2824734.61147                  21842030.2334
        43.0004         26.7504
  22306865.4644   -2173024.74249  -1692385.89447                  22306862.6514
        45.0004         30.7504
  22932804.7844    2563955.19149   1985262.15047                  22932802.9374
        44.7504         30.0004
  24262213.737     -971500.914 8
        35.500
 04  6 29 14 19 49.9990000  0 10G16G 6G10G17G18G21G26G29G30G22
  24249601.4254   -2883538.75049  -2237433.00146                  24249596.6054
        40.5004         22.0004
  20051633.5894   -1647691.27349  -1283358.79448                  20051630.5854
        50.2504         40.7504
  23429616.5894    2822510.86349   2185271.99747                  23429615.6444
        43.7504         29.0004
  23303462.3864    1208302.55949    932488.95047                  23303460.2964
        41.7504         26.5004
  21640088.5654   -4730273.92649  -3674237.14547                  21640084.3944
        49.5004         37.0004
  21310342.3784   -3089748.39549  -2401938.82447                  21310338.2264
        50.5004         37.5004
  21836890.1054   -3676582.49649  -2845791.80447                  21836887.3904
        44.2504         26.5004
  22303937.4174   -2188411.12149  -1704375.29647                  22303934.5424
        44.7504         30.0004
  22936720.0264    2584529.55149   2001294.12547                  22936717.9954
        45.0004         30.0004
  24253468.323    -1017454.023 8
        35.000
 04  6 29 14 19 59.9990000  0 10G16G 6G10G17G18G21G26G29G30G22
  24243539.5344   -2915396.35949  -2262257.08346                  24243534.8044
        41.5004         23.0004
  20049517.1284   -1658811.12949  -1292023.62148                  20049514.4484
        50.5004         41.0004
  23433895.5814    2844996.68849   2202793.41047                  23433894.7694
        44.0004         28.5004
  23305161.9334    1217234.07449    939448.53747                  23305160.2804
        40.7504         26.0004
  21633146.4954   -4766753.25049  -3702662.58847                  21633142.6674
        49.2504         37.7504
  21305624.6124   -3114542.62549  -2421259.00647                  21305619.4054
        49.5004         38.0004
  21831757.1364   -3703557.15649  -2866811.02846                  21831754.5224
        43.5004         25.5004
  22301018.5654   -2203749.79349  -1716327.52047                  22301015.6514
        43.5004         30.0004
  22940634.9954    2605104.04349   2017326.15047                  22940633.3554
        44.2504         30.0004
  24244725.050    -1063401.187 8
        33.500
 04  6 29 14 20  9.9990000  0 10G16G 6G10G17G18G21G26G29G30G22
  24237484.5264   -2947216.48049  -2287052.01046                  24237480.9484
        40.5004         22.5004
  20047408.7064   -1669890.68749  -1300657.04648                  20047406.1054
        51.2504         41.0004
  23438175.1204    2867483.71149   2220315.75447                  23438173.7224
        44.2504         28.5004
  23306860.7924    1226160.27049    946403.98947                  23306858.9914
        42.0004         26.2504
  21626210.4874   -4803203.54749  -3731065.40947                  21626206.4604
        50.2504         36.7504
  21300907.0424   -3139332.68049  -2440575.93547                  21300901.9214
        50.0004         37.2504
  21826633.0814   -3730482.78949  -2887792.03246                  21826630.5224
        40.2504         25.5004
  22298108.7534   -2219040.51249  -1728242.37047                  22298105.8124
        42.5004         29.5004
  22944550.1904    2625678.73449   2033358.38447                  22944548.5584
        45.0004         29.0004
  24235981.870    -1109342.102 8
        34.500
 04  6 29 14 20 19.9990000  0 10G16G 6G10G17G18G21G26G29G30G22
  24231436.1364   -2979000.59049  -2311818.86346                  24231432.3084
        41.0004         22.7504
  20045308.1674   -1680931.49249  -1309260.26748                  20045304.9294
        50.7504         41.5004
  23442454.0504    2889970.44949   2237837.84147                  23442452.8004
        44.7504         28.7504
  23308557.9174    1235079.72349    953354.22247                  23308556.3394
        41.2504         26.2504
  21619279.6444   -4839626.31649  -3759446.79647                  21619275.4174
        49.5004         36.2504
  21296189.8784   -3164120.07849  -2459890.78947                  21296185.0814
        50.7504         37.2504
  21821518.7144   -3757360.80549  -2908735.89346                  21821515.7884
        41.2504         25.5004
  22295207.4564   -2234284.63349  -1740120.87847                  22295204.8744
        42.0004         28.7504
  22948464.2374    2646252.04749   2049389.54947                  22948463.5774
        44.0004         29.5004
  24227241.347    -1155278.328 8
        34.000
 04  6 29 14 20 29.9990000  0 10G16G 6G10G17G18G21G26G29G30G22
  24225394.3944   -3010748.55549  -2336557.50846                  24225390.7724
        42.5004         22.5004
  20043214.5894   -1691933.31649  -1317833.12948                  20043211.2764
        50.7504         41.0004
  23446733.5814    2912456.84449   2255359.72547                  23446731.7804
        45.0004         28.2504
  23310254.2064    1243992.50049    960299.21147                  23310252.3904
        39.5004         25.7504
  21612353.4874   -4876021.40649  -3787806.59247                  21612349.4404
        49.7504         36.0004
  21291473.5894   -3188904.67649  -2479203.46547                  21291469.0814
        50.0004         37.5004
  21816412.7374   -3784191.12949  -2929642.67447                  21816410.7144
        42.5004         26.5004
  22292315.4014   -2249482.18049  -1751963.12247                  22292312.9914
        41.2504         28.0004
  22952379.9644    2666824.04749   2065419.65147                  22952377.8554
        44.2504         28.2504
  24218499.597    -1201209.770 8
        35.000
 04  6 29 14 20 39.9990000  0 10G16G 6G10G17G18G21G26G29G30G22
  24219360.3704   -3042457.52349  -2361265.77046                  24219356.8744
        42.7504         23.5004
  20041128.9484   -1702893.48849  -1326373.52848                  20041125.5814
        51.5004         41.2504
  23451012.8234    2934945.41049   2272883.24147                  23451011.3974
        44.5004         28.5004
  23311949.0734    1252901.30549    967241.11747                  23311947.5074
        41.5004         26.5004
  21605433.5584   -4912386.01649  -3816142.64647                  21605429.6944
        50.0004         36.7504
  21286757.9564   -3213683.79349  -2498511.86247                  21286754.0624
        50.0004         37.5004
  21811317.0974   -3810970.72749  -2950509.87146                  21811314.4994
        41.2504         25.5004
  22289432.7924   -2264630.30949  -1763766.87447                  22289430.1204
        42.5004         28.2504
  22956294.7454    2687397.23849   2081450.69247                  22956292.9994
        44.5004         28.2504
  24209761.925    -1247133.46118
        35.500
 04  6 29 14 20 49.9990000  0 10G16G 6G10G17G18G21G26G29G30G22
  24213333.4484   -3074128.93449  -2385944.81246                  24213329.7494
        42.0004         22.7504
  20039050.9484   -1713813.43749  -1334882.57048                  20039048.1874
        50.7504         41.7504
  23455291.9484    2957434.68449   2290407.35147                  23455291.0194
        43.7504         28.0004
  23313643.3704    1261804.65249    974178.79747                  23313642.2924
        38.5004         26.0004
  21598518.8234   -4948721.64849  -3844456.11447                  21598515.2184
        49.2504         36.5004
  21282043.8314   -3238458.93749  -2517817.16647                  21282039.2494
        50.2504         37.5004
  21806230.2694   -3837701.13349  -2971338.73147                  21806228.0034
        40.5004         26.0004
  22286559.0114   -2279730.53149  -1775533.25347                  22286556.6944
        42.0004         29.2504
  22960209.4404    2707970.02749   2097481.44347                  22960208.0584
        45.0004         28.2504
  24201023.667    -1293050.855 9
        37.000
 04  6 29 14 20 59.9990000  0 10G16G 6G10G17G18G21G26G29G30G22
  24207313.8944   -3105761.32449  -2410593.45446                  24207310.1164
        41.7504         22.7504
  20036980.7924   -1724691.66449  -1343359.12148                  20036977.7724
        51.5004         42.0004
  23459571.9484    2979925.91449   2307932.97447                  23459570.9994
        44.0004         28.0004
  23315336.6514    1270704.00449    981113.34946                  23315335.6714
        39.2504         23.0004
  21591610.1444   -4985026.77749  -3872745.82947                  21591606.6834
        49.0004         36.0004
  21277329.9254   -3263228.62149  -2537118.23447                  21277325.9404
        50.0004         38.0004
  21801153.7454   -3864380.76249  -2992128.06546                  21801151.0504
        42.0004         24.5004
  22283695.5424   -2294781.37149  -1787261.19047                  22283692.4764
        41.5004         29.5004
  22964124.7534    2728543.73049   2113512.88547                  22964122.7024
        44.5004         28.5004
  24192287.362    -1338960.535 9
        36.750
 04  6 29 14 21  9.9990000  0 10G16G 6G10G17G18G21G26G29G30G22
  24201301.6364   -3137355.25449  -2435212.12446                  24201297.0774
        40.7504         22.7504
  20034918.6514   -1735528.75849  -1351803.61648                  20034915.8314
        51.0004         42.0004
  23463852.7764    3002418.44949   2325459.58147                  23463850.8394
        44.5004         28.2504
  23317029.0504    1279598.76649    988044.27446                  23317028.5624
        38.0004         22.5004
  21584707.4014   -5021301.97349  -3901012.19847                  21584703.3154
        49.2504         37.0004
  21272617.6514   -3287993.51649  -2556415.55147                  21272613.6084
        50.0004         38.0004
  21796085.8004   -3891010.16449  -3012878.27046                  21796083.3554
        39.0004         24.7504
  22280840.5424   -2309783.37949  -1798951.06247                  22280837.7374
        43.0004         29.2504
  22968039.7534    2749117.66449   2129544.51547                  22968037.9524
        44.5004         27.7504
  24183552.4644   -1384862.95349  -1043222.99256                  24183550.7964
        37.5004         16.2504
 04  6 29 14 21 19.9990000  0 10G16G 6G10G17G18G21G26G29G30G22
  24195297.0894   -3168912.27349  -2459802.01046                  24195292.0344
        42.0004         22.0004
  20032863.5344   -1746326.32049  -1360217.30448                  20032860.7024
        51.2504         42.0004
  23468132.4954    3024910.57449   2342985.91847                  23468130.9874
        43.0004         27.0004
  23318720.8864    1288487.27049    994970.38346                  23318719.2884
        38.2504         23.5004
  21577810.0194   -5057548.79349  -3929256.46447                  21577805.9254
        49.5004         37.0004
  21267905.5504   -3312755.27049  -2575710.43147                  21267900.9054
        50.0004         37.5004
  21791027.3084   -3917590.90649  -3033590.51746                  21791024.6874
        40.5004         25.5004
  22277994.5194   -2324738.03149  -1810604.05347                  22277991.5734
        43.0004         28.7504
  22971954.7144    2769690.04349   2145574.94047                  22971952.1084
        45.5004         28.0004
  24174817.5814   -1430759.73849  -1078986.69946                  24174815.9994
        36.5004         15.5004
 04  6 29 14 21 29.9990000  0 10G16G 6G10G17G18G21G26G29G30G22
  24189298.7614   -3200431.73449  -2484362.60846                  24189294.3234
        41.2504         22.7504
  20030816.7374   -1757083.79749  -1368599.75448                  20030813.8784
        51.7504         41.7504
  23472412.1124    3047402.82049   2360512.29447                  23472410.9334
        43.2504         26.7504
  23320410.4954    1297370.12149   1001892.06746                  23320409.0694
        39.5004         22.7504
  21570917.9334   -5093766.68049  -3957478.19647                  21570914.0894
        50.0004         37.0004
  21263194.3624   -3337513.23049  -2595002.34947                  21263189.6944
        50.2504         37.7504
  21785978.9484   -3944122.34049  -3054264.39946                  21785976.2414
        38.7504         24.5004
  22275157.6364   -2339644.94949  -1822219.81047                  22275155.0304
        43.5004         28.7504
  22975869.2534    2790261.34049   2161604.49947                  22975867.3784
        45.7504         28.5004
  24166085.8154   -1476650.19949  -1114745.52046                  24166082.7454
        36.5004         16.2504
 04  6 29 14 21 39.9990000  0 10G16G 6G10G17G18G21G26G29G30G22
  24183307.9404   -3231913.47749  -2508893.80546                  24183303.8904
        42.0004         23.0004
  20028777.3554   -1767800.91849  -1376950.77248                  20028774.3084
        51.2504         41.7504
  23476692.1754    3069895.16049   2378038.79847                  23476691.0464
        43.0004         27.5004
  23322099.8864    1306247.33249   1008809.35546                  23322098.6054
        39.2504         22.7504
  21564031.3624   -5129955.59849  -3985677.35047                  21564027.2574
        49.5004         37.0004
  21258483.8624   -3362267.28549  -2614291.21547                  21258479.3084
        50.0004         38.0004
  21780939.9174   -3970604.07449  -3074899.54246                  21780936.7064
        40.0004         24.7504
  22272330.5194   -2354503.71949  -1833798.08947                  22272327.3044
        45.0004         28.7504
  22979783.5194    2810831.63349   2177633.29347                  22979781.5224
        45.7504         28.7504
  24157354.5114   -1522534.21949  -1150499.25446                  24157350.3904
        38.5004         16.7504
 04  6 29 14 21 49.9990000  0 10G16G 6G10G17G18G21G26G29G30G22
  24177324.9954   -3263356.64849  -2533395.04346                  24177320.8824
        41.2504         22.7504
  20026745.6204   -1778476.88349  -1385269.71148                  20026742.7374
        51.2504         41.7504
  23480972.5114    3092388.34449   2395565.91746                  23480971.7064
        42.0004         25.5004
  23323788.7064    1315119.82049   1015722.99246                  23323786.9174
        40.5004         22.5004
  21557150.7064   -5166114.53949  -4013853.13347                  21557146.8864
        50.5004         37.2504
  21253774.2224   -3387016.72349  -2633576.49947                  21253769.3904
        50.0004         38.0004
  21775910.3944   -3997035.50449  -3095495.43146                  21775907.2614
        40.5004         22.7504
  22269512.4404   -2369313.69149  -1845338.34347                  22269508.9334
        45.5004         29.5004
  22983697.9254    2831401.52349   2193661.74747                  22983695.6834
        46.2504         28.7504
  24148625.0734   -1568410.81249  -1186247.21546                  24148619.9054
        38.7504         18.2504
 04  6 29 14 21 59.9990000  0 10G16G 6G10G17G18G21G26G29G30G22
  24171348.4254   -3294761.87949  -2557866.62346                  24171344.8124
        42.0004         23.2504
  20024721.8004   -1789112.44549  -1393557.16148                  20024718.5074
        51.0004         41.5004
  23485252.3154    3114881.58249   2413093.07247                  23485251.7924
        42.5004         26.0004
  23325476.3944    1323986.85949   1022632.32346                  23325474.5114
        41.2504         23.0004
  21550275.5264   -5202244.14549  -4042006.07247                  21550272.0194
        50.0004         37.0004
  21249064.9334   -3411762.21549  -2652858.69447                  21249060.7654
        50.5004         38.0004
  21770890.5344   -4023417.03149  -3116052.48346                  21770887.1324
        39.5004         25.0004
  22266703.0114   -2384075.48049  -1856841.06347                  22266699.7144
        46.2504         29.0004
  22987612.1054    2851970.19149   2209689.29747                  22987609.9684
        47.0004         29.5004
  24139895.9724   -1614280.74249  -1221990.06646                  24139891.1014
        37.0004         17.2504
 04  6 29 14 22  9.9990000  0 10G16G 6G10G17G18G21G26G29G30G22
  24165379.1364   -3326129.03149  -2582308.53746                  24165375.7804
        42.0004         25.0004
  20022706.0424   -1799707.43749  -1401813.00148                  20022702.9374
        50.5004         41.5004
  23489533.4484    3137374.82049   2430620.24046                  23489532.3904
        43.0004         25.2504
  23327162.5264    1332848.56349   1029537.54946                  23327160.7304
        41.7504         25.5004
  21543405.6674   -5238344.30949  -4070136.05547                  21543402.0194
        49.7504         37.5004
  21244356.9954   -3436503.62949  -2672137.72747                  21244352.8944
        50.0004         37.5004
  21765880.0424   -4049748.45349  -3136570.51846                  21765876.1984
        39.5004         23.5004
  22263903.5264   -2398789.03549  -1868306.18247                  22263899.7614
        45.7504         29.7504
  22991526.1204    2872537.69149   2225715.89547                  22991523.8974
        47.0004         28.0004
  24131168.3154   -1660143.80549  -1257727.54746                  24131163.9404
        39.5004         16.7504
 04  6 29 14 22 19.9990000  0 10G16G 6G10G17G18G21G26G29G30G22
  24159417.8084   -3357457.95749  -2606720.70846                  24159414.0624
        41.2504         22.7504
  20020697.3474   -1810261.69549  -1410037.10848                  20020694.2694
        51.2504         41.2504
  23493813.5734    3159867.96949   2448147.36147                  23493812.8664
        42.2504         25.7504
  23328848.1594    1341704.98049   1036438.63746                  23328846.3944
        41.0004         25.0004
  21536541.6124   -5274414.98849  -4098243.08347                  21536537.9174
        50.5004         37.0004
  21239649.6514   -3461240.90249  -2691413.53047                  21239645.5654
        50.5004         38.0004
  21760878.3704   -4076029.78149  -3157049.45646                  21760875.6634
        38.7504         24.2504
  22261112.9334   -2413454.17249  -1879733.56447                  22261109.8944
        45.7504         30.0004
  22995439.7614    2893103.89549   2241741.50447                  22995437.1984
        46.2504         28.2504
  24122442.0344   -1705999.91849  -1293459.58646                  24122437.3124
        36.0004         16.2504
 04  6 29 14 22 29.9990000  0 10G16G 6G10G17G18G21G26G29G30G22
  24153463.6834   -3388748.26249  -2631102.76246                  24153459.7414
        40.7504         24.0004
  20018696.6754   -1820775.01649  -1418229.30848                  20018693.9404
        51.0004         41.5004
  23498093.7144    3182361.37549   2465674.70547                  23498092.9564
        42.2504         26.2504
  23330532.5504    1350556.34449   1043335.78447                  23330530.3744
        43.0004         26.7504
  21529683.3784   -5310455.78149  -4126326.80647                  21529679.6324
        50.5004         37.5004
  21234943.1054   -3485973.75849  -2710685.88947                  21234938.9014
        50.7504         38.0004
  21755886.5114   -4102260.48449  -3177488.97547                  21755884.1834
        39.0004         26.0004
  22258331.1204   -2428070.52049  -1891122.92847                  22258328.9564
        45.0004         31.0004
  22999353.2534    2913668.99249   2257766.23047                  22999351.0384
        46.5004         28.2504
  24113717.4174   -1751848.64849  -1329185.88346                  24113712.9374
        36.5004         16.2504
 04  6 29 14 22 39.9990000  0 10G16G 6G10G17G18G21G26G29G30G22
  24147516.5344   -3420000.46549  -2655455.15446                  24147512.2414
        41.5004         23.7504
  20016703.6594   -1831247.86749  -1426389.97448                  20016700.7304
        51.5004         41.0004
  23502374.1674    3204854.27349   2483201.60146                  23502373.3154
        42.5004         25.5004
  23332215.8554    1359402.19149   1050228.64146                  23332214.3314
        43.0004         24.0004
  21522830.6594   -5346467.10949  -4154387.58447                  21522826.6514
        50.0004         37.5004
  21230237.5344   -3510702.78149  -2729955.25547                  21230233.0584
        50.2504         38.2504
  21750904.7454   -4128441.08649  -3197889.43046                  21750901.4804
        39.0004         22.5004
  22255559.5974   -2442638.68049  -1902474.74947                  22255556.0194
        45.7504         31.7504
  23003266.6124    2934232.45749   2273789.71947                  23003263.7304
        46.5004         28.0004
  24104994.7144   -1797690.54349  -1364906.87146                  24104989.0654
        39.0004         16.7504
 04  6 29 14 22 49.9990000  0 10G16G 6G10G17G18G21G26G29G30G22
  24141575.9404   -3451214.86349  -2679778.04646                  24141572.2964
        42.0004         22.7504
  20014718.5264   -1841680.49649  -1434519.29848                  20014715.2304
        51.5004         41.0004
  23506654.6364    3227346.34449   2500727.89247                  23506653.0734
        42.2504         27.0004
  23333897.9804    1368242.18449   1057116.94046                  23333896.1284
        43.0004         23.0004
  21515983.6674   -5382449.32849  -4182425.66747                  21515979.3154
        50.0004         37.2504
  21225532.3624   -3535428.32049  -2749221.90447                  21225528.1444
        50.2504         38.2504
  21745931.9174   -4154571.79749  -3218251.01746                  21745929.0894
        39.5004         22.7504
  22252796.2614   -2457158.91449  -1913789.22647                  22252793.5264
        47.0004         31.7504
  23007179.2534    2954793.73449   2289811.48247                  23007176.0814
        46.5004         27.7504
  24096272.5814   -1843525.79349  -1400622.64846                  24096267.1474
        40.0004         16.7504
 04  6 29 14 22 59.9990000  0 10G16G 6G10G17G18G21G26G29G30G22
  24135643.6444   -3482391.30949  -2704071.38446                  24135639.4214
        41.2504         22.7504
  20012741.1904   -1852072.76649  -1442617.17148                  20012738.1204
        51.5004         41.2504
  23510934.4564    3249837.46549   2518253.43547                  23510932.9604
        42.0004         26.5004
  23335579.1364    1377076.24649   1064000.63346                  23335576.3824
        42.2504         22.7504
  21509142.2224   -5418402.39549  -4210441.04647                  21509137.9054
        50.7504         37.0004
  21220827.9174   -3560150.32049  -2768485.81047                  21220823.8274
        50.5004         37.7504
  21740969.1904   -4180652.47749  -3238573.62846                  21740965.8234
        40.5004         22.0004
  22250042.5584   -2471631.14849  -1925066.30347                  22250039.5074
        45.7504         31.5004
  23011091.7924    2975352.77349   2305831.50047                  23011088.0264
        47.2504         28.5004
  24087551.8234   -1889354.29349  -1436333.21646                  24087545.7374
        38.0004         18.5004
 04  6 29 14 23  9.9990000  0 10G16G 6G10G17G18G21G26G29G30G22
  24129719.0894   -3513528.26649  -2728334.01246                  24129714.2924
        42.2504         22.2504
  20010771.6204   -1862423.33249  -1450682.54748                  20010768.2844
        51.5004         41.2504
  23515214.0504    3272329.05549   2535779.30646                  23515212.8864
        42.5004         24.5004
  23337259.5034    1385906.09849   1070880.99646                  23337256.6944
        43.2504         22.7504
  21502306.3474   -5454324.76249  -4238432.49347                  21502302.1834
        49.7504         37.0004
  21216124.2614   -3584867.25049  -2787745.75347                  21216119.9374
        50.5004         38.0004
  21736015.4404   -4206681.51249  -3258855.99646                  21736012.2334
        40.2504         22.2504
  22247297.6594   -2486053.90249  -1936304.82147                  22247294.7264
        45.5004         30.7504
  23015003.3704    2995910.95349   2321850.85747                  23015001.0194
        47.0004         28.7504
  24078831.2374   -1935174.47749  -1472037.21546                  24078826.5974
        38.0004         17.7504
 04  6 29 14 23 19.9990000  0 10G16G 6G10G17G18G21G26G29G30G22
  24123801.2064   -3544626.71549  -2752566.49746                  24123795.9334
        42.5004         24.5004
  20008809.6204   -1872733.02049  -1458716.07548                  20008806.7064
        51.2504         41.5004
  23519494.0654    3294820.05549   2553304.73547                  23519493.4994
        42.0004         25.7504
  23338939.1834    1394730.53949   1077757.17446                  23338936.0154
        42.7504         22.7504
  21495475.7614   -5490217.37949  -4266400.76447                  21495471.7764
        50.2504         36.7504
  21211421.8004   -3609580.22349  -2807002.62347                  21211417.4134
        50.0004         38.0004
  21731072.3944   -4232659.87549  -3279098.89446                  21731068.8194
        41.5004         22.7504
  22244562.1754   -2500428.05549  -1947505.46347                  22244559.2264
        44.5004         31.7504
  23018914.9174    3016467.21149   2337868.71047                  23018912.6874
        46.5004         29.2504
  24070113.9804   -1980987.35549  -1507735.55946                  24070108.4724
        40.2504         17.7504
 04  6 29 14 23 29.9990000  0 10G16G 6G10G17G18G21G26G29G30G22
  24117890.9484   -3575686.44549  -2776768.90246                  24117885.8194
        41.7504         23.5004
  20006855.2304   -1883001.71549  -1466717.66448                  20006852.4724
        51.5004         41.0004
  23523773.7224    3317310.48449   2570829.72747                  23523773.4134
        42.7504         26.0004
  23340616.7694    1403549.87949   1084629.36346                  23340614.2924
        42.5004         22.5004
  21488651.3944   -5526079.96549  -4294345.62647                  21488647.2694
        50.0004         36.5004
  21206719.7614   -3634289.08649  -2826256.29347                  21206715.4374
        50.5004         37.5004
  21726138.0894   -4258587.27749  -3299302.06046                  21726135.0504
        40.7504         22.5004
  22241836.4334   -2514753.49649  -1958668.13447                  22241833.4994
        45.5004         31.5004
  23022826.3394    3037021.54349   2353885.07647                  23022824.1364
        46.5004         29.7504
  24061397.9484   -2026792.68449  -1543428.04946                  24061392.1794
        40.0004         18.2504
 04  6 29 14 23 39.9990000  0 10G16G 6G10G17G18G21G26G29G30G22
  24111987.0504   -3606707.98849  -2800941.52446                  24111983.1084
        42.2504         24.0004
  20004908.8944   -1893229.97349  -1474687.73548                  20004905.9914
        51.2504         41.0004
  23528052.9404    3339799.59049   2588353.69346                  23528052.6014
        41.5004         25.2504
  23342293.6364    1412363.41849   1091497.05446                  23342291.0154
        42.5004         22.7504
  21481832.6754   -5561913.20349  -4322267.62447                  21481828.5734
        49.7504         37.2504
  21202018.5194   -3658994.39549  -2845507.18447                  21202014.2694
        50.7504         38.0004
  21721213.9094   -4284464.34049  -3319465.99846                  21721211.1204
        41.2504         21.7504
  22239119.3154   -2529030.82849  -1969793.33747                  22239116.5814
        44.0004         31.5004
  23026737.6674    3057573.14549   2369899.28447                  23026735.3354
        46.5004         28.2504
  24052682.8154   -2072591.08249  -1579115.08146                  24052676.9914
        39.7504         19.0004
 04  6 29 14 23 49.9990000  0 11G16G 6G10G17G18G21G26G29G30G22G15
  24106091.3004   -3637689.38749  -2825082.88946                  24106087.9374
        41.0004         23.7504
  20002970.6364   -1903415.84449  -1482624.79148                  20002967.8124
        51.7504         41.2504
  23532332.9954    3362289.25449   2605878.04446                  23532332.0504
        41.7504         22.7504
  23343970.0654    1421173.02049   1098361.64046                  23343967.8124
        42.0004         21.7504
  21475019.7764   -5597715.09449  -4350165.19947                  21475015.8974
        49.7504         36.5004
  21197318.4334   -3683694.09449  -2864753.69747                  21197313.9644
        50.7504         37.7504
  21716300.0894   -4310289.02349  -3339589.08746                  21716297.3314
        41.5004         21.5004
  22236411.7534   -2543258.14849  -1980879.56847                  22236409.2574
        42.5004         30.2504
  23030647.8154    3078123.92249   2385912.85547                  23030645.8274
        46.5004         28.5004
  24043969.5584   -2118380.54749  -1614795.19846                  24043963.9724
        38.5004         19.7504
  24467435.1754    -151277.50059   -109526.45056                  24467433.5654
        38.7504         20.7504
 04  6 29 14 23 59.9990000  0 11G16G 6G10G17G18G21G26G29G30G22G15
  24100202.8394   -3668632.45349  -2849194.36846                  24100199.8084
        40.7504         23.2504
  20001039.8944   -1913561.23049  -1490530.28748                  20001036.8514
        51.5004         41.7504
  23536612.6834    3384777.52749   2623401.39047                  23536611.2494
        42.2504         26.0004
  23345645.8004    1429976.84849   1105221.79046                  23345643.4834
        42.5004         22.5004
  21468212.5814   -5633487.50449  -4378039.79147                  21468208.6014
        50.5004         36.7504
  21192618.8154   -3708390.12949  -2883997.35947                  21192614.5974
        50.7504         38.2504
  21711394.8624   -4336063.00049  -3359672.69946                  21711392.6754
        41.2504         21.5004
  22233713.3004   -2557437.19149  -1991928.14047                  22233710.5894
        41.5004         30.2504
  23034558.0424    3098671.88349   2401924.26047                  23034555.8824
        45.7504         28.2504
  24035257.4874   -2164162.84849  -1650469.77046                  24035252.4334
        40.0004         20.7504
  24460409.7304    -188193.74649   -138292.32046                  24460408.7144
        37.7504         20.7504
 04  6 29 14 24  9.9990000  0 11G16G 6G10G17G18G21G26G29G30G22G15
  24094321.4484   -3699537.49649  -2873276.21946                  24094319.5974
        39.5004         22.0004
  19999117.0034   -1923666.48849  -1498404.51648                  19999113.8154
        50.7504         41.5004
  23540891.1124    3407263.89149   2640923.21746                  23540890.3434
        42.5004         22.7504
  23347320.4484    1438774.61349   1112077.14946                  23347317.9684
        42.5004         22.2504
  21461410.6364   -5669230.78549  -4405891.69447                  21461406.9134
        50.2504         37.0004
  21187919.8944   -3733083.04749  -2903238.60247                  21187915.6084
        50.0004         38.0004
  21706500.4644   -4361786.72749  -3379717.18946                  21706497.8234
        41.2504         21.5004
  22231024.4094   -2571568.33649  -2002939.41447                  22231021.8824
        43.7504         30.7504
  23038467.5344    3119216.47749   2417933.02347                  23038464.9604
        45.2504         27.7504
  24026546.4094   -2209938.35249  -1686138.96046                  24026541.9684
        39.5004         21.5004
  24453383.9564    -225118.36349   -167064.68346                  24453382.3434
        40.0004         20.2504
 04  6 29 14 24 19.9990000  0 11G16G 6G10G17G18G21G26G29G30G22G15
  24088448.9404   -3730404.30549  -2897328.28146                  24088445.9804
        40.2504         23.5004
  19997201.8234   -1933731.43049  -1506247.33148                  19997198.2804
        51.0004         41.0004
  23545169.8944    3429748.52349   2658443.69846                  23545169.0224
        41.5004         22.5004
  23348993.4724    1447566.19549   1118927.71746                  23348990.8624
        42.7504         22.0004
  21454614.4564   -5704944.73049  -4433720.73447                  21454610.4294
        50.0004         36.7504
  21183221.6984   -3757772.62149  -2922477.24247                  21183217.2924
        50.5004         38.2504
  21701614.8784   -4387459.86749  -3399722.21146                  21701611.7414
        42.5004         20.5004
  22228344.2844   -2585651.45749  -2013913.29147                  22228342.0074
        43.5004         30.7504
  23042375.9874    3139757.75849   2433939.21947                  23042374.1514
        44.7504         28.5004
  24017837.1754   -2255706.82849  -1721802.66846                  24017832.9254
        41.2504         21.5004
  24446355.2694    -262051.17649   -195843.51646                  24446354.2654
        39.5004         22.0004
 04  6 29 14 24 29.9990000  0 11G16G 6G10G17G18G21G26G29G30G22G15
  24082582.1124   -3761231.51649  -2921349.48846                  24082578.9294
        39.0004         22.7504
  19995294.3784   -1943754.71149  -1514057.67748                  19995291.3194
        51.0004         41.0004
  23549448.4094    3452232.59449   2675963.72946                  23549447.3154
        41.5004         22.5004
  23350665.3314    1456353.20349   1125774.73946                  23350663.0544
        44.0004         22.7504
  21447824.0584   -5740627.94149  -4461525.83247                  21447820.3004
        50.0004         36.7504
  21178524.1904   -3782457.48449  -2941712.20147                  21178520.0344
        51.0004         38.5004
  21696739.4954   -4413081.03949  -3419686.76646                  21696735.8474
        42.5004         20.7504
  22225674.3004   -2599685.18049  -2024848.65447                  22225671.6364
        44.5004         30.5004
  23046285.0654    3160296.93849   2449943.74647                  23046282.8194
        45.5004         29.0004
  24009128.5344   -2301466.83249  -1757459.78846                  24009124.6444
        41.7504         21.5004
  24439327.0194    -298990.84049   -224627.64646                  24439325.4524
        40.7504         23.5004
 04  6 29 14 24 39.9990000  0 11G16G 6G10G17G18G21G26G29G30G22G15
  24076723.1594   -3792019.93349  -2945340.49546                  24076719.8554
        41.0004         22.0004
  19993395.1834   -1953737.24249  -1521836.27748                  19993391.8704
        51.2504         41.0004
  23553726.4404    3474714.96549   2693482.40146                  23553724.8704
        41.5004         22.7504
  23352336.8154    1465134.58249   1132617.32846                  23352334.5224
        43.2504         24.2504
  21441039.3154   -5776281.47749  -4489307.78947                  21441035.9684
        49.5004         36.7504
  21173827.5974   -3807138.69949  -2960944.30947                  21173822.9444
        50.0004         38.0004
  21691873.2304   -4438651.14549  -3439611.53346                  21691869.7574
        42.0004         20.2504
  22223012.7454   -2613670.40249  -2035746.20847                  22223010.5304
        42.0004         30.5004
  23050192.5504    3180832.98049   2465945.82747                  23050190.9054
        45.2504         28.5004
  24000422.4014   -2347219.30149  -1793111.10246                  24000418.5264
        40.2504         21.5004
  24432296.0654    -335938.40649   -253417.96146                  24432294.2334
        41.7504         25.5004
 04  6 29 14 24 49.9990000  0 11G16G 6G10G17G18G21G26G29G30G22G15
  24070871.3394   -3822768.93449  -2969300.72046                  24070867.7574
        40.2504         22.0004
  19991503.0194   -1963678.22749  -1529582.51548                  19991500.0654
        51.5004         41.0004
  23558004.9804    3497196.36749   2711000.40146                  23558003.3044
        41.2504         24.0004
  23354006.1444    1473911.03149   1139456.10646                  23354004.4444
        43.0004         24.2504
  21434260.3784   -5811904.44149  -4517065.94147                  21434256.8584
        50.0004         37.0004
  21169131.7844   -3831815.41449  -2980172.91247                  21169127.4054
        50.7504         38.0004
  21687017.5654   -4464169.26649  -3459495.79946                  21687013.9994
        43.0004         20.5004
  22220360.4174   -2627606.27349  -2046605.35547                  22220358.0654
        43.2504         30.0004
  23054100.0584    3201366.48049   2481945.95947                  23054098.7884
        44.2504         28.5004
  23991717.5814   -2392963.44149  -1828755.82246                  23991713.8354
        41.2504         22.2504
  24425263.7304    -372893.10949   -282213.84646                  24425262.1124
        43.0004         22.7504
 04  6 29 14 24 59.9990000  0 11G16G 6G10G17G18G21G26G29G30G22G15
  24065027.5814   -3853479.48849  -2993231.02946                  24065024.1944
        41.0004         22.7504
  19989618.9724   -1973578.75849  -1537297.22348                  19989615.7454
        50.7504         41.2504
  23562283.3234    3519675.50449   2728516.55346                  23562280.5304
        41.7504         22.7504
  23355675.1284    1482681.49249   1146290.19846                  23355672.3234
        43.0004         22.7504
  21427487.1124   -5847497.85249  -4544801.06647                  21427483.2804
        50.0004         37.0004
  21164436.8154   -3856488.80149  -2999398.92747                  21164432.1474
        51.0004         38.7504
  21682172.0584   -4489636.49249  -3479340.32546                  21682168.3394
        42.5004         19.7504
  22217718.0734   -2641494.06649  -2057427.00847                  22217715.6834
        44.5004         30.0004
  23058007.1124    3221896.20749   2497943.11847                  23058005.0584
        43.5004         29.5004
  23983014.3154   -2438700.30149  -1864394.96346                  23983011.2144
        42.0004         22.2504
  24418230.3084    -409856.07049   -311016.12146                  24418227.8394
        42.5004         22.7504
 04  6 29 14 25  9.9990000  0 11G16G 6G10G17G18G21G26G29G30G22G15
  24059191.1514   -3884151.02349  -3017130.90746                  24059187.5384
        40.5004         22.5004
  19987742.6984   -1983438.26649  -1544979.95748                  19987740.0934
        50.5004         41.2504
  23566560.0894    3542152.82849   2746031.38446                  23566558.2884
        41.5004         24.7504
  23357343.5814    1491446.44549   1153120.02346                  23357340.0734
        43.7504         22.2504
  21420719.7454   -5883061.30149  -4572512.84347                  21420715.8394
        50.2504         36.7504
  21159742.1674   -3881158.28549  -3018621.92147                  21159738.1984
        51.0004         38.5004
  21677334.8154   -4515052.28549  -3499144.86146                  21677332.0194
        42.7504         20.2504
  22215084.4644   -2655333.16449  -2068210.73147                  22215081.9834
        44.7504         30.7504
  23061912.8234    3242422.57049   2513937.69747                  23061911.0504
        43.2504         28.5004
  23974313.0424   -2484429.26649  -1900027.91646                  23974309.3394
        41.5004         22.5004
  24411193.8944    -446826.73049   -339824.41646                  24411192.2764
        41.0004         22.5004
 04  6 29 14 25 19.9990000  0 11G16G 6G10G17G18G21G26G29G30G22G15
  24053361.8704   -3914782.10249  -3040999.32146                  24053358.9054
        39.5004         24.5004
  19985874.7374   -1993255.38749  -1552629.66348                  19985871.8394
        50.7504         40.7504
  23570837.8784    3564629.71149   2763545.80147                  23570835.9254
        42.2504         26.0004
  23359010.5424    1500207.34449   1159946.72346                  23359007.1674
        44.2504         25.0004
  21413958.6904   -5918593.25049  -4600200.08447                  21413955.1324
        49.2504         37.2504
  21155048.5584   -3905822.50049  -3037840.80047                  21155044.4014
        51.0004         38.7504
  21672508.6444   -4540415.01649  -3518907.99246                  21672505.4874
        41.0004         21.0004
  22212460.9874   -2669122.16049  -2078955.40547                  22212458.1714
        46.2504         32.0004
  23065818.6364    3262946.82449   2529930.63447                  23065816.7884
        43.7504         28.5004
  23965611.8234   -2530148.92649  -1935653.64246                  23965609.0814
        39.2504         22.5004
  24404157.2924    -483803.82049   -368637.71446                  24404156.4334
        41.2504         22.7504
 04  6 29 14 25 29.9990000  0 11G16G 6G10G17G18G21G26G29G30G22G15
  24047540.3864   -3945373.07449  -3064836.39946                  24047537.8624
        39.7504         23.0004
  19984014.5424   -2003030.45749  -1560246.61048                  19984011.7804
        51.0004         40.7504
  23575115.4644    3587105.65249   2781059.49247                  23575113.1204
        43.2504         26.2504
  23360677.0814    1508963.73849   1166769.84446                  23360674.4764
        44.0004         25.0004
  21407202.6284   -5954094.00049  -4627862.98447                  21407199.3394
        49.5004         37.5004
  21150356.1124   -3930481.85549  -3057055.87347                  21150352.0464
        50.5004         38.2504
  21667691.9644   -4565725.21549  -3538630.25346                  21667689.4014
        42.0004         21.5004
  22209845.9874   -2682861.32849  -2089661.23747                  22209844.2534
        47.0004         32.7504
  23069723.7454    3283468.52049   2545921.51947                  23069722.6944
        42.7504         28.2504
  23956913.2224   -2575859.64149  -1971272.37346                  23956910.5194
        41.5004         22.5004
  24397118.8624    -520787.66849   -397456.27646                  24397118.0224
        41.5004         22.5004
 04  6 29 14 25 39.9990000  0 11G16G 6G10G17G18G21G26G29G30G22G15
  24041727.8704   -3975923.04349  -3088641.59846                  24041724.4994
        41.2504         22.5004
  19982162.6124   -2012762.73849  -1567830.20748                  19982159.6554
        51.2504         40.7504
  23579392.1984    3609581.30949   2798572.94947                  23579390.6124
        44.0004         26.2504
  23362342.5114    1517716.32049   1173590.03447                  23362339.9604
        44.0004         25.7504
  21400453.7374   -5989562.78549  -4655500.99747                  21400450.2374
        48.7504         37.2504
  21145664.5814   -3955135.59849  -3076266.59647                  21145660.6834
        51.0004         38.7504
  21662886.3004   -4590981.83649  -3558310.71146                  21662883.1674
        39.2504         21.7504
  22207241.4334   -2696550.00849  -2100327.76847                  22207238.8434
        47.5004         32.2504
  23073628.0264    3303988.28149   2561910.95647                  23073626.6554
        41.0004         27.2504
  23948216.7694   -2621560.55149  -2006883.46446                  23948213.4254
        41.2504         22.7504
  24390080.8314    -557777.48049   -426279.47246                  24390079.2224
        43.0004         24.0004
 04  6 29 14 25 49.9990000  0 11G16G 6G10G17G18G21G26G29G30G22G15
  24035921.6904   -4006430.65249  -3112413.73346                  24035919.2414
        39.2504         22.0004
  19980319.4014   -2022450.74649  -1575379.32948                  19980316.2264
        50.7504         41.2504
  23583669.0814    3632058.01649   2816087.26447                  23583667.3394
        44.0004         27.5004
  23364007.9874    1526466.65249   1180408.46247                  23364005.5974
        44.5004         25.7504
  21393710.1284   -6024998.26649  -4683113.06247                  21393706.7334
        49.0004         37.2504
  21140974.7064   -3979782.33249  -3095471.84047                  21140970.3664
        50.7504         38.0004
  21658090.4254   -4616183.50049  -3577948.34146                  21658086.9174
        39.2504         21.5004
  22204646.1054   -2710186.64849  -2110953.73947                  22204644.0774
        47.0004         32.0004
  23077532.8704    3324507.45749   2577899.91847                  23077531.4214
        40.5004         27.5004
  23939522.5974   -2667250.11749  -2042485.72246                  23939518.5384
        40.5004         24.0004
  24383040.5034    -594771.85949   -455106.27446                  24383039.8434
        42.2504         24.5004
 04  6 29 14 25 59.9990000  0 11G16G 6G10G17G18G21G26G29G30G22G15
  24030124.0194   -4036897.01649  -3136153.79546                  24030121.3434
        40.5004         23.5004
  19978483.9334   -2032095.66449  -1582894.84748                  19978481.0074
        51.0004         41.2504
  23587946.8154    3654534.40649   2833601.28746                  23587944.0424
        44.0004         25.5004
  23365672.0114    1535213.45349   1187224.12447                  23365670.1714
        44.0004         26.7504
  21386973.6674   -6060401.55549  -4710700.03947                  21386969.6124
        49.2504         37.5004
  21136285.4484   -4004423.33649  -3114672.62747                  21136281.5504
        51.0004         38.2504
  21653305.5034   -4641331.22349  -3597543.98846                  21653301.2534
        41.2504         22.5004
  22202061.2304   -2723772.53149  -2121540.13847                  22202058.5154
        46.7504         32.7504
  23081437.6904    3345024.59849   2593887.30047                  23081436.2694
        41.5004         28.5004
  23930829.6444   -2712929.64549  -2078080.15946                  23930826.2574
        40.2504         22.0004
  24376000.2764    -631772.10249   -483937.58946                  24375999.1754
        43.0004         23.5004
 04  6 29 14 26  9.9990000  0 11G16G 6G10G17G18G21G26G29G30G22G15
  24024335.3234   -4067322.00449  -3159861.56646                  24024331.5034
        40.7504         22.2504
  19976656.8704   -2041697.45349  -1590376.77248                  19976653.4524
        51.2504         41.5004
  23592223.5814    3677010.53149   2851115.16047                  23592220.8314
        43.5004         26.0004
  23367336.4724    1543956.68849   1194037.04446                  23367334.0854
        44.2504         25.0004
  21380242.7844   -6095772.53149  -4738261.82047                  21380238.2884
        49.5004         37.7504
  21131597.5734   -4029058.48449  -3133868.84147                  21131593.5074
        50.0004         38.2504
  21648530.0734   -4666424.93049  -3617097.47946                  21648526.4404
        40.7504         20.7504
  22199485.8234   -2737307.60249  -2132086.94147                  22199483.0384
        47.5004         32.7504
  23085341.1674    3365539.75449   2609873.14147                  23085339.8514
        41.7504         27.2504
  23922139.7224   -2758598.87949  -2113666.58846                  23922135.6794
        41.7504         24.7504
  24368958.4564    -668778.11349   -512773.42946                  24368957.4404
        43.5004         24.0004
 04  6 29 14 26 19.9990000  0 11G16G 6G10G17G18G21G26G29G30G22G15
  24018552.8704   -4097705.00849  -3183536.61246                  24018549.1554
        40.2504         22.5004
  19974837.7064   -2051255.44949  -1597824.55448                  19974835.0584
        51.7504         41.5004
  23596501.3704    3699486.92649   2868629.19847                  23596498.4764
        43.7504         27.5004
  23368999.2064    1552697.07449   1200847.70046                  23368996.8274
        43.0004         25.5004
  21373517.8864   -6131110.58249  -4765797.95947                  21373513.7614
        49.2504         38.0004
  21126911.0114   -4053687.24249  -3153060.07847                  21126906.6944
        50.0004         38.2504
  21643764.6204   -4691463.97349  -3636608.42346                  21643761.7724
        39.0004         20.0004
  22196919.9484   -2750791.03149  -2142593.51947                  22196917.2574
        46.5004         33.0004
  23089244.8004    3386053.34849   2625857.74447                  23089243.4604
        41.2504         27.5004
  23913450.7304   -2804257.27749  -2149244.60646                  23913446.7454
        40.5004         24.7504
  24361915.2064    -705789.35949   -541613.35346                  24361913.5814
        41.7504         24.2504
 04  6 29 14 26 29.9990000  0 11G16G 6G10G17G18G21G26G29G30G22G15
  24012780.1594   -4128044.92649  -3207178.11546                  24012775.3084
        40.7504         22.5004
  19973027.4174   -2060768.57849  -1605237.39448                  19973024.2064
        51.0004         41.7504
  23600778.2144    3721964.43049   2886144.12347                  23600776.0694
        44.7504         26.5004
  23370662.3004    1561435.64849   1207656.94347                  23370659.8434
        43.5004         26.5004
  21366799.6834   -6166414.61349  -4793307.60347                  21366795.9334
        47.7504         37.5004
  21122225.8704   -4078308.51649  -3172245.50847                  21122221.7534
        49.5004         38.0004
  21639010.4724   -4716447.18449  -3656075.88746                  21639007.2534
        38.5004         20.0004
  22194364.2764   -2764222.03549  -2153059.24547                  22194361.4094
        46.2504         33.5004
  23093149.0114    3406566.34449   2641841.89947                  23093147.0384
        40.7504         28.2504
  23904764.8004   -2849903.69549  -2184813.21746                  23904760.7804
        41.5004         24.5004
  24354871.1834    -742804.80549   -570456.56446                  24354869.7844
        41.2504         23.7504
 04  6 29 14 26 39.9990000  0 11G16G 6G10G17G18G21G26G29G30G22G15
  24007014.4484   -4158343.03149  -3230787.04146                  24007009.5624
        41.5004         22.5004
  19971225.6674   -2070238.16849  -1612616.28248                  19971222.2964
        51.0004         41.2504
  23605054.8624    3744441.64549   2903658.86347                  23605053.7024
        43.5004         26.7504
  23372324.4804    1570171.02049   1214463.70847                  23372322.4874
        43.5004         26.7504
  21360087.6204   -6201685.89149  -4820791.70347                  21360084.2024
        49.0004         37.2504
  21117541.6444   -4102923.66849  -3191426.13847                  21117537.9014
        50.2504         38.7504
  21634266.9564   -4741375.90649  -3675500.94046                  21634264.0194
        37.2504         19.5004
  22191817.6284   -2777601.77049  -2163485.00847                  22191815.3664
        47.0004         33.5004
  23097052.1204    3427077.31649   2657824.45747                  23097050.1904
        41.5004         29.0004
  23896080.9334   -2895539.40649  -2220373.50946                  23896076.5154
        41.5004         23.7504
  24347826.3004    -779825.81649   -599304.08146                  24347824.3044
        41.2504         24.7504
 04  6 29 14 26 49.9990000  0 11G16G 6G10G17G18G21G26G29G30G22G15
  24001256.7304   -4188598.15249  -3254362.45246                  24001252.7144
        40.0004         22.5004
  19969432.2064   -2079663.15649  -1619960.42848                  19969428.8554
        51.2504         41.5004
  23609333.2064    3766919.50049   2921174.04546                  23609330.9834
        43.5004         24.5004
  23373986.1204    1578904.22749   1221268.79947                  23373984.5624
        43.7504         26.0004
  21353382.2694   -6236923.38749  -4848249.47947                  21353378.7844
        49.0004         37.2504
  21112859.0654   -4127531.63349  -3210601.17847                  21112854.8664
        50.0004         38.2504
  21629533.7764   -4766248.87949  -3694882.43146                  21629530.3744
        38.5004         19.2504
  22189281.6054   -2790929.28549  -2173870.08247                  22189278.8274
        46.2504         32.5004
  23100954.7374    3447587.14149   2673806.12247                  23100952.9874
        42.5004         27.7504
  23887398.6754   -2941163.19149  -2255924.50046                  23887394.9484
        40.0004         24.0004
  24340780.5654    -816851.32449   -628155.08846                  24340778.7184
        42.0004         24.5004
 04  6 29 14 26 59.9990000  0 11G16G 6G10G17G18G21G26G29G30G22G15
  23995507.7304   -4218810.78149  -3277904.76446                  23995503.8784
        38.5004         22.0004
  19967646.7064   -2089043.95749  -1627270.14248                  19967643.5344
        50.7504         41.2504
  23613610.5814    3789397.57449   2938689.40547                  23613608.2334
        43.2504         26.0004
  23375647.6904    1587634.92649   1228071.94247                  23375646.2884
        43.5004         26.5004
  21346683.2224   -6272127.50049  -4875681.25547                  21346679.7374
        48.0004         37.5004
  21108177.3084   -4152132.81649  -3229770.94447                  21108173.2654
        49.0004         37.5004
  21624810.9954   -4791066.48449  -3714220.82546                  21624807.6404
        37.0004         19.2504
  22186754.9874   -2804204.84449  -2184214.66947                  22186752.9294
        45.2504         32.5004
  23104857.6514    3468095.32849   2689786.52547                  23104855.6834
        43.5004         29.5004
  23878718.7224   -2986775.58649  -2291466.61847                  23878714.8314
        43.2504         25.7504
  24333734.1674    -853881.76249   -657009.98946                  24333733.4994
        42.5004         23.0004
 04  6 29 14 27  9.9990000  0 11G16G 6G10G17G18G21G26G29G30G22G15
  23989766.2764   -4248982.76249  -3301415.40446                  23989762.3864
        40.0004         22.2504
  19965869.8624   -2098382.46549  -1634546.90448                  19965866.8044
        50.7504         41.5004
  23617887.5194    3811873.80949   2956203.30747                  23617884.8944
        43.0004         26.5004
  23377308.1124    1596361.21549   1234871.61347                  23377306.4134
        43.7504         26.5004
  21339989.6754   -6307300.03549  -4903088.42347                  21339986.4524
        48.0004         37.7504
  21103496.8624   -4176729.12549  -3248936.88547                  21103492.7104
        49.0004         38.2504
  21620098.1754   -4815830.58648  -3733517.52546                  21620095.1124
        35.5004         19.2504
  22184238.3394   -2817430.30949  -2194520.22647                  22184236.3664
        47.0004         32.5004
  23108759.4404    3488599.82449   2705764.03647                  23108757.4684
        42.7504         28.5004
  23870041.2844   -3032378.30149  -2327001.19547                  23870036.8554
        42.0004         27.0004
  24326686.1364    -890919.00449   -685870.13346                  24326685.4214
        42.7504         24.5004
 04  6 29 14 27 19.9990000  0 11G16G 6G10G17G18G21G26G29G30G22G15
  23984033.1984   -4279111.73849  -3324892.56446                  23984029.2334
        41.5004         22.7504
  19964101.1984   -2107676.28549  -1641788.85148                  19964098.1244
        49.7504         41.2504
  23622164.4874    3834350.38749   2973717.52547                  23622162.3514
        42.5004         26.0004
  23378968.9014    1605085.23049   1241669.52546                  23378967.0774
        44.0004         25.2504
  21333303.2534   -6342438.73849  -4930469.21647                  21333299.7144
        49.2504         38.0004
  21098817.8784   -4201318.27349  -3268097.26847                  21098813.1834
        50.5004         37.5004
  21615396.2454   -4840538.87549  -3752770.69046                  21615393.6794
        37.0004         18.5004
  22181731.9014   -2830603.43749  -2204784.99647                  22181729.4334
        46.5004         32.2504
  23112661.0344    3509102.80949   2721740.42647                  23112658.9874
        40.7504         28.5004
  23861365.4874   -3077969.05949  -2362526.44946                  23861360.7654
        41.2504         25.5004
  24319637.3234    -927960.85249   -714733.88146                  24319636.2924
        41.5004         25.2504
 04  6 29 14 27 29.9990000  0 11G16G 6G10G17G18G21G26G29G30G22G15
  23978307.9644   -4309195.40649  -3348334.36046                  23978304.7414
        41.0004         22.0004
  19962341.5194   -2116923.27349  -1648994.31748                  19962339.0264
        50.7504         41.2504
  23626441.5654    3856829.46949   2991233.68847                  23626439.7614
        41.7504         25.7504
  23380628.6364    1613809.26249   1248467.47547                  23380626.9134
        44.0004         26.5004
  21326623.3394   -6377541.40249  -4957821.95047                  21326620.1014
        49.0004         38.0004
  21094140.3624   -4225898.12549  -3287250.40147                  21094135.9484
        49.5004         38.5004
  21610705.6054   -4865188.88749  -3771978.49546                  21610703.0424
        37.7504         20.7504
  22179235.7694   -2843722.03149  -2215007.27547                  22179233.0814
        47.0004         32.5004
  23116562.5194    3529606.37549   2737717.19347                  23116559.9564
        44.0004         28.0004
  23852692.6364   -3123545.60249  -2398040.65047                  23852688.5034
        42.0004         27.0004
  24312587.5114    -965005.12549   -743599.51946                  24312586.8624
        42.0004         22.5004
 04  6 29 14 27 39.9990000  0 11G16G 6G10G17G18G21G26G29G30G22G15
  23972591.8084   -4339234.95749  -3371741.81146                  23972588.6444
        40.5004         22.7504
  19960590.8394   -2126124.60949  -1656164.18948                  19960588.1244
        50.7504         41.7504
  23630719.8554    3879309.68449   3008750.67446                  23630718.0384
        42.2504         24.7504
  23382288.8234    1622532.12949   1255264.44647                  23382286.4564
        43.7504         26.7504
  21319950.6444   -6412609.14849  -4985147.45447                  21319946.7654
        49.2504         37.5004
  21089464.3394   -4250469.88349  -3306397.23447                  21089460.2494
        49.7504         38.2504
  21606025.8554   -4889781.86349  -3791141.99246                  21606022.9094
        39.0004         21.0004
  22176749.3084   -2856787.26649  -2225187.99647                  22176746.3744
        47.0004         32.5004
  23120463.8624    3550109.15249   2753693.38547                  23120461.7104
        42.7504         28.5004
  23844022.2454   -3169109.09849  -2433544.65647                  23844018.0464
        43.0004         28.2504
  24305537.7374   -1002052.99649   -772468.00346                  24305536.2694
        41.7504         23.0004
 04  6 29 14 27 49.9990000  0 11G16G 6G10G17G18G21G26G29G30G22G15
  23966883.1054   -4369230.75449  -3395115.15046                  23966880.8554
        39.0004         22.5004
  19958848.7614   -2135280.60249  -1663298.73448                  19958845.9834
        51.7504         41.5004
  23634996.8624    3901790.57049   3026268.27246                  23634995.6404
        41.2504         24.2504
  23383947.4484    1631253.46549   1262060.31346                  23383946.0854
        43.2504         25.5004
  21313283.5814   -6447642.29749  -5012446.01247                  21313280.1404
        48.2504         38.0004
  21084790.1514   -4275033.93049  -3325538.05247                  21084785.9214
        49.0004         38.5004
  21601356.1904   -4914318.15249  -3810261.13146                  21601354.2414
        37.5004         21.5004
  22174273.1594   -2869799.58649  -2235327.46547                  22174270.3434
        46.7504         32.5004
  23124364.9094    3570610.76249   2769668.65447                  23124363.0034
        43.2504         27.7504
  23835354.3784   -3214659.81649  -2469038.70347                  23835350.2964
        43.5004         29.2504
  24298486.8004   -1039104.81649   -801339.52646                  24298485.5424
        41.2504         22.5004
 04  6 29 14 27 59.9990000  0 11G16G 6G10G17G18G21G26G29G30G22G15
  23961184.0974   -4399182.06249  -3418453.80646                  23961181.1164
        39.0004         22.5004
  19957114.9874   -2144390.69149  -1670397.50448                  19957112.2884
        51.2504         41.5004
  23639275.5034    3924272.71949   3043786.81446                  23639274.1084
        42.0004         24.5004
  23385607.5034    1639973.85949   1268855.39646                  23385605.5934
        43.0004         24.5004
  21306623.4954   -6482640.15249  -5039717.06047                  21306620.6984
        47.5004         38.0004
  21080117.3944   -4299589.56649  -3344672.30947                  21080113.4644
        48.2504         38.0004
  21596698.3704   -4938797.02349  -3829335.52646                  21596696.2374
        38.5004         22.2504
  22171807.2534   -2882758.16449  -2245425.04847                  22171804.4644
        47.0004         33.0004
  23128266.7374    3591111.66449   2785643.36847                  23128263.9094
        43.0004         27.2504
  23826688.8314   -3260197.07449  -2504522.32247                  23826684.9804
        43.5004         28.5004
  24291435.6124   -1076159.94549   -830213.61046                  24291433.7334
        42.5004         23.7504
 04  6 29 14 28  9.9990000  0 11G16G 6G10G17G18G21G26G29G30G22G15
  23955493.0504   -4429088.84049  -3441757.76646                  23955489.7614
        39.2504         22.2504
  19955390.0114   -2153454.78949  -1677460.42948                  19955387.1164
        52.0004         41.2504
  23643553.6834    3946755.91849   3061306.10646                  23643552.5464
        42.5004         23.0004
  23387266.7764    1648693.28949   1275649.74647                  23387264.6984
        43.0004         26.0004
  21299970.6124   -6517602.76249  -5066960.63947                  21299967.0974
        48.5004         37.5004
  21075446.3474   -4324136.91049  -3363800.11947                  21075442.1284
        48.2504         38.5004
  21592051.2614   -4963218.37549  -3848365.13246                  21592048.9684
        39.5004         22.0004
  22169351.8084   -2895663.10549  -2255480.84547                  22169348.6474
        47.2504         33.2504
  23132166.8864    3611611.64549   2801617.36747                  23132165.0074
        44.0004         27.2504
  23818025.6054   -3305720.87549  -2539995.36747                  23818021.5654
        44.0004         27.2504
  24284383.6124   -1113218.51649   -859090.44546                  24284382.0034
        42.0004         22.7504
 04  6 29 14 28 19.9990000  0 11G16G 6G10G17G18G21G26G29G30G22G15
  23949809.9094   -4458951.89849  -3465027.70946                  23949806.6324
        39.5004         22.0004
  19953673.9014   -2162473.69949  -1684488.15548                  19953670.8824
        51.7504         41.2504
  23647832.3234    3969239.35549   3078825.66946                  23647830.5074
        42.0004         22.5004
  23388926.0894    1657410.94149   1282442.66847                  23388923.0154
        43.2504         25.7504
  21293323.8474   -6552530.88749  -5094177.36247                  21293320.4834
        47.5004         37.5004
  21070776.0974   -4348676.72749  -3382922.05247                  21070772.4914
        48.7504         38.7504
  21587415.2614   -4987582.87149  -3867350.48146                  21587412.9254
        37.5004         22.5004
  22166906.1514   -2908515.18749  -2265495.47047                  22166903.4764
        47.0004         32.5004
  23136067.8474    3632109.96949   2817590.09047                  23136066.1634
        44.5004         28.0004
  23809365.5194   -3351231.92249  -2575458.51847                  23809360.5384
        43.5004         28.0004
  24277331.1514   -1150281.25049   -887970.47246                  24277329.2224
        41.2504         22.5004
 04  6 29 14 28 29.9990000  0 11G16G 6G10G17G18G21G26G29G30G22G15
  23944135.9954   -4488771.49649  -3488263.80246                  23944131.4374
        41.2504         22.5004
  19951965.8704   -2171447.61349  -1691480.83348                  19951963.3314
        50.7504         41.2504
  23652110.5814    3991722.65249   3096345.11946                  23652108.3084
        41.5004         22.5004
  23390584.2374    1666126.45349   1289234.00647                  23390581.8784
        44.0004         25.7504
  21286683.9334   -6587424.89849  -5121367.50147                  21286680.2924
        48.0004         37.5004
  21066108.1984   -4373209.27349  -3402038.33547                  21066103.7844
        49.5004         38.5004
  21582789.4174   -5011890.91049  -3886291.80946                  21582787.1634
        39.7504         22.5004
  22164470.2454   -2921314.65649  -2275469.10447                  22164467.3974
        47.7504         31.5004
  23139968.4564    3652606.03949   2833561.01547                  23139966.4374
        44.0004         27.7504
  23800707.3554   -3396730.51649  -2610911.93947                  23800702.6754
        42.7504         28.5004
  24270277.7374   -1187348.56649   -916854.07346                  24270274.8704
        41.0004         21.7504
 04  6 29 14 28 39.9990000  0 11G16G 6G10G17G18G21G26G29G30G22G15
  23938469.2694   -4518547.62149  -3511465.92546                  23938465.7374
        41.0004         22.5004
  19950267.1984   -2180376.74249  -1698438.60148                  19950263.9524
        51.5004         41.5004
  23656389.1444    4014205.65649   3113864.30646                  23656386.8824
        42.0004         23.7504
  23392242.4874    1674839.89149   1296023.66947                  23392239.7884
        44.0004         26.0004
  21280050.2924   -6622284.66449  -5148530.95747                  21280046.9834
        47.2504         37.5004
  21061440.8004   -4397734.56249  -3421148.94947                  21061436.7724
        48.2504         38.2504
  21578174.8624   -5036142.35249  -3905189.05646                  21578172.1834
        40.7504         23.7504
  22162044.3784   -2934061.62949  -2285401.80947                  22162041.8044
        47.2504         31.5004
  23143868.2534    3673099.75849   2849530.13847                  23143865.9174
        44.2504         27.2504
  23792051.3944   -3442216.66049  -2646355.67847                  23792046.8234
        44.7504         28.2504
  24263222.2224   -1224420.49249   -945741.29246                  24263220.2614
        41.0004         21.5004
 04  6 29 14 28 49.9990000  0 11G16G 6G10G17G18G21G26G29G30G22G15
  23932811.9724   -4548278.99249  -3534633.27646                  23932808.2024
        40.7504         22.7504
  19948576.5034   -2189259.83649  -1705360.50548                  19948573.4914
        51.5004         41.5004
  23660668.0194    4036689.36349   3131384.10746                  23660664.8624
        42.2504         25.2504
  23393900.2844    1683552.28549   1302812.54547                  23393898.4404
        43.5004         26.2504
  21273423.3944   -6657109.08649  -5175666.85747                  21273420.0934
        45.2504         38.0004
  21056775.6594   -4422251.63349  -3440253.15847                  21056771.2534
        46.7504         38.2504
  21573570.8784   -5060336.05949  -3924041.33946                  21573568.2964
        41.0004         25.2504
  22159628.9644   -2946754.91849  -2295292.67447                  22159626.4374
        46.7504         30.7504
  23147767.5814    3693592.21149   2865498.29047                  23147765.2414
        44.0004         28.0004
  23783398.1514   -3487689.05949  -2681788.72547                  23783394.0504
        44.5004         29.0004
  24256167.7844   -1261495.78949   -974631.10846                  24256165.7454
        40.7504         22.0004
 04  6 29 14 28 59.9990000  0 11G16G 6G10G17G18G21G26G29G30G22G15
  23927162.0344   -4577966.17249  -3557766.12346                  23927159.1874
        40.0004         23.7504
  19946894.9874   -2198097.31649  -1712246.84448                  19946891.8004
        52.0004         42.0004
  23664947.1834    4059173.26249   3148903.95947                  23664944.0504
        43.0004         26.2504
  23395557.5974    1692263.27749   1309600.30547                  23395555.6244
        43.2504         26.0004
  21266803.3004   -6691898.53149  -5202775.50747                  21266799.8044
        48.7504         37.7504
  21052111.6754   -4446760.93449  -3459351.32047                  21052107.6054
        50.0004         38.5004
  21568977.8234   -5084472.27049  -3942848.76346                  21568975.1554
        41.5004         24.7504
  22157223.9404   -2959394.95749  -2305142.06047                  22157220.7184
        46.5004         30.7504
  23151666.8554    3714082.73849   2881464.88847                  23151664.2454
        44.5004         26.7504
  23774747.9094   -3533148.22749  -2717211.46347                  23774743.5384
        43.7504         28.5004
  24249111.6204   -1298575.07049  -1003524.07646                  24249110.2694
        40.2504         22.5004
 04  6 29 14 29  9.9990000  0 11G16G 6G10G17G18G21G26G29G30G22G15
  23921521.1594   -4607610.12549  -3580865.30346                  23921518.7534
        41.2504         22.7504
  19945221.5344   -2206890.28549  -1719098.51848                  19945218.4564
        51.2504         41.2504
  23669224.4724    4081656.13749   3166423.08846                  23669222.4214
        43.0004         22.7504
  23397215.2924    1700971.73449   1316386.11347                  23397213.1754
        43.0004         27.5004
  21260189.5814   -6726654.13749  -5229857.80847                  21260185.6834
        48.5004         38.0004
  21047448.7764   -4471263.59849  -3478444.30947                  21047444.9954
        49.0004         38.5004
  21564395.8234   -5108552.13349  -3961612.29746                  21564392.4954
        41.2504         24.0004
  22154828.3554   -2971982.76249  -2314950.75647                  22154825.1444
        47.0004         31.2504
  23155565.5974    3734570.13749   2897429.07647                  23155562.8044
        44.5004         26.2504
  23766099.6834   -3578595.16849  -2752624.65047                  23766095.6594
        43.5004         28.7504
  24242054.6124   -1335659.37549  -1032420.91446                  24242053.4684
        41.0004         23.0004
 04  6 29 14 29 19.9990000  0 11G16G 6G10G17G18G21G26G29G30G22G15
  23915888.7374   -4637209.18049  -3603929.53746                  23915886.1714
        40.5004         22.5004
  19943557.3474   -2215637.10949  -1725914.22148                  19943553.9644
        51.5004         41.5004
  23673503.5424    4104139.60949   3183942.64646                  23673501.3904
        43.2504         25.5004
  23398871.9804    1709679.23049   1323171.13846                  23398870.5304
        42.5004         24.7504
  21253582.5894   -6761374.25849  -5256912.44447                  21253578.7304
        49.0004         37.5004
  21042787.8004   -4495757.83249  -3497530.73747                  21042783.6944
        49.7504         38.0004
  21559823.8704   -5132573.97749  -3980330.62846                  21559821.2184
        41.5004         23.2504
  22152443.0034   -2984516.74249  -2324717.50247                  22152439.9954
        46.7504         31.2504
  23159463.8474    3755055.92649   2913392.01046                  23159461.3394
        44.5004         25.5004
  23757453.3234   -3624028.12549  -2788026.95847                  23757450.0584
        43.2504         28.5004
  24234997.0894   -1372747.09049  -1061320.38046                  24234995.7764
        41.5004         22.5004
 04  6 29 14 29 29.9990000  0 11G16G 6G10G17G18G21G26G29G30G22G15
  23910265.0894   -4666764.50049  -3626959.67746                  23910261.3194
        40.7504         22.2504
  19941901.4174   -2224338.93049  -1732694.86748                  19941898.2144
        51.7504         41.5004
  23677782.0504    4126622.25049   3201461.58346                  23677779.5894
        43.2504         25.0004
  23400528.7614    1718384.56349   1329954.47446                  23400526.9444
        42.5004         25.2504
  21246982.1204   -6796059.99649  -5283940.27347                  21246978.2494
        48.7504         37.5004
  21038127.8004   -4520245.01249  -3516611.64947                  21038123.8314
        49.0004         38.7504
  21555263.8084   -5156538.85549  -3999004.57046                  21555260.8824
        41.5004         24.0004
  22150068.1514   -2996998.16049  -2334443.27547                  22150065.1124
        46.7504         31.5004
  23163361.3154    3775538.80149   2929352.68147                  23163359.2924
        45.0004         26.0004
  23748810.2224   -3669448.37149  -2823419.34047                  23748806.9644
        43.0004         27.2504
  24227938.1674   -1409839.52749  -1090223.54746                  24227937.3124
        41.7504         22.0004
 04  6 29 14 29 39.9990000  0 11G16G 6G10G17G18G21G26G29G30G22G15
  23904648.5654   -4696275.35549  -3649955.07246                  23904644.9014
        41.0004         22.5004
  19940254.0654   -2232995.11349  -1739439.94748                  19940250.9054
        52.2504         41.5004
  23682060.2224    4149104.75449   3218980.36246                  23682058.1834
        43.5004         24.5004
  23402184.9644    1727088.50049   1336736.75346                  23402183.4214
        43.0004         25.5004
  21240388.1834   -6830710.59449  -5310940.73647                  21240384.5384
        49.2504         37.7504
  21033469.7614   -4544724.35249  -3535686.46147                  21033465.4484
        50.0004         38.7504
  21550715.0264   -5180445.95749  -4017633.49946                  21550711.4444
        42.2504         24.2504
  22147703.1364   -3009426.13349  -2344127.42147                  22147700.7374
        46.2504         31.7504
  23167258.9564    3796019.43849   2945311.58647                  23167256.6244
        45.5004         26.7504
  23740169.7534   -3714855.04349  -2858801.17547                  23740166.3434
        43.2504         28.2504
  24220879.5894   -1446935.86349  -1119129.81546                  24220878.4644
        42.0004         22.5004
 04  6 29 14 29 49.9990000  0 11G16G 6G10G17G18G21G26G29G30G22G15
  23899041.9954   -4725741.06249  -3672915.39746                  23899037.7534
        40.0004         21.5004
  19938615.4874   -2241605.09049  -1746149.02948                  19938612.7374
        51.5004         41.5004
  23686338.8554    4171587.49649   3236499.37147                  23686335.9994
        43.5004         26.0004
  23403840.4404    1735791.51649   1343518.29646                  23403839.5814
        42.5004         24.0004
  21233801.3474   -6865325.61749  -5337913.48047                  21233797.4444
        50.5004         38.2504
  21028812.8784   -4569195.29749  -3554754.74147                  21028808.6594
        51.5004         38.5004
  21546176.4014   -5204294.70749  -4036216.93446                  21546173.2884
        42.7504         25.2504
  22145348.2064   -3021800.30949  -2353769.63047                  22145345.9684
        46.2504         32.0004
  23171156.0034    3816498.05549   2961268.94747                  23171154.5154
        45.0004         26.5004
  23731532.1204   -3760247.61749  -2894171.97047                  23731528.5974
        43.5004         28.5004
  24213819.9724   -1484035.61349  -1148038.68646                  24213818.3704
        42.0004         22.7504
 04  6 29 14 29 59.9990000  0 11G16G 6G10G17G18G21G26G29G30G22G15
  23893443.1054   -4755161.22749  -3695840.20446                  23893439.3704
        40.2504         22.5004
  19936985.8944   -2250168.32849  -1752821.69348                  19936983.3194
        52.2504         41.2504
  23690617.8234    4194070.92249   3254018.89446                  23690614.3824
        44.5004         24.5004
  23405496.7374    1744494.10949   1350299.51146                  23405495.7964
        41.5004         24.0004
  21227221.2534   -6899904.52749  -5364858.07247                  21227217.0624
        51.2504         38.5004
  21024158.0034   -4593657.50449  -3573816.19447                  21024153.8124
        51.2504         38.7504
  21541649.3474   -5228084.63749  -4054754.56846                  21541645.9174
        42.7504         25.0004
  22143003.9484   -3034120.11749  -2363369.49647                  22143001.5584
        47.0004         32.2504
  23175053.0654    3836975.16049   2977225.12147                  23175051.0264
        45.5004         26.5004
  23722897.2694   -3805625.55149  -2929531.43847                  23722893.5774
        43.7504         29.0004
  24206759.6054   -1521138.33649  -1176949.89746                  24206757.9214
        41.7504         24.2504
 04  6 29 14 30  9.9990000  0 11G16G 6G10G17G18G21G26G29G30G22G15
  23887854.0114   -4784535.23449  -3718729.08046                  23887849.9484
        40.0004         22.0004
  19935365.4174   -2258684.22749  -1759457.46748                  19935362.7884
        51.5004         41.2504
  23694896.4094    4216555.50449   3271539.36046                  23694893.0424
        43.5004         24.2504
  23407152.5584    1753196.79749   1357080.77946                  23407152.0774
        41.5004         22.5004
  21220648.1284   -6934446.66049  -5391774.02247                  21220643.7804
        49.5004         38.0004
  21019504.8784   -4618110.44149  -3592870.42947                  21019500.7654
        50.5004         38.7504
  21537133.1124   -5251815.08249  -4073245.82346                  21537129.9954
        43.2504         24.0004
  22140669.7924   -3046385.00849  -2372926.55347                  22140667.2614
        46.5004         32.7504
  23178949.3234    3857451.08649   2993180.35247                  23178947.1364
        46.0004         27.0004
  23714264.5504   -3850988.21149  -2964878.95147                  23714261.3704
        43.5004         27.5004
  24199698.9804   -1558243.48449  -1205862.95946                  24199696.7724
        41.5004         22.0004
 04  6 29 14 30 19.9990000  0 11G16G 6G10G17G18G21G26G29G30G22G15
  23882272.7454   -4813864.78549  -3741583.24746                  23882268.6944
        40.2504         22.5004
  19933753.6054   -2267154.52749  -1766057.70048                  19933750.7494
        52.0004         41.5004
  23699174.3784    4239039.30949   3289059.17546                  23699171.3044
        43.2504         25.5004
  23408808.6754    1761897.86749   1363860.80046                  23408807.8704
        41.5004         22.5004
  21214081.5034   -6968953.79349  -5418662.68947                  21214076.9804
        50.7504         38.0004
  21014853.0814   -4642555.71949  -3611918.69847                  21014848.6904
        50.7504         39.0004
  21532628.5894   -5275487.67249  -4091692.00446                  21532625.6284
        42.7504         25.2504
  22138346.2534   -3058596.59449  -2382442.07647                  22138343.6634
        46.7504         33.0004
  23182845.3784    3877924.09049   3009133.33047                  23182843.1014
        45.7504         26.7504
  23705634.3704   -3896337.27049  -3000215.86447                  23705631.6124
        43.0004         28.2504
  24192637.0034   -1595352.89849  -1234779.35146                  24192635.3234
        39.5004         22.2504
 04  6 29 14 30 29.9990000  0 11G16G 6G10G17G18G21G26G29G30G22G15
  23876700.0734   -4843147.59849  -3764401.01546                  23876696.4994
        40.7504         22.5004
  19932150.9094   -2275576.97349  -1772620.64948                  19932147.8154
        52.2504         41.0004
  23703453.3624    4261524.57849   3306580.10946                  23703450.9374
        43.5004         24.7504
  23410464.1594    1770599.68449   1370641.43046                  23410463.4374
        40.7504         24.0004
  21207522.3704   -7003423.61349  -5445522.28447                  21207518.0734
        51.0004         38.2504
  21010203.1674   -4666991.02049  -3630959.20447                  21010198.7844
        51.0004         38.0004
  21528134.9334   -5299100.09449  -4110091.28847                  21528132.1444
        42.5004         25.7504
  22136033.0584   -3070752.71549  -2391914.38147                  22136030.7024
        46.0004         33.0004
  23186740.7924    3898396.23849   3025085.64947                  23186738.6674
        44.5004         27.0004
  23697007.9404   -3941670.42649  -3035540.38947                  23697004.3354
        43.5004         27.5004
  24185574.5264   -1632464.25049  -1263697.26346                  24185572.8194
        39.0004         21.2504
 04  6 29 14 30 39.9990000  0 11G16G 6G10G17G18G21G26G29G30G22G15
  23871136.4334   -4872384.29749  -3787182.82946                  23871133.3084
        40.2504         22.0004
  19930557.2064   -2283952.27749  -1779146.85148                  19930554.0654
        52.0004         41.0004
  23707732.2224    4284010.52349   3324101.62746                  23707730.1284
        43.2504         25.0004
  23412120.5344    1779301.33649   1377421.90746                  23412118.8864
        40.5004         23.0004
  21200969.4644   -7037856.80549  -5472353.34247                  21200965.6794
        50.5004         37.7504
  21005554.9254   -4691417.12149  -3649992.52747                  21005550.5814
        50.7504         37.5004
  21523653.3084   -5322653.08249  -4128444.25347                  21523650.3274
        42.5004         26.7504
  22133730.3154   -3082854.09049  -2401344.01347                  22133728.0774
        46.0004         32.2504
  23190636.6754    3918866.77749   3041036.72547                  23190634.6444
        45.0004         27.7504
  23688384.4724   -3986988.38349  -3070853.09047                  23688380.2024
        43.2504         28.2504
  24178511.8624   -1669578.19549  -1292617.25446                  24178510.0894
        40.2504         20.2504
 04  6 29 14 30 49.9990000  0 11G16G 6G10G17G18G21G26G29G30G22G15
  23865581.7224   -4901577.34849  -3809930.70146                  23865578.0114
        38.5004         22.7504
  19928971.8084   -2292282.99249  -1785638.33048                  19928968.8354
        51.5004         41.7504
  23712010.7374    4306494.50449   3341621.58646                  23712007.8354
        42.5004         25.0004
  23413775.8624    1788000.33649   1384200.29046                  23413774.8664
        40.2504         22.5004
  21194423.7454   -7072255.87949  -5499157.80847                  21194419.6324
        50.5004         37.5004
  21000908.0034   -4715836.65649  -3669020.73647                  21000903.7304
        51.2504         38.2504
  21519182.5194   -5346149.01649  -4146752.80047                  21519179.2614
        42.5004         27.0004
  22131437.3864   -3094903.20349  -2410732.95047                  22131434.6984
        46.0004         32.0004
  23194531.3394    3939333.00049   3056984.39447                  23194529.2454
        45.0004         28.0004
  23679763.6284   -4032293.57849  -3106155.82547                  23679759.5194
        43.7504         27.7504
  24171448.0584   -1706697.37949  -1321541.25746                  24171446.1554
        39.2504         20.0004
 04  6 29 14 30 59.9990000  0 11G16G 6G10G17G18G21G26G29G30G22G15
  23860035.0504   -4930726.34849  -3832644.26646                  23860031.5194
        40.5004         22.2504
  19927395.3314   -2300568.64549  -1792094.68348                  19927392.0814
        51.2504         41.5004
  23716288.7534    4328976.83249   3359140.25546                  23716285.9644
        41.5004         24.5004
  23415430.2614    1796697.13749   1390977.02046                  23415429.4014
        39.7504         21.5004
  21187884.0424   -7106620.39149  -5525935.34747                  21187880.0974
        49.5004         37.5004
  20996262.7844   -4740249.17249  -3688043.48147                  20996258.1204
        50.7504         38.0004
  21514722.2454   -5369587.42649  -4165016.47947                  21514719.2574
        42.7504         27.0004
  22129154.3554   -3106899.62949  -2420080.78847                  22129151.9374
        45.7504         31.7504
  23198424.9954    3959795.13749   3072928.87147                  23198423.1944
        45.0004         27.7504
  23671144.4804   -4077585.59849  -3141448.29147                  23671140.2694
        43.5004         27.7504
  24164384.5814   -1743821.37549  -1350469.05046                  24164382.3554
        40.0004         19.5004
 04  6 29 14 31  9.9990000  0 11G16G 6G10G17G18G21G26G29G30G22G15
  23854496.2924   -4959829.30549  -3855321.84446                  23854492.7964
        41.7504         22.5004
  19925827.5654   -2308807.18049  -1798514.31648                  19925824.1324
        51.2504         41.2504
  23720566.6834    4351459.34449   3376659.08146                  23720564.3154
        42.5004         23.2504
  23417085.5504    1805393.67249   1397753.48946                  23417084.7374
        40.0004         21.7504
  21181351.6984   -7140948.30549  -5552684.36747                  21181347.9914
        50.0004         37.5004
  20991618.6674   -4764652.64149  -3707059.17047                  20991614.5114
        51.0004         38.0004
  21510273.1834   -5392966.28949  -4183233.77347                  21510270.3824
        43.0004         28.0004
  22126882.2144   -3118841.39549  -2429386.06647                  22126879.4254
        46.2504         31.5004
  23202317.8624    3980255.16849   3088871.74547                  23202316.3824
        44.5004         27.5004
  23662528.6204   -4122862.32849  -3176728.86147                  23662524.8124
        43.0004         28.0004
  24157319.5194   -1780948.19549  -1379399.08046                  24157317.3744
        39.2504         20.2504
 04  6 29 14 31 19.9990000  0 11G16G 6G10G17G18G21G26G29G30G22G15
  23848966.6984   -4988886.72749  -3877963.99046                  23848963.0774
        41.5004         22.0004
  19924268.5264   -2316999.25049  -1804897.76248                  19924265.0114
        51.0004         41.0004
  23724845.3234    4373941.34849   3394177.49546                  23724842.0344
        41.2504         24.0004
  23418740.7144    1814089.32849   1404529.32246                  23418739.0034
        40.5004         21.5004
  21174826.4874   -7175240.24649  -5579405.35447                  21174822.5854
        49.5004         37.7504
  20986976.4094   -4789047.82849  -3726068.41047                  20986972.4214
        49.5004         38.5004
  21505835.5894   -5416286.07849  -4201405.02347                  21505832.7804
        44.2504         27.5004
  22124619.7844   -3130729.11349  -2438649.24047                  22124617.1084
        45.2504         30.5004
  23206211.4804    4000712.28549   3104812.32247                  23206209.2614
        44.2504         26.0004
  23653915.4254   -4168124.50049  -3211998.08747                  23653911.0694
        43.5004         28.2504
  24150253.6444   -1818078.53949  -1408331.80546                  24150251.6904
        38.5004         20.2504
 04  6 29 14 31 29.9990000  0 11G16G 6G10G17G18G21G26G29G30G22G15
  23843445.9484   -5017898.56249  -3900570.62046                  23843441.9764
        41.0004         21.7504
  19922718.5654   -2325144.87149  -1811245.00248                  19922714.7224
        51.5004         41.2504
  23729123.3784    4396422.84049   3411695.51946                  23729120.1834
        42.7504         25.5004
  23420395.8394    1822784.02049   1411304.38046                  23420393.5894
        41.7504         22.7504
  21168307.7454   -7209496.21949  -5606098.31047                  21168303.9564
        48.7504         39.0004
  20982335.8944   -4813434.62549  -3745071.11347                  20982331.5154
        50.2504         38.2504
  21501409.4174   -5439546.77049  -4219530.23747                  21501406.0734
        44.5004         28.5004
  22122367.9874   -3142562.83249  -2447870.30847                  22122365.0544
        44.5004         30.5004
  23210103.7694    4021166.41049   3120750.60647                  23210101.4404
        44.2504         25.7504
  23645305.1834   -4213371.85949  -3247255.75147                  23645300.8004
        43.5004         27.5004
  24143187.2224   -1855212.34849  -1437267.18546                  24143185.5194
        37.5004         19.2504
 04  6 29 14 31 39.9990000  0 11G16G 6G10G17G18G21G26G29G30G22G15
  23837933.2844   -5046865.39849  -3923142.20546                  23837929.3664
        41.2504         22.0004
  19921177.1834   -2333244.65249  -1817556.52748                  19921173.7374
        51.2504         41.0004
  23733400.9564    4418903.03149   3429212.55246                  23733397.9764
        42.0004         22.5004
  23422049.6754    1831477.32049   1418078.34046                  23422048.2184
        41.2504         22.7504
  21161795.8314   -7243716.88349  -5632763.76547                  21161792.0854
        50.0004         38.2504
  20977696.9724   -4837813.66449  -3764067.76847                  20977692.4874
        50.0004         38.7504
  21496994.4724   -5462748.87949  -4237609.80747                  21496991.5464
        45.2504         29.7504
  22120126.5264   -3154343.00849  -2457049.66147                  22120123.4804
        45.0004         29.5004
  23213995.2694    4041616.80949   3136685.95547                  23213993.1634
        44.5004         26.7504
  23636697.8864   -4258605.11749  -3282502.41747                  23636693.1474
        43.2504         27.0004
  24136119.6124   -1892350.35249  -1466205.89246                  24136118.7304
        36.0004         19.0004
 04  6 29 14 31 49.9990000  0 11G16G 6G10G17G18G21G26G29G30G22G15
  23832429.6834   -5075788.75449  -3945679.87846                  23832424.9834
        40.7504         21.2504
  19919644.5654   -2341300.12949  -1823833.52348                  19919640.8624
        51.5004         41.7504
  23737677.9334    4441380.32449   3446727.27646                  23737675.9094
        40.7504         25.5004
  23423703.1444    1840167.52749   1424849.93746                  23423701.5224
        41.5004         21.0004
  21155290.3004   -7277903.68049  -5659402.82347                  21155286.3584
        49.5004         38.0004
  20973058.8004   -4862186.55149  -3783059.62747                  20973054.5694
        50.0004         38.5004
  21492590.1204   -5485894.00049  -4255644.97247                  21492587.4134
        45.5004         29.5004
  22117894.5424   -3166071.28949  -2466188.58047                  22117892.2304
        44.5004         30.5004
  23217885.4644    4062061.82049   3152617.13747                  23217883.5654
        43.7504         26.2504
  23628092.6444   -4303825.67649  -3317739.22547                  23628087.3584
        43.5004         26.7504
  24129050.8554   -1929494.04349  -1495148.89646                  24129050.0544
        37.2504         18.5004
 04  6 29 14 31 59.9990000  0 11G16G 6G10G17G18G21G26G29G30G22G15
  23826934.8704   -5104668.16449  -3968183.33946                  23826930.0344
        40.2504         20.7504
  19918119.9804   -2349310.86749  -1830075.66148                  19918116.6244
        51.7504         41.5004
  23741955.2844    4463855.05949   3464240.02946                  23741953.3044
        40.0004         25.5004
  23425356.2144    1848855.07849   1431619.44746                  23425354.1164
        42.0004         20.7504
  21148791.3234   -7312056.05149  -5686015.05347                  21148787.3394
        49.0004         37.7504
  20968421.9254   -4886552.77349  -3802046.29747                  20968417.6834
        50.0004         38.5004
  21488196.2764   -5508981.55149  -4273635.23947                  21488194.0034
        45.2504         29.5004
  22115672.1754   -3177747.22349  -2475286.70547                  22115669.4334
        45.5004         30.5004
  23221775.3784    4082501.73849   3168544.36847                  23221773.4564
        43.7504         26.0004
  23619490.1124   -4349033.05549  -3352965.72847                  23619484.5584
        44.0004         26.7504
  24121982.1204   -1966643.00849  -1524096.19346                  24121980.3274
        38.5004         18.5004
 04  6 29 14 32  9.9990000  0 11G16G 6G10G17G18G21G26G29G30G22G15
  23821447.8704   -5133502.89549  -3990651.87846                  23821442.8004
        41.0004         21.7504
  19916604.2694   -2357276.11749  -1836282.35948                  19916601.3824
        51.5004         42.0004
  23746231.9404    4486327.80549   3481751.22746                  23746230.2724
        39.2504         25.0004
  23427008.7454    1857540.80949   1438387.49546                  23427006.5154
        41.5004         21.0004
  21142299.0894   -7346173.26249  -5712599.89547                  21142294.8474
        49.2504         37.5004
  20963786.9564   -4910911.71949  -3821027.29647                  20963782.1204
        49.0004         38.5004
  21483813.5424   -5532010.75849  -4291580.10147                  21483811.6054
        45.2504         30.2504
  22113460.8944   -3189370.09049  -2484343.50247                  22113458.3274
        45.5004         31.0004
  23225663.3704    4102937.13749   3184468.02047                  23225662.2184
        42.7504         26.5004
  23610890.0114   -4394226.51249  -3388181.38847                  23610885.2964
        44.5004         26.5004
  24114912.5814   -2003796.50849  -1553046.93646                  24114910.3044
        39.7504         19.0004
 04  6 29 14 32 19.9990000  0 11G16G 6G10G17G18G21G26G29G30G22G15
  23815968.9334   -5162294.58249  -4013087.03946                  23815964.7574
        41.0004         21.7504
  19915096.7614   -2365197.57049  -1842454.92648                  19915094.1204
        51.5004         41.7504
  23750507.1054    4508796.77049   3499259.44847                  23750506.0034
        38.5004         25.7504
  23428661.2144    1866222.89149   1445152.77346                  23428658.6204
        41.5004         21.2504
  21135813.0424   -7380257.05149  -5739158.69947                  21135809.1014
        47.5004         37.5004
  20959152.1124   -4935265.06249  -3840003.92247                  20959148.0854
        48.2504         39.0004
  21479442.3394   -5554983.28949  -4309480.75747                  21479440.1164
        45.2504         29.5004
  22111258.9014   -3200941.58649  -2493360.24147                  22111256.1874
        45.7504         30.7504
  23229550.7374    4123366.22749   3200386.77547                  23229549.9254
        42.7504         25.7504
  23602292.6054   -4439407.67249  -3423387.47847                  23602287.3474
        45.7504         27.0004
  24107841.4404   -2040956.32449  -1582002.70046                  24107838.9524
        37.7504         19.7504
 04  6 29 14 32 29.9990000  0 11G16G 6G10G17G18G21G26G29G30G22G15
  23810496.9174   -5191044.47749  -4035489.54846                  23810493.7494
        41.0004         21.2504
  19913597.3944   -2373076.54749  -1848594.39948                  19913594.6514
        51.2504         41.5004
  23754781.8864    4531260.55149   3516763.67547                  23754781.5384
        39.0004         26.0004
  23430312.9804    1874900.08249   1451914.19246                  23430309.9994
        43.2504         21.5004
  21129333.0194   -7414308.73849  -5765692.46247                  21129329.3744
        47.7504         38.0004
  20954518.8784   -4959614.17649  -3858977.26147                  20954514.6014
        49.5004         38.7504
  21475081.3944   -5577900.34849  -4327338.21047                  21475079.0544
        45.0004         29.5004
  22109066.4804   -3212462.94949  -2502337.92747                  22109063.7264
        46.5004         31.7504
  23233437.1444    4143787.60249   3216299.53347                  23233435.4294
        42.7504         26.2504
  23593696.5654   -4484577.86749  -3458585.04147                  23593691.9254
        46.2504         28.0004
  24100768.1904   -2078123.81649  -1610964.42546                  24100766.2494
        36.2504         19.2504
 04  6 29 14 32 39.9990000  0 11G16G 6G10G17G18G21G26G29G30G22G15
  23805034.9874   -5219751.15249  -4057858.37746                  23805031.3394
        42.5004         21.7504
  19912106.5894   -2380911.55949  -1854699.60948                  19912103.5584
        51.5004         41.2504
  23759056.1514    4553720.45749   3534264.89946                  23759054.9644
        39.5004         25.2504
  23431963.2064    1883573.64549   1458672.82946                  23431960.8354
        42.2504         20.2504
  21122859.8474   -7448326.87949  -5792200.10147                  21122855.8664
        46.7504         38.0004
  20949886.8784   -4983957.61749  -3877946.17747                  20949882.2304
        48.2504         38.7504
  21470731.6754   -5600760.44949  -4345151.26847                  21470728.9134
        45.7504         29.5004
  22106883.9334   -3223932.83249  -2511275.50047                  22106881.0814
        46.2504         31.7504
  23237321.7844    4164202.46149   3232207.18546                  23237320.5344
        43.2504         25.0004
  23585103.5114   -4529735.62949  -3493772.87847                  23585098.9564
        45.2504         28.2504
  24093693.6514   -2115297.48048  -1639930.88046                  24093692.6204
        34.7504         19.5004
 04  6 29 14 32 49.9990000  0 11G16G 6G10G17G18G21G26G29G30G22G15
  23799580.0894   -5248415.14549  -4080193.93546                  23799576.6284
        42.0004         22.2504
  19910623.5654   -2388703.21549  -1860771.03348                  19910620.7884
        51.0004         41.7504
  23763329.1834    4576175.90249   3551762.57546                  23763327.8744
        39.0004         24.5004
  23433613.7224    1892243.24249   1465428.35846                  23433610.7304
        42.2504         21.2504
  21116392.6124   -7482311.95749  -5818681.96547                  21116388.9644
        49.2504         38.2504
  20945255.3394   -5008295.85249  -3896911.04647                  20945250.8584
        49.5004         38.5004
  21466392.3154   -5623564.07849  -4362920.38347                  21466389.4374
        45.7504         28.5004
  22104711.0734   -3235351.70749  -2520173.33347                  22104708.6944
        47.5004         32.7504
  23241205.2304    4184610.32449   3248109.41847                  23241203.8044
        43.0004         25.7504
  23576511.8864   -4574881.32449  -3528951.33547                  23576508.0694
        45.7504         28.7504
  24086618.7694   -2152477.98048  -1668902.62946                  24086617.9724
        33.7504         19.2504
 04  6 29 14 32 59.9990000  0 11G16G 6G10G17G18G21G26G29G30G22G15
  23794133.7614   -5277038.53549  -4102497.89146                  23794129.8824
        42.0004         22.5004
  19909148.9724   -2396453.57449  -1866810.27548                  19909146.0034
        51.0004         41.5004
  23767600.2064    4598624.65649   3569255.12046                  23767600.1284
        38.0004         22.2504
  23435261.7374    1900906.52049   1472178.90746                  23435259.1984
        42.5004         20.7504
  21109931.4724   -7516266.02749  -5845139.69447                  21109927.4564
        46.5004         38.0004
  20940624.2534   -5032631.10549  -3915873.57947                  20940619.9954
        47.0004         39.0004
  21462063.0974   -5646313.39149  -4380647.09647                  21462060.4334
        45.0004         28.0004
  22102547.0814   -3246721.81249  -2529033.18047                  22102544.4334
        47.5004         33.2504
  23245087.0194    4205008.77349   3264004.30247                  23245085.9014
        43.0004         26.5004
  23567923.3154   -4620017.17649  -3564122.13147                  23567919.5504
        45.5004         28.5004
  24079541.6284   -2189667.33248  -1697881.29546                  24079540.9134
        34.2504         20.0004
 04  6 29 14 33  9.9990000  0 11G16G 6G10G17G18G21G26G29G30G22G15
  23788694.3474   -5305620.01649  -4124769.20546                  23788690.7724
        41.7504         22.5004
  19907681.9564   -2404161.39149  -1872816.36848                  19907679.3154
        50.7504         41.7504
  23771871.6284    4621067.85549   3586743.29446                  23771871.0774
        37.5004         22.7504
  23436909.5814    1909564.83249   1478925.64946                  23436907.0224
        42.7504         20.5004
  21103476.3474   -7550187.91449  -5871572.31547                  21103472.3944
        47.2504         38.0004
  20935994.1984   -5056962.08649  -3934832.78647                  20935989.6634
        47.2504         38.7504
  21457744.6904   -5669006.97349  -4398330.39847                  21457741.6904
        44.7504         27.5004
  22100393.2304   -3258041.75049  -2537853.90647                  22100390.6404
        47.7504         32.5004
  23248967.1834    4225399.00449   3279892.81247                  23248965.7844
        43.7504         26.2504
  23559336.0344   -4665141.82049  -3599284.17547                  23559332.2804
        45.2504         29.5004
  24072464.1834   -2226864.39848  -1726866.00946                  24072462.1874
        35.7504         18.2504
 04  6 29 14 33 19.9990000  0 11G16G 6G10G17G18G21G26G29G30G22G15
  23783264.5344   -5334156.81249  -4147005.64046                  23783260.3514
        43.0004         22.7504
  19906223.9874   -2411823.88349  -1878787.14748                  19906221.5464
        51.5004         41.5004
  23776142.0894    4643508.12549   3604229.18246                  23776141.1084
        39.0004         22.7504
  23438556.4954    1918221.04749   1485670.70846                  23438554.1164
        43.2504         21.0004
  21097027.7614   -7584074.79749  -5897977.68347                  21097023.6794
        48.7504         38.2504
  20931365.5114   -5081286.09049  -3953786.54947                  20931361.3664
        49.5004         38.2504
  21453437.3474   -5691642.05549  -4415968.17947                  21453434.5194
        44.2504         26.5004
  22098249.1444   -3269308.85249  -2546633.46047                  22098246.9684
        46.7504         32.5004
  23252846.3554    4245783.70749   3295777.00047                  23252845.1514
        43.7504         26.5004
  23550751.9954   -4710252.47749  -3634435.33247                  23550748.0734
        45.7504         28.0004
  24065383.8784   -2264066.38748  -1755854.59046                  24065381.6984
        35.2504         17.2504
 04  6 29 14 33 29.9990000  0 11G16G 6G10G17G18G21G26G29G30G22G15
  23777841.2454   -5362652.48449  -4169210.07146                  23777837.6284
        42.2504         22.5004
  19904773.6674   -2419444.66849  -1884725.42548                  19904771.1554
        51.0004         41.5004
  23780411.8314    4665941.82849   3621710.00646                  23780410.3084
        39.2504         22.5004
  23440202.4724    1926871.33249   1492411.18346                  23440199.6754
        43.2504         20.5004
  21090585.3704   -7617930.28949  -5924358.57447                  21090581.2334
        48.5004         38.0004
  20926737.5424   -5105606.73849  -3972737.71247                  20926733.2764
        49.7504         39.0004
  21449139.8394   -5714222.14149  -4433563.01646                  21449137.2144
        43.7504         25.5004
  22096114.4724   -3280526.77349  -2555374.69647                  22096111.7454
        46.2504         32.2504
  23256723.4954    4266159.14149   3311653.93447                  23256722.7224
        44.2504         26.5004
  23542169.6444   -4755352.67249  -3669578.34547                  23542165.4374
        45.7504         28.5004
  24058302.8944   -2301277.03948  -1784849.88346                  24058299.9954
        35.0004         15.5004
 04  6 29 14 33 39.9990000  0 11G16G 6G10G17G18G21G26G29G30G22G15
  23772427.0264   -5391106.98049  -4191382.44746                  23772422.3664
        41.5004         21.7504
  19903331.4874   -2427023.71149  -1890631.16948                  19903328.6204
        51.2504         41.5004
  23784679.0814    4688368.91049   3639185.58646                  23784677.8394
        39.2504         24.5004
  23441848.1834    1935515.80149   1499147.17546                  23441844.7844
        43.2504         21.7504
  21084148.4404   -7651754.36349  -5950714.99547                  21084144.6594
        46.0004         38.0004
  20922110.1674   -5129924.01649  -3991686.24747                  20922105.5424
        46.7504         38.7504
  21444854.0654   -5736747.16849  -4451114.95946                  21444851.1554
        43.0004         25.5004
  22093989.2144   -3291695.43449  -2564077.55547                  22093985.9134
        47.2504         31.5004
  23260599.3864    4286525.10949   3327523.50547                  23260598.0854
        44.0004         26.5004
  23533589.4174   -4800442.33649  -3704713.15447                  23533585.8434
        44.5004         27.7504
  24051220.0194   -2338496.25448  -1813851.89146                  24051217.0114
        34.0004         16.7504
 04  6 29 14 33 49.9990000  0 11G16G 6G10G17G18G21G26G29G30G22G15
  23767019.5504   -5419521.37149  -4213523.49646                  23767015.6944
        42.2504         22.2504
  19901896.9724   -2434562.12949  -1896505.26248                  19901894.4804
        51.5004         41.2504
  23788945.4874    4710788.12549   3656655.09547                  23788944.4954
        40.5004         26.2504
  23443491.4254    1944153.33249   1505877.69546                  23443487.8314
        42.7504         22.0004
  21077718.0344   -7685548.09449  -5977047.75947                  21077714.0154
        49.2504         37.7504
  20917482.8554   -5154239.12149  -4010633.07847                  20917478.9604
        50.0004         38.7504
  21440577.7694   -5759218.37549  -4468624.99546                  21440574.9954
        42.7504         25.5004
  22091873.1674   -3302815.87949  -2572742.85947                  22091870.0384
        47.2504         31.5004
  23264473.1904    4306880.43449   3343384.78047                  23264470.9054
        43.0004         26.0004
  23525010.8864   -4845522.64849  -3739840.65347                  23525007.3864
        44.2504         28.5004
  24044136.1984   -2375725.17249  -1842861.41046                  24044133.4684
        36.2504         16.2504
 04  6 29 14 33 59.9990000  0 11G16G 6G10G17G18G21G26G29G30G22G15
  23761620.8234   -5447894.23849  -4235632.25346                  23761616.9764
        42.5004         23.0004
  19900470.4254   -2442058.56249  -1902346.64448                  19900467.6754
        51.7504         41.5004
  23793210.7694    4733200.80149   3674119.49147                  23793209.2924
        41.5004         26.0004
  23445134.2144    1952785.32449   1512603.91946                  23445131.2304
        42.2504         22.5004
  21071293.2924   -7719310.01249  -6003355.75447                  21071289.1444
        48.7504         38.0004
  20912856.6054   -5178550.94149  -4029577.36047                  20912852.4254
        48.5004         38.5004
  21436312.1594   -5781633.98849  -4486091.71247                  21436309.6944
        44.2504         27.0004
  22089766.4094   -3313886.80149  -2581369.55747                  22089762.9564
        46.7504         31.5004
  23268345.0264    4327226.49649   3359238.83147                  23268342.8864
        44.5004         26.0004
  23516434.1904   -4890592.04349  -3774959.66447                  23516431.0074
        43.5004         27.2504
  24037050.1054   -2412962.37148  -1871877.41046                  24037048.0074
        35.5004         18.5004
 04  6 29 14 34  9.9990000  0 11G16G 6G10G17G18G21G26G29G30G22G15
  23756229.4404   -5476225.57449  -4257708.60446                  23756225.9254
        42.0004         22.5004
  19899051.9404   -2449513.00849  -1908155.29848                  19899048.9094
        51.7504         41.0004
  23797474.5264    4755606.75049   3691578.63947                  23797473.4294
        41.5004         26.7504
  23446775.8704    1961411.67649   1519325.72946                  23446773.3194
        42.5004         22.0004
  21064874.8864   -7753040.18049  -6029638.99047                  21064870.8584
        49.7504         38.0004
  20908230.9334   -5202858.95749  -4048518.66647                  20908226.8434
        50.0004         38.7504
  21432056.6834   -5803994.18449  -4503515.23547                  21432054.7224
        43.0004         25.7504
  22087668.9724   -3324908.25049  -2589957.71447                  22087665.6834
        46.5004         31.2504
  23272214.5734    4347562.94949   3375085.42047                  23272212.7144
        44.0004         26.7504
  23507860.0424   -4935650.57049  -3810070.17747                  23507857.0504
        44.2504         27.0004
  24029962.0114   -2450208.04749  -1900899.94846                  24029960.6904
        37.2504         19.5004
 04  6 29 14 34 19.9990000  0 11G16G 6G10G17G18G21G26G29G30G22G15
  23750846.4484   -5504514.05949  -4279751.59946                  23750842.7574
        41.7504         22.5004
  19897641.6984   -2456924.22349  -1913930.27248                  19897638.5544
        51.5004         41.7504
  23801736.7844    4778007.16449   3709033.49446                  23801735.7804
        41.0004         25.5004
  23448416.1674    1970033.71949   1526044.17846                  23448414.2924
        42.2504         22.5004
  21058462.4254   -7786737.31249  -6055896.48447                  21058458.3234
        50.5004         38.2504
  20903606.0974   -5227161.90649  -4067456.03147                  20903602.0624
        50.5004         38.7504
  21427813.0894   -5826297.48449  -4520894.41847                  21427810.6014
        44.7504         27.5004
  22085580.9644   -3335878.84849  -2598506.21947                  22085578.3824
        45.5004         30.7504
  23276083.3864    4367891.09449   3390925.53447                  23276080.9724
        44.5004         25.7504
  23499288.0194   -4980696.82449  -3845171.18647                  23499284.6084
        44.0004         27.0004
  24022873.6594   -2487460.79749  -1929927.98546                  24022871.8514
        38.0004         19.5004
 04  6 29 14 34 29.9990000  0 11G16G 6G10G17G18G21G26G29G30G22G15
  23745471.5504   -5532759.91049  -4301761.32946                  23745467.8124
        41.0004         22.5004
  19896239.5344   -2464292.39549  -1919671.70648                  19896236.7264
        51.5004         41.5004
  23805998.2694    4800401.66449   3726483.72247                  23805997.6514
        41.2504         26.5004
  23450055.7144    1978651.21149   1532759.07646                  23450054.5774
        42.0004         22.2504
  21052056.1984   -7820401.69949  -6082128.47447                  21052052.3274
        49.5004         38.0004
  20898982.5034   -5251460.19949  -4086389.77147                  20898978.2024
        50.0004         39.0004
  21423579.6674   -5848544.30149  -4538229.58047                  21423577.3394
        44.7504         27.7504
  22083502.7224   -3346799.00449  -2607015.43747                  22083500.5464
        46.0004         30.5004
  23279949.3784    4388210.46549   3406758.83146                  23279948.0734
        44.2504         25.2504
  23490718.8314   -5025731.09849  -3880262.82547                  23490714.4684
        42.5004         27.2504
  24015783.0584   -2524720.96949  -1958961.94046                  24015781.3974
        38.2504         20.0004
 04  6 29 14 34 39.9990000  0 11G16G 6G10G17G18G21G26G29G30G22G15
  23740104.3004   -5560962.55149  -4323737.49546                  23740100.9764
        41.2504         22.0004
  19894845.6834   -2471617.02749  -1925379.21848                  19894842.8234
        51.5004         41.7504
  23810258.9644    4822790.78149   3743929.74747                  23810257.9564
        39.5004         25.7504
  23451694.9804    1987264.68449   1539470.85846                  23451693.9954
        41.5004         24.7504
  21045656.3554   -7854032.74249  -6108334.47947                  21045652.4684
        49.7504         38.0004
  20894359.6674   -5275753.38749  -4105319.53048                  20894355.5304
        50.0004         39.5004
  21419356.8474   -5870733.88749  -4555520.19047                  21419354.8434
        45.2504         27.5004
  22081434.3084   -3357668.09049  -2615484.85147                  22081432.0974
        46.2504         31.0004
  23283815.1594    4408521.51649   3422585.60646                  23283812.5224
        44.5004         24.5004
  23482151.0894   -5070752.75849  -3915344.67747                  23482147.1754
        43.2504         25.7504
  24008692.2844   -2561987.99649  -1988001.13746                  24008690.0974
        40.0004         19.5004
 04  6 29 14 34 49.9990000  0 11G16G 6G10G17G18G21G26G29G30G22G15
  23734745.6444   -5589123.73449  -4345681.19946                  23734741.8194
        41.0004         22.0004
  19893459.9874   -2478899.85549  -1931054.15248                  19893457.4524
        50.7504         41.5004
  23814517.4174    4845172.51649   3761370.03846                  23814516.8864
        38.7504         23.7504
  23453333.4014    1995872.23449   1546177.98046                  23453331.9764
        41.7504         22.7504
  21039262.5344   -7887632.15649  -6134515.83047                  21039258.7224
        50.2504         38.7504
  20889737.4874   -5300043.22749  -4124246.68047                  20889733.2964
        51.5004         39.0004
  21415145.2304   -5892867.96149  -4572767.51347                  21415142.2304
        45.2504         29.0004
  22079375.8554   -3368487.96149  -2623915.93447                  22079373.1364
        46.5004         30.5004
  23287678.0814    4428822.42249   3438404.46846                  23287676.0734
        44.2504         25.5004
  23473586.1284   -5115763.63749  -3950418.06447                  23473581.9684
        43.5004         26.0004
  24001598.8784   -2599263.67649  -2017047.09446                  24001596.5034
        40.5004         19.5004
 04  6 29 14 34 59.9990000  0 11G16G 6G10G17G18G21G26G29G30G22G15
  23729395.0504   -5617242.62149  -4367592.07446                  23729390.6674
        42.0004         22.5004
  19892082.2224   -2486139.98049  -1936695.81548                  19892079.2024
        51.0004         41.0004
  23818776.1594    4867547.63749   3778805.16746                  23818774.9014
        40.0004         24.0004
  23454970.1984    2004474.82449   1552881.29746                  23454968.6284
        42.0004         24.0004
  21032875.0034   -7921199.10549  -6160671.88947                  21032871.3124
        49.7504         39.0004
  20885116.1594   -5324328.89849  -4143170.57547                  20885111.9684
        50.2504         38.7504
  21410943.9404   -5914945.64849  -4589970.93147                  21410941.1244
        46.2504         27.5004
  22077326.3704   -3379257.59049  -2632307.88047                  22077323.9014
        45.7504         30.5004
  23291540.0264    4449113.81349   3454215.92046                  23291537.2064
        45.5004         25.5004
  23465022.0654   -5160762.71949  -3985482.28247                  23465019.1634
        44.5004         27.0004
  23994503.5654   -2636547.26649  -2046099.28646                  23994500.7334
        39.5004         19.7504
 04  6 29 14 35  9.9990000  0 11G16G 6G10G17G18G21G26G29G30G22G15
  23724052.6904   -5645318.26649  -4389469.17146                  23724048.6474
        42.0004         23.0004
  19890712.7534   -2493336.64149  -1942303.60648                  19890710.0114
        51.2504         41.5004
  23823033.3554    4889917.03149   3796235.79746                  23823031.8624
        40.7504         24.2504
  23456606.8704    2013073.25849   1559581.36646                  23456604.5304
        42.2504         23.0004
  21026493.6444   -7954732.61349  -6186801.89147                  21026489.9014
        50.2504         38.0004
  20880495.4014   -5348609.57049  -4162090.58047                  20880491.5584
        50.2504         38.7504
  21406753.7304   -5936966.11349  -4607129.71347                  21406750.6554
        46.0004         29.7504
  22075286.8084   -3389976.25849  -2640660.06847                  22075284.4564
        46.2504         30.5004
  23295399.5114    4469396.52349   3470020.60846                  23295396.8584
        45.5004         25.0004
  23456462.3864   -5205749.08649  -4020536.57347                  23456458.6444
        44.2504         27.0004
  23987407.2224   -2673837.81249  -2075156.79746                  23987404.7574
        39.0004         19.2504
 04  6 29 14 35 19.9990000  0 11G16G 6G10G17G18G21G26G29G30G22G15
  23718717.7764   -5673351.89549  -4411313.56946                  23718714.1054
        42.0004         22.0004
  19889351.3864   -2500490.96149  -1947878.42248                  19889348.5194
        51.0004         41.5004
  23827287.8154    4912279.28949   3813660.92146                  23827287.0114
        39.5004         25.2504
  23458241.8154    2021666.27349   1566277.19846                  23458239.7614
        42.5004         23.0004
  21020118.7304   -7988233.93749  -6212906.81447                  21020115.0114
        50.5004         38.2504
  20875875.8084   -5372886.40649  -4181007.59447                  20875871.4294
        50.7504         38.0004
  21402574.2454   -5958930.37549  -4624244.73447                  21402571.1284
        46.0004         29.2504
  22073256.7224   -3400645.10949  -2648973.47647                  22073254.3704
        46.2504         31.0004
  23299256.5344    4489669.09849   3485817.40446                  23299254.3784
        45.7504         25.5004
  23447904.0264   -5250723.96149  -4055581.95047                  23447899.6634
        44.5004         27.0004
  23980309.7534   -2711136.61749  -2104220.76546                  23980306.4294
        40.5004         21.0004
 04  6 29 14 35 29.9990000  0 11G16G 6G10G17G18G21G26G29G30G22G15
  23713391.4804   -5701342.76249  -4433124.65546                  23713386.9874
        41.7504         22.5004
  19887997.8554   -2507602.28949  -1953419.71148                  19887995.3394
        51.0004         41.7504
  23831542.3784    4934635.06349   3831080.99746                  23831541.0304
        40.2504         23.7504
  23459876.2374    2030254.66049   1572969.44946                  23459874.6474
        43.0004         22.7504
  21013749.6514   -8021702.37149  -6238986.09747                  21013746.2104
        50.7504         38.5004
  20871257.1124   -5397158.73849  -4199921.10147                  20871252.2964
        50.7504         38.0004
  21398405.2224   -5980837.67649  -4641315.34247                  21398402.3704
        46.7504         29.5004
  22071236.0584   -3411263.46949  -2657247.52347                  22071233.2764
        45.5004         31.0004
  23303112.5584    4509932.19549   3501606.82946                  23303110.0304
        45.5004         24.5004
  23439347.5264   -5295686.58249  -4090617.75647                  23439342.9764
        45.2504         26.0004
  23973209.9804   -2748442.93449  -2133290.61546                  23973207.4874
        38.7504         19.7504
 04  6 29 14 35 39.9990000  0 11G16G 6G10G17G18G21G26G29G30G22G15
  23708072.4334   -5729291.60549  -4454903.00246                  23708068.5624
        40.7504         22.5004
  19886653.0344   -2514671.37549  -1958928.09148                  19886650.3944
        50.7504         41.5004
  23835795.0034    4956983.44549   3848495.27546                  23835793.7654
        40.5004         22.5004
  23461509.1124    2038837.60949   1579657.43646                  23461507.7144
        41.5004         23.5004
  21007387.2374   -8055138.69549  -6265040.37747                  21007383.6514
        50.5004         38.5004
  20866638.7764   -5421427.39149  -4218831.74247                  20866634.4014
        51.5004         38.5004
  21394247.0814   -6002688.90249  -4658342.28547                  21394244.4954
        46.0004         29.7504
  22069224.8084   -3421832.17249  -2665482.86747                  22069222.6244
        46.5004         31.5004
  23306967.1674    4530184.94549   3517388.20047                  23306964.0654
        46.0004         25.7504
  23430793.6904   -5340637.72349  -4125644.63147                  23430789.1244
        44.7504         26.0004
  23966109.3394   -2785757.65249  -2162366.96346                  23966107.2104
        37.0004         20.0004
 04  6 29 14 35 49.9990000  0 11G16G 6G10G17G18G21G26G29G30G22G15
  23702762.4954   -5757196.85549  -4476647.34646                  23702759.2534
        40.7504         22.0004
  19885315.8944   -2521696.73849  -1964402.40448                  19885313.1834
        51.7504         41.7504
  23840046.6904    4979325.89849   3865904.90946                  23840045.5694
        41.0004         22.7504
  23463141.8704    2047416.57049   1586342.31746                  23463140.4524
        41.5004         22.7504
  21001030.8314   -8088541.40649  -6291068.45747                  21001027.3234
        50.5004         38.5004
  20862021.7064   -5445690.82049  -4237738.31447                  20862017.1364
        50.5004         38.5004
  21390099.4874   -6024482.43049  -4675324.24947                  21390097.0894
        46.0004         29.2504
  22067223.2844   -3432349.65249  -2673678.32147                  22067221.1904
        45.5004         30.7504
  23310818.8944    4550428.70749   3533162.53247                  23310816.8354
        46.0004         26.5004
  23422241.5654   -5385575.76649  -4160661.27347                  23422237.5504
        43.5004         27.2504
  23959007.6594   -2823079.14849  -2191448.68246                  23959004.3664
        40.5004         20.2504
 04  6 29 14 35 59.9990000  0 11G16G 6G10G17G18G21G26G29G30G22G15
  23697460.7614   -5785057.19549  -4498356.74846                  23697457.1874
        41.7504         22.5004
  19883987.6984   -2528677.00449  -1969841.58748                  19883984.5624
        51.0004         41.7504
  23844297.5734    5001663.69149   3883311.00446                  23844296.4374
        41.0004         22.7504
  23464773.7534    2055992.90249   1593025.18646                  23464771.8624
        41.5004         22.7504
  20994681.4804   -8121909.13349  -6317069.28447                  20994677.6944
        50.5004         38.7504
  20857405.5504   -5469947.70349  -4256639.79247                  20857401.1284
        51.0004         38.5004
  21385963.4564   -6046216.78149  -4692260.11947                  21385961.0694
        45.0004         30.0004
  22065231.7534   -3442814.60249  -2681832.82547                  22065229.1444
        44.7504         30.5004
  23314670.0584    4570664.72349   3548930.79847                  23314668.1594
        45.0004         26.0004
  23413693.6514   -5430499.36749  -4195666.67847                  23413689.2884
        44.7504         26.2504
  23951904.8314   -2860406.22749  -2220534.69046                  23951902.1084
        40.5004         20.7504
 04  6 29 14 36  9.9990000  0 11G16G 6G10G17G18G21G26G29G30G22G15
  23692167.9804   -5812871.32449  -4520030.04946                  23692164.1474
        42.7504         22.7504
  19882668.3944   -2535610.95749  -1975244.67248                  19882665.0584
        51.5004         41.7504
  23848547.6984    5023997.96149   3900714.29346                  23848546.0464
        41.7504         22.7504
  23466405.8784    2064567.84849   1599706.94146                  23466403.7724
        41.2504         22.7504
  20988338.6284   -8155240.50049  -6343041.77047                  20988334.5544
        50.5004         38.0004
  20852790.9954   -5494197.11749  -4275535.43047                  20852786.9804
        50.2504         38.7504
  21381839.0504   -6067890.69149  -4709148.86847                  21381836.4054
        46.5004         30.2504
  22063250.5654   -3453225.77749  -2689945.42847                  22063248.0974
        45.2504         30.7504
  23318519.2534    4590894.07849   3564693.93447                  23318517.5654
        45.2504         26.7504
  23405147.8314   -5475407.20349  -4230659.74247                  23405143.5194
        43.5004         26.0004
  23944800.9484   -2897737.57849  -2249624.03546                  23944798.3584
        40.0004         22.0004
 04  6 29 14 36 19.9990000  0 11G16G 6G10G17G18G21G26G29G30G22G15
  23686883.7304   -5840640.61749  -4541668.49146                  23686879.4444
        42.7504         22.5004
  19881357.5894   -2542499.94549  -1980612.71348                  19881354.2064
        51.5004         41.7504
  23852796.4014    5046327.16449   3918113.66446                  23852795.2224
        42.5004         22.2504
  23468036.9174    2073140.04349   1606386.54846                  23468035.2574
        41.5004         23.5004
  20982002.5114   -8188537.00049  -6368987.08547                  20981998.5304
        50.2504         38.5004
  20848177.6054   -5518440.10549  -4294426.06848                  20848173.8274
        50.7504         39.5004
  21377726.6054   -6089505.56249  -4725991.60147                  21377724.2534
        46.5004         29.5004
  22061279.6834   -3463584.59049  -2698017.22247                  22061277.0264
        45.0004         31.7504
  23322367.2694    4611115.30549   3580450.72447                  23322365.2104
        44.5004         26.5004
  23396604.7374   -5520300.60249  -4265641.62646                  23396600.1244
        44.0004         25.0004
  23937695.1754   -2935074.66449  -2278717.79646                  23937693.8044
        36.0004         20.7504
 04  6 29 14 36 29.9990000  0 11G16G 6G10G17G18G21G26G29G30G22G15
  23681607.3944   -5868365.73449  -4563272.45646                  23681603.8314
        42.5004         22.5004
  19880055.1284   -2549344.67649  -1985946.28648                  19880051.6164
        51.7504         41.5004
  23857045.3234    5068650.54349   3935508.47246                  23857042.6904
        42.7504         23.0004
  23469667.1834    2081708.73049   1613063.43746                  23469666.2654
        40.7504         22.7504
  20975672.5344   -8221799.28549  -6394905.74947                  20975668.8514
        50.5004         38.0004
  20843565.5584   -5542677.31649  -4313312.20447                  20843561.1084
        51.0004         38.5004
  21373624.5194   -6111061.96549  -4742788.81947                  21373621.6834
        46.5004         30.0004
  22059318.3314   -3473891.72349  -2706048.78047                  22059315.7804
        45.5004         31.5004
  23326213.5814    4631327.52749   3596200.49347                  23326211.7804
        44.5004         26.7504
  23388064.1124   -5565180.29349  -4300612.81247                  23388059.1714
        43.5004         26.0004
  23930588.6284   -2972418.22349  -2307816.65146                  23930587.0854
        38.0004         20.7504
 04  6 29 14 36 39.9990000  0 11G16G 6G10G17G18G21G26G29G30G22G15
  23676340.1364   -5896046.44549  -4584841.84346                  23676336.6364
        43.0004         22.5004
  19878760.7694   -2556144.92249  -1991245.18148                  19878757.2694
        51.0004         41.2504
  23861291.3784    5090968.23449   3952898.91246                  23861289.3044
        42.2504         22.5004
  23471297.8154    2090274.11349   1619737.71846                  23471296.4484
        41.2504         25.2504
  20969349.6834   -8255027.10949  -6420797.55847                  20969345.7334
        51.7504         38.7504
  20838954.2844   -5566908.56249  -4332193.70147                  20838950.3664
        50.7504         38.2504
  21369533.4174   -6132559.61749  -4759540.22947                  21369530.6404
        46.5004         30.0004
  22057366.6594   -3484146.94949  -2714039.85647                  22057364.1014
        46.5004         32.5004
  23330057.6204    4651530.93849   3611943.39747                  23330055.9404
        44.0004         25.7504
  23379527.2144   -5610046.00049  -4335573.12447                  23379522.0074
        44.5004         25.7504
  23923481.9954   -3009768.03149  -2336920.37146                  23923479.7264
        39.0004         21.5004
 04  6 29 14 36 49.9990000  0 11G16G 6G10G17G18G21G26G29G30G22G15
  23671081.7614   -5923681.36349  -4606375.54646                  23671077.8514
        41.0004         22.7504
  19877475.3394   -2562899.34449  -1996508.38748                  19877471.9954
        51.0004         41.0004
  23865537.8624    5113281.47749   3970285.80946                  23865535.4954
        42.0004         22.2504
  23472926.7924    2098837.63749   1626410.53646                  23472925.8434
        40.5004         23.7504
  20963033.5114   -8288219.16849  -6446661.49447                  20963029.7144
        51.0004         38.5004
  20834344.9724   -5591132.58649  -4351069.57647                  20834340.6834
        51.0004         39.0004
  21365453.8004   -6153997.15249  -4776244.81647                  21365451.3274
        46.0004         29.0004
  22055425.3864   -3494348.97749  -2721989.48347                  22055422.8664
        46.7504         31.5004
  23333900.9644    4671726.65249   3627680.30247                  23333898.7374
        44.5004         26.7504
  23370992.0424   -5654896.27349  -4370521.37747                  23370987.5934
        43.0004         26.5004
  23916373.4174   -3047122.75849  -2366027.97446                  23916371.5894
        40.0004         21.7504
 04  6 29 14 36 59.9990000  0 11G16G 6G10G17G18G21G26G29G30G22G15
  23665831.4564   -5951270.10249  -4627873.28846                  23665827.4334
        42.5004         22.7504
  19876198.8004   -2569607.57449  -2001735.58748                  19876195.4374
        51.5004         40.7504
  23869782.8234    5135590.52749   3987669.43346                  23869780.7184
        41.2504         22.2504
  23474555.5654    2107399.46949   1633082.10846                  23474554.9874
        40.0004         24.7504
  20956724.0734   -8321375.07849  -6472497.26947                  20956720.3004
        51.2504         38.2504
  20829736.8234   -5615349.05549  -4369939.55447                  20829732.4174
        50.7504         38.2504
  21361386.0654   -6175374.16849  -4792902.23847                  21361383.8704
        46.2504         29.5004
  22053493.9254   -3504497.52049  -2729897.46247                  22053491.7184
        47.2504         32.5004
  23337742.7844    4691914.95349   3643411.42046                  23337741.2574
        44.0004         24.5004
  23362460.9404   -5699730.80949  -4405457.39047                  23362455.7454
        42.2504         27.5004
  23909263.9564   -3084482.12149  -2395139.12546                  23909262.1904
        41.2504         22.2504
 04  6 29 14 37  9.9990000  0 11G16G 6G10G17G18G21G26G29G30G22G15
  23660590.6754   -5978810.28549  -4649333.19146                  23660586.5654
        42.7504         22.7504
  19874931.6054   -2576267.27749  -2006924.96848                  19874928.5034
        51.0004         40.5004
  23874027.6284    5157897.59049   4005051.54146                  23874025.7264
        40.5004         21.5004
  23476185.5424    2115961.94549   1639754.16146                  23476184.6284
        39.0004         22.7504
  20950422.1514   -8354492.57049  -6498303.09847                  20950418.1944
        50.2504         38.7504
  20825130.2144   -5639555.72349  -4388801.87947                  20825125.6084
        50.7504         38.7504
  21357329.9484   -6196688.36749  -4809510.70647                  21357327.4954
        46.5004         30.0004
  22051573.3154   -3514590.09849  -2737761.82047                  22051570.8904
        47.7504         33.2504
  23341583.3474    4712098.03149   3659138.47047                  23341581.2924
        43.2504         25.7504
  23353932.1204   -5744547.21149  -4440379.23147                  23353928.1634
        43.2504         27.7504
  23902154.6904   -3121843.85249  -2424252.10146                  23902152.6124
        42.0004         22.2504
 04  6 29 14 37 19.9990000  0 11G16G 6G10G17G18G21G26G29G30G22G15
  23655358.6834   -6006302.32449  -4670755.59146                  23655354.8194
        43.7504         22.5004
  19873673.3314   -2582878.86749  -2012076.85648                  19873670.1324
        51.5004         41.0004
  23878272.0654    5180202.30549   4022431.81446                  23878269.9834
        41.0004         21.5004
  23477815.4564    2124524.77349   1646426.42946                  23477814.0814
        39.0004         24.0004
  20944127.0504   -8387571.87549  -6524079.18147                  20944123.2844
        50.5004         39.0004
  20820525.7374   -5663752.82849  -4407656.77247                  20820521.0304
        50.7504         38.5004
  21353286.1124   -6217940.00049  -4826070.44647                  21353283.5344
        46.7504         29.2504
  22049663.8944   -3524627.14149  -2745582.89947                  22049660.9374
        48.0004         33.0004
  23345422.8944    4732275.43449   3674861.10446                  23345420.4604
        42.2504         25.0004
  23345407.2764   -5789345.75449  -4475287.17547                  23345402.9954
        42.5004         27.5004
  23895044.3784   -3159208.15649  -2453367.16146                  23895042.3514
        41.5004         22.2504
 04  6 29 14 37 29.9990000  0 11G16G 6G10G17G18G21G26G29G30G22G15
  23650136.5264   -6033747.49249  -4692141.39046                  23650132.5384
        43.0004         24.0004
  19872424.1594   -2589443.83649  -2017192.40848                  19872420.9484
        51.2504         40.7504
  23882515.6514    5202503.06349   4039809.01446                  23882513.1634
        40.2504         22.0004
  23479444.9014    2133086.59049   1653097.96946                  23479443.5224
        39.5004         24.5004
  20937839.5034   -8420614.35549  -6549826.56147                  20937835.5194
        51.0004         38.7504
  20815922.7064   -5687941.79749  -4426505.31847                  20815917.9334
        50.5004         38.5004
  21349253.7144   -6239130.39849  -4842582.44047                  21349250.8194
        46.7504         30.2504
  22047764.2374   -3534610.14849  -2753361.87647                  22047761.7724
        47.0004         34.0004
  23349261.1204    4752445.60249   3690578.10647                  23349259.4804
        43.2504         26.5004
  23336885.4094   -5834127.80549  -4510182.27947                  23336881.5774
        42.0004         26.5004
  23887932.6204   -3196576.59849  -2482485.42646                  23887932.1054
        41.0004         22.7504
 04  6 29 14 37 39.9990000  0 11G16G 6G10G17G18G21G26G29G30G22G15
  23644923.6204   -6061143.86349  -4713489.23946                  23644919.1944
        42.0004         22.7504
  19871184.0894   -2595960.18449  -2022270.08548                  19871181.5624
        51.7504         41.2504
  23886758.9174    5224801.75049   4057184.60546                  23886756.7764
        40.2504         22.7504
  23481074.8394    2141649.25049   1659770.14946                  23481072.5814
        40.2504         25.2504
  20931559.2224   -8453618.05949  -6575543.72947                  20931555.2224
        50.5004         38.7504
  20811321.7614   -5712120.80549  -4445346.11247                  20811317.1284
        50.5004         38.5004
  21345233.6204   -6260257.57449  -4859045.16147                  21345230.4564
        47.0004         30.0004
  22045875.2144   -3544537.10549  -2761097.15247                  22045872.5034
        47.0004         34.0004
  23353098.6444    4772610.39149   3706290.92346                  23353096.8944
        42.2504         24.5004
  23328367.5814   -5878891.35549  -4545062.95247                  23328363.5774
        41.0004         26.2504
  23880821.4484   -3233947.19149  -2511605.30746                  23880819.6754
        41.5004         22.5004
 04  6 29 14 37 49.9990000  0 11G16G 6G10G17G18G21G26G29G30G22G15
  23639719.4334   -6088492.55549  -4734799.95746                  23639715.3744
        42.0004         22.0004
  19869953.2224   -2602428.86749  -2027310.62948                  19869950.4804
        52.0004         41.5004
  23891001.5894    5247097.19549   4074557.62346                  23890999.9294
        39.7504         21.2504
  23482702.9804    2150211.62949   1666442.14046                  23482702.0694
        40.5004         25.0004
  20925285.4334   -8486584.13349  -6601231.56947                  20925282.0654
        51.0004         38.5004
  20806722.3154   -5736291.12549  -4464180.12147                  20806717.9914
        50.5004         38.5004
  21341224.9334   -6281322.56249  -4875459.44347                  21341221.5974
        47.0004         30.0004
  22043996.4804   -3554409.06649  -2768789.58047                  22043993.9484
        47.0004         33.7504
  23356934.1444    4792768.52749   3721998.53446                  23356932.5584
        41.5004         25.0004
  23319852.4804   -5923637.53149  -4579930.08546                  23319848.8044
        41.7504         25.5004
  23873709.6984   -3271321.02749  -2540727.76746                  23873708.2614
        42.2504         23.2504
 04  6 29 14 37 59.9990000  0 11G16G 6G10G17G18G21G26G29G30G22G15
  23634523.8004   -6115792.65249  -4756072.76146                  23634520.3824
        42.5004         22.7504
  19868731.4954   -2608849.14849  -2032313.45948                  19868728.5894
        51.7504         41.5004
  23895244.0194    5269390.16849   4091928.77546                  23895241.6324
        39.5004         20.2504
  23484332.6054    2158774.62149   1673114.54446                  23484331.9444
        38.5004         22.7504
  20919019.7064   -8519511.79749  -6626889.49147                  20919015.8824
        50.7504         38.5004
  20802124.7924   -5760451.68049  -4483006.53447                  20802120.3974
        50.5004         38.5004
  21337228.4724   -6302324.52049  -4891824.62547                  21337225.2654
        47.5004         30.0004
  22042128.1444   -3564225.27349  -2776438.57647                  22042125.9874
        47.0004         33.5004
  23360769.4564    4812920.87549   3737701.64546                  23360767.3154
        41.0004         25.2504
  23311341.3154   -5968365.35549  -4614782.89646                  23311336.8944
        40.5004         24.5004
  23866598.1514   -3308697.34849  -2569852.16946                  23866594.8434
        42.5004         22.5004
 04  6 29 14 38  9.9990000  0 11G16G 6G10G17G18G21G26G29G30G22G15
  23629338.6444   -6143043.43449  -4777307.13246                  23629334.3514
        42.0004         22.5004
  19867518.9334   -2615220.39549  -2037278.05448                  19867515.8514
        51.7504         41.5004
  23899485.8314    5291681.14849   4109298.35746                  23899482.9374
        39.5004         19.7504
  23485961.5894    2167338.84849   1679787.96446                  23485961.4764
        37.5004         22.0004
  20912761.1204   -8552400.28149  -6652516.86547                  20912757.8664
        51.0004         38.2504
  20797528.9804   -5784601.75849  -4501824.76047                  20797524.8434
        51.2504         38.5004
  21333243.7694   -6323262.73049  -4908140.13347                  21333241.0894
        46.7504         30.5004
  22040271.3234   -3573985.12549  -2784043.64747                  22040268.9214
        47.7504         33.2504
  23364603.0584    4833067.80949   3753400.53546                  23364600.8664
        42.0004         23.5004
  23302832.8474   -6013074.20749  -4649620.94846                  23302829.0074
        39.7504         25.5004
  23859484.5734   -3346075.42649  -2598977.91946                  23859481.8394
        42.2504         22.0004
 04  6 29 14 38 19.9990000  0 11G16G 6G10G17G18G21G26G29G30G22G15
  23624161.8394   -6170244.73849  -4798502.90446                  23624157.6674
        41.5004         24.0004
  19866316.3474   -2621542.37149  -2042204.28348                  19866312.9564
        51.5004         41.0004
  23903727.2224    5313970.16849   4126666.36446                  23903724.6904
        39.5004         20.7504
  23487591.4644    2175904.44548   1686462.34346                  23487591.6834
        35.7504         21.0004
  20906510.4644   -8585249.42249  -6678113.58947                  20906506.5854
        50.5004         38.7504
  20792935.1364   -5808741.34049  -4520634.82147                  20792931.3824
        50.5004         38.0004
  21329271.6514   -6344136.94949  -4924405.74847                  21329268.7614
        45.5004         29.2504
  22038424.6754   -3583688.39549  -2791604.65047                  22038422.1754
        47.5004         32.7504
  23368436.4484    4853209.44949   3769095.29746                  23368433.4954
        40.7504         24.7504
  23294328.5814   -6057763.88749  -4684444.01046                  23294324.9804
        41.0004         25.5004
  23852370.6054   -3383455.21549  -2628104.98046                  23852368.7414
        41.5004         22.0004
 04  6 29 14 38 29.9990000  0 11G16G 6G10G17G18G21G26G29G30G22G15
  23618994.3784   -6197397.80149  -4819661.17446                  23618991.0074
        41.2504         23.7504
  19865122.2064   -2627816.35549  -2047093.10448                  19865119.0114
        51.2504         41.5004
  23907969.5504    5336256.01649   4144031.96646                  23907966.0734
        41.2504         20.2504
  23489221.1444    2184470.21148   1693136.96646                  23489221.5734
        34.2504         20.5004
  20900266.5654   -8618060.38749  -6703680.58147                  20900262.6714
        50.5004         38.7504
  20788343.5424   -5832871.80549  -4539437.78847                  20788339.2844
        50.7504         38.7504
  21325311.1594   -6364948.48449  -4940622.52147                  21325308.6124
        46.5004         30.0004
  22036589.1674   -3593336.42249  -2799122.59347                  22036586.4604
        47.0004         32.2504
  23372267.8944    4873344.40249   3784784.84947                  23372266.2494
        41.5004         26.2504
  23285827.8554   -6102435.57849  -4719253.12247                  23285824.2764
        41.0004         26.0004
  23845256.8784   -3420837.96949  -2657234.40446                  23845255.7414
        41.7504         22.5004
 04  6 29 14 38 39.9990000  0 11G16G 6G10G17G18G21G26G29G30G22G15
  23613837.7844   -6224500.46149  -4840780.08746                  23613833.9054
        42.5004         24.5004
  19863937.3624   -2634040.18049  -2051942.83448                  19863934.6594
        51.5004         41.2504
  23912208.9334    5358540.63349   4161396.56546                  23912207.1444
        39.7504         20.7504
  23490852.1444    2193038.24248   1699813.34546                  23490852.0624
        33.5004         20.0004
  20894030.5114   -8650831.04749  -6729216.16947                  20894026.4644
        50.7504         38.7504
  20783753.8394   -5856990.71949  -4558231.75547                  20783749.4094
        50.7504         38.5004
  21321363.0974   -6385694.99249  -4956788.63147                  21321360.7534
        45.2504         30.7504
  22034763.8784   -3602926.94949  -2806595.72547                  22034760.9604
        47.0004         32.2504
  23376098.3234    4893474.69449   3800470.78946                  23376096.2414
        40.5004         22.7504
  23277331.4874   -6147087.02749  -4754046.46347                  23277327.0654
        41.0004         25.7504
  23838143.5504   -3458221.51949  -2686364.37846                  23838142.6444
        41.7504         24.0004
 04  6 29 14 38 49.9990000  0 11G16G 6G10G17G18G21G26G29G30G22G15
  23608689.7534   -6251553.89149  -4861860.68346                  23608686.3704
        42.5004         24.0004
  19862762.8394   -2640215.19949  -2056754.53948                  19862759.6084
        51.7504         41.7504
  23916448.7144    5380822.68049   4178759.16146                  23916447.2884
        39.7504         21.7504
  23492483.8704    2201607.34049   1706490.50246                  23492482.6594
        37.7504         21.2504
  20887802.0344   -8683562.64849  -6754721.30147                  20887798.1944
        50.0004         38.5004
  20779166.0034   -5881099.47749  -4577017.80347                  20779161.6904
        50.5004         38.7504
  21317427.4724   -6406377.76249  -4972905.06447                  21317425.3584
        46.0004         31.2504
  22032949.4954   -3612461.23849  -2814025.04247                  22032946.8864
        46.2504         32.0004
  23379927.6674    4913599.03949   3816152.07846                  23379925.5934
        39.5004         24.5004
  23268838.4484   -6191719.59449  -4788825.08447                  23268833.7494
        41.2504         26.2504
  23831028.7064   -3495607.07449  -2715495.96246                  23831028.0934
        41.7504         22.2504
 04  6 29 14 38 59.9990000  0 11G16G 6G10G17G18G21G26G29G30G22G15
  23603551.2144   -6278557.34849  -4882902.34146                  23603547.7104
        43.0004         23.7504
  19861596.9644   -2646340.48049  -2061527.48448                  19861593.9094
        51.2504         42.0004
  23920689.3864    5403102.87549   4196120.30946                  23920686.8784
        41.0004         22.0004
  23494114.5814    2210178.14149   1713169.03546                  23494113.4404
        37.5004         21.5004
  20881580.9014   -8716254.35249  -6780195.34047                  20881577.2924
        50.0004         38.7504
  20774580.4334   -5905197.26649  -4595795.29347                  20774575.8904
        51.0004         38.5004
  21313504.1444   -6426995.89549  -4988971.13347                  21313501.3124
        46.2504         31.7504
  22031146.3784   -3621938.62949  -2821410.02747                  22031143.0384
        47.0004         31.7504
  23383755.9484    4933718.00049   3831829.19046                  23383755.0074
        40.0004         22.7504
  23260348.2844   -6236332.26649  -4823588.17547                  23260344.2964
        40.0004         26.2504
  23823914.7144   -3532994.00449  -2744628.59346                  23823913.5894
        42.7504         23.7504
 04  6 29 14 39  9.9990000  0 11G16G 6G10G17G18G21G26G29G30G22G15
  23598422.3234   -6305511.99649  -4903905.96846                  23598418.2104
        42.7504         25.5004
  19860440.7844   -2652417.44549  -2066262.78848                  19860437.8514
        51.5004         42.0004
  23924927.8084    5425379.98049   4213479.07046                  23924926.1714
        40.2504         21.7504
  23495746.0734    2218749.56349   1719848.01146                  23495745.1054
        38.2504         22.0004
  20875367.1674   -8748907.46149  -6805639.32447                  20875363.6284
        50.7504         39.2504
  20769996.6444   -5929285.37549  -4614565.24547                  20769992.1834
        50.5004         38.5004
  21309592.6054   -6447550.60549  -5004987.79647                  21309589.9644
        46.5004         31.5004
  22029353.1124   -3631360.27749  -2828751.56547                  22029350.4014
        46.7504         31.5004
  23387584.2064    4953830.27849   3847501.09046                  23387582.1944
        39.0004         25.2504
  23251862.3234   -6280926.30549  -4858336.76247                  23251857.9374
        41.7504         27.0004
  23816800.0814   -3570383.55149  -2773763.33646                  23816798.4254
        42.2504         25.0004
 04  6 29 14 39 19.9990000  0 11G16G 6G10G17G18G21G26G29G30G22G15
  23593301.9484   -6332418.48449  -4924872.10646                  23593298.1054
        41.5004         24.7504
  19859293.6054   -2658446.42649  -2070960.70548                  19859290.7104
        51.5004         42.0004
  23929167.3704    5447653.27749   4230834.89646                  23929165.2184
        42.0004         23.2504
  23497377.1834    2227320.87149   1726526.92146                  23497376.0464
        40.5004         24.5004
  20869161.1754   -8781522.62549  -6831053.72347                  20869157.0734
        50.5004         39.2504
  20765414.4334   -5953364.42249  -4633328.13647                  20765410.1284
        50.7504         38.7504
  21305693.0584   -6468042.48449  -5020955.47747                  21305690.5264
        45.5004         31.5004
  22027570.8234   -3640726.81249  -2836050.17447                  22027568.1944
        47.0004         32.2504
  23391409.9644    4973935.12949   3863167.16747                  23391408.3584
        40.7504         25.7504
  23243380.4094   -6325502.27049  -4893071.25947                  23243375.5424
        41.5004         27.0004
  23809684.2534   -3607776.29349  -2802900.49346                  23809682.3944
        42.5004         22.7504
 04  6 29 14 39 29.9990000  0 11G16G 6G10G17G18G21G26G29G30G22G15
  23588190.4644   -6359276.61349  -4945800.53446                  23588187.3314
        41.7504         24.2504
  19858155.2534   -2664427.53149  -2075621.30248                  19858152.5224
        51.7504         41.5004
  23933405.0894    5469922.77349   4248187.68146                  23933403.2264
        41.7504         24.0004
  23499008.2614    2235892.35249   1733206.01146                  23499007.4914
        39.5004         24.5004
  20862961.7924   -8814099.48049  -6856438.27347                  20862958.1014
        50.0004         39.0004
  20760834.0974   -5977434.16449  -4652083.78447                  20760829.8434
        50.7504         38.7504
  21301805.4954   -6488471.32849  -5036874.04247                  21301803.0464
        45.2504         31.2504
  22025798.6834   -3650038.15249  -2843305.77247                  22025795.9374
        47.0004         32.2504
  23395233.8474    4994032.60249   3878827.53347                  23395232.6364
        39.5004         25.7504
  23234900.8624   -6370059.93449  -4927791.52447                  23234896.2844
        41.0004         27.2504
  23802568.3704   -3645172.06649  -2832040.07746                  23802566.0974
        42.5004         24.2504
 04  6 29 14 39 39.9990000  0 11G16G 6G10G17G18G21G26G29G30G22G15
  23583089.8864   -6386083.69549  -4966689.15346                  23583086.2574
        41.5004         23.5004
  19857026.7144   -2670358.03149  -2080242.47248                  19857023.7964
        51.5004         41.5004
  23937642.7064    5492190.98849   4265539.53346                  23937641.0384
        42.0004         23.5004
  23500639.4804    2244466.49249   1739887.14146                  23500638.8864
        40.7504         22.5004
  20856770.3154   -8846635.49249  -6881790.99947                  20856766.2694
        51.0004         39.0004
  20756256.0034   -6001492.11749  -4670830.23847                  20756251.8154
        50.0004         39.0004
  21297930.5974   -6508834.54749  -5052741.46147                  21297927.9954
        46.0004         31.7504
  22024038.1674   -3659291.68449  -2850516.31547                  22024034.9294
        47.0004         33.0004
  23399057.5114    5014125.22349   3894484.09746                  23399056.1634
        41.5004         25.5004
  23226426.1674   -6414596.78149  -4962495.54247                  23226421.7574
        41.0004         28.2504
  23795452.2924   -3682568.30549  -2861179.99346                  23795449.8944
        41.7504         25.2504
 04  6 29 14 39 49.9990000  0 11G16G 6G10G17G18G21G26G29G30G22G15
  23577998.2614   -6412840.66049  -4987538.74546                  23577994.4724
        43.0004         24.5004
  19855907.4484   -2676239.00049  -2084825.05948                  19855904.6594
        51.2504         41.2504
  23941878.9564    5514456.77749   4282889.45046                  23941878.2184
        41.5004         24.0004
  23502271.3784    2253042.27349   1746569.53146                  23502270.2334
        40.2504         22.7504
  20850586.3084   -8879131.65249  -6907112.69248                  20850582.3704
        51.2504         39.5004
  20751679.8624   -6025539.29349  -4689568.29847                  20751675.3234
        50.5004         39.2504
  21294068.1674   -6529132.96149  -5068558.41447                  21294065.9054
        46.7504         31.0004
  22022287.9724   -3668488.25849  -2857682.47947                  22022285.2574
        48.2504         33.2504
  23402879.2454    5034211.84449   3910136.00746                  23402878.3704
        41.0004         25.0004
  23217955.3004   -6459113.66049  -4997184.01547                  23217950.0154
        42.7504         27.5004
  23788334.9724   -3719966.07049  -2890321.08746                  23788333.5814
        42.2504         25.2504
 04  6 29 14 39 59.9990000  0 11G16G 6G10G17G18G21G26G29G30G22G15
  23572915.2064   -6439547.54349  -5008349.27946                  23572912.3194
        43.2504         22.7504
  19854798.0194   -2682070.38349  -2089369.00148                  19854794.8974
        50.7504         41.2504
  23946115.2224    5536720.19949   4300237.57846                  23946114.9724
        42.0004         24.2504
  23503904.0424    2261619.84849   1753253.37246                  23503902.0854
        40.2504         22.5004
  20844410.2924   -8911587.94149  -6932403.29948                  20844405.9954
        50.5004         39.5004
  20747106.0974   -6049575.66849  -4708297.94047                  20747101.6984
        50.2504         39.0004
  21290217.5734   -6549366.53149  -5084324.85047                  21290215.4094
        46.5004         31.7504
  22020549.2534   -3677628.06249  -2864804.41247                  22020546.3744
        47.7504         33.0004
  23406700.5584    5054292.35249   3925783.10747                  23406699.9954
        42.0004         26.0004
  23209487.1594   -6503610.50849  -5031856.86847                  23209482.6554
        40.5004         28.0004
  23781218.0264   -3757365.26649  -2919463.29147                  23781216.9684
        41.0004         26.2504
 04  6 29 14 40  9.9990000  0 11G16G 6G10G17G18G21G26G29G30G22G15
  23567843.1124   -6466204.22749  -5029120.72446                  23567839.5894
        42.5004         25.0004
  19853697.6674   -2687852.03549  -2093874.18648                  19853694.7264
        51.7504         41.2504
  23950351.5814    5558981.15649   4317583.69646                  23950350.9094
        42.0004         22.7504
  23505536.3084    2270199.07049   1759938.45746                  23505534.3784
        40.2504         22.5004
  20838241.7844   -8944004.24249  -6957662.74547                  20838237.7534
        50.5004         39.0004
  20742533.9404   -6073601.12149  -4727019.06847                  20742530.2264
        49.5004         38.5004
  21286380.0974   -6569535.23049  -5100040.70747                  21286377.0774
        46.5004         31.5004
  22018820.5034   -3686710.93449  -2871881.98947                  22018817.8554
        48.0004         32.5004
  23410520.8394    5074366.68049   3941425.47747                  23410519.1904
        42.5004         26.0004
  23201024.0814   -6548087.20749  -5066514.02147                  23201018.9834
        42.5004         27.5004
  23774101.5584   -3794765.90649  -2948606.64447                  23774100.6674
        41.0004         26.7504
 04  6 29 14 40 19.9990000  0 11G16G 6G10G17G18G21G26G29G30G22G15
  23562779.9254   -6492808.56649  -5049851.38546                  23562777.0774
        42.5004         24.0004
  19852607.3864   -2693581.93749  -2098339.05048                  19852604.5624
        51.7504         41.0004
  23954588.1834    5581241.80549   4334929.65846                  23954586.4724
        42.5004         24.5004
  23507169.4564    2278782.32049   1766626.64346                  23507168.2694
        40.7504         22.0004
  20832080.8394   -8976378.39549  -6982889.35347                  20832077.1014
        50.2504         39.0004
  20737964.7224   -6097613.49249  -4745730.01047                  20737960.4834
        50.7504         38.2504
  21282554.3784   -6589636.81249  -5115704.27947                  21282551.5694
        45.5004         30.5004
  22017103.3554   -3695734.78549  -2878913.55747                  22017100.3864
        47.5004         32.2504
  23414340.1594    5094436.94149   3957064.61046                  23414337.9604
        43.0004         25.2504
  23192563.7374   -6592541.48849  -5101153.71847                  23192559.1514
        43.5004         27.7504
  23766984.5814   -3832165.81649  -2977749.37546                  23766983.4014
        41.5004         24.5004
 04  6 29 14 40 29.9990000  0 11G16G 6G10G17G18G21G26G29G30G22G15
  23557727.3314   -6519361.42249  -5070541.91646                  23557724.3234
        41.5004         24.0004
  19851526.6054   -2699260.89149  -2102764.21648                  19851523.9994
        51.5004         41.0004
  23958824.1984    5603501.00449   4352274.44346                  23958822.8704
        42.0004         23.7504
  23508803.4484    2287368.44949   1773317.13446                  23508802.3394
        41.0004         22.0004
  20825927.8154   -9008711.40649  -7008083.89747                  20825924.2804
        50.0004         39.0004
  20733397.6284   -6121613.82049  -4764431.56347                  20733393.3394
        50.0004         38.0004
  21278741.8784   -6609672.08649  -5131316.16647                  21278738.6904
        45.0004         30.5004
  22015396.9334   -3704700.50449  -2885899.82747                  22015393.8154
        48.0004         31.7504
  23418158.6364    5114502.04349   3972699.74146                  23418156.0694
        42.5004         24.5004
  23184109.0814   -6636974.35549  -5135776.72847                  23184103.6514
        43.5004         27.5004
  23759867.4724   -3869565.91049  -3006892.32146                  23759865.6794
        42.0004         23.7504
 04  6 29 14 40 39.9990000  0 11G16G 6G10G17G18G21G26G29G30G22G15
  23552684.4014   -6545862.46149  -5091192.08046                  23552681.3084
        42.5004         22.7504
  19850455.9014   -2704888.64149  -2107149.47748                  19850452.7724
        51.7504         41.0004
  23963059.2694    5625759.03949   4369618.31246                  23963058.0854
        42.2504         25.5004
  23510438.7304    2295957.89849   1780010.17146                  23510437.0934
        40.5004         22.5004
  20819783.1984   -9041002.88749  -7033246.08347                  20819779.4294
        50.2504         38.5004
  20728832.8624   -6145601.69949  -4783123.40847                  20728828.7614
        49.7504         38.2504
  21274941.4644   -6629640.81649  -5146876.22947                  21274938.8554
        45.2504         29.5004
  22013702.0504   -3713607.83649  -2892840.62747                  22013698.5584
        48.5004         32.5004
  23421975.5504    5134562.19949   3988331.03346                  23421972.8084
        42.2504         24.2504
  23175657.5894   -6681385.42249  -5170382.73447                  23175653.3864
        42.2504         28.2504
  23752751.0424   -3906965.92649  -3036035.12846                  23752748.5224
        43.0004         23.0004
 04  6 29 14 40 49.9990000  0 11G16G 6G10G17G18G21G26G29G30G22G15
  23547651.3004   -6572311.90649  -5111802.00346                  23547647.8274
        42.5004         23.2504
  19849394.1054   -2710465.46149  -2111495.06148                  19849391.8474
        51.7504         41.0004
  23967294.6674    5648015.53949   4386961.02746                  23967293.7764
        42.2504         23.2504
  23512073.8704    2304550.34449   1786705.55146                  23512072.1054
        40.7504         21.5004
  20813646.1444   -9073253.06649  -7058376.08347                  20813642.1674
        50.5004         38.7504
  20724270.3004   -6169577.49249  -4801805.83647                  20724266.0264
        50.7504         38.7504
  21271154.4724   -6649543.10249  -5162384.47847                  21271151.5264
        45.5004         29.5004
  22012018.0424   -3722457.08649  -2899736.15947                  22012015.0624
        48.0004         32.5004
  23425792.3084    5154617.03149   4003958.14046                  23425789.1594
        42.7504         24.5004
  23167210.4564   -6725774.93449  -5204971.94747                  23167205.8864
        45.2504         29.0004
  23745633.4644   -3944366.21549  -3065178.18446                  23745630.9094
        42.5004         22.5004
 04  6 29 14 40 59.9980000  0 11G16G 6G10G17G18G21G26G29G30G22G15
  23542628.4044   -6598707.73049  -5132370.20946                  23542624.7564
        42.5004         22.5004
  19848342.9754   -2715991.48449  -2115801.05848                  19848340.2684
        51.0004         41.0004
  23971529.3114    5670267.59049   4404300.22447                  23971528.0254
        41.0004         25.7504
  23513708.5454    2313144.34049   1793402.12546                  23513707.3424
        41.0004         21.7504
  20807517.8894   -9105459.40249  -7083471.92547                  20807513.5144
        51.0004         39.2504
  20719710.4594   -6193539.36349  -4820477.42247                  20719706.1864
        49.7504         38.5004
  21267380.2094   -6669377.64149  -5177839.98147                  21267377.0684
        45.5004         29.2504
  22010345.1004   -3731247.93049  -2906586.15947                  22010341.9864
        48.0004         32.2504
  23429607.0064    5174663.76249   4019578.94746                  23429603.6474
        43.0004         22.7504
  23158768.6314   -6770139.03149  -5239541.36647                  23158763.6974
        45.2504         29.2504
  23738516.6394   -3981763.65249  -3094319.10346                  23738514.7324
        41.5004         22.7504
 04  6 29 14 41  9.9980000  0 11G16G 6G10G17G18G21G26G29G30G22G15
  23537614.8264   -6625054.80149  -5152900.38046                  23537611.1824
        42.5004         23.2504
  19847301.1234   -2721467.31249  -2120067.93748                  19847298.5644
        51.5004         41.5004
  23975764.0454    5692519.98049   4421639.71846                  23975762.3734
        42.0004         24.5004
  23515345.0374    2321741.96949   1800101.55246                  23515343.7484
        41.2504         21.5004
  20801396.4044   -9137627.83649  -7108538.23147                  20801392.1864
        51.0004         39.0004
  20715152.8114   -6217491.71149  -4839141.58247                  20715148.3574
        50.5004         38.5004
  21263617.7094   -6689147.91449  -5193245.35747                  21263614.9084
        45.7504         29.5004
  22008683.1004   -3739981.66049  -2913391.67747                  22008680.2874
        47.5004         32.0004
  23433420.8504    5194706.82849   4035196.92446                  23433417.9434
        43.0004         25.5004
  23150329.7404   -6814486.10949  -5274097.52947                  23150324.9324
        45.0004         28.7504
  23731400.3264   -4019165.24249  -3123463.11246                  23731397.7914
        41.7504         23.5004
 04  6 29 14 41 19.9980000  0 11G16G 6G10G17G18G21G26G29G30G22G15
  23532611.1864   -6651348.98049  -5173389.36846                  23532607.6234
        42.0004         22.7504
  19846268.8114   -2726890.95349  -2124294.15648                  19846266.3894
        51.7504         41.5004
  23979998.2564    5714771.89549   4438978.86846                  23979996.5924
        40.5004         22.5004
  23516981.7174    2330343.90649   1806804.40546                  23516980.3384
        41.0004         21.5004
  20795283.1234   -9169753.64849  -7133571.32348                  20795278.8974
        50.7504         39.5004
  20710597.4284   -6241430.62949  -4857795.29547                  20710592.9794
        50.5004         38.2504
  21259868.7404   -6708850.35549  -5208597.91347                  21259865.4984
        46.5004         29.0004
  22007032.2794   -3748656.05549  -2920150.94847                  22007029.7444
        48.0004         32.5004
  23437234.0294    5214745.43449   4050811.40946                  23437231.4864
        43.0004         25.5004
  23141895.1234   -6858810.12949  -5308635.70647                  23141890.6934
        45.0004         28.0004
  23724282.7564   -4056565.80549  -3152606.43246                  23724280.8734
        41.2504         23.5004
 04  6 29 14 41 29.9980000  0 11G16G 6G10G17G18G21G26G29G30G22G15
  23527617.4124   -6677590.78549  -5193837.53546                  23527613.2724
        42.5004         22.0004
  19845246.8184   -2732263.02049  -2128480.18748                  19845244.0144
        51.0004         41.5004
  23984232.8424    5737022.53549   4456316.99946                  23984230.7724
        41.2504         23.7504
  23518619.5684    2338949.53949   1813510.07346                  23518617.6784
        40.7504         20.5004
  20789177.5764   -9201837.45749  -7158571.69848                  20789173.3974
        52.0004         39.5004
  20706044.3894   -6265356.71149  -4876438.99647                  20706039.8654
        50.0004         37.7504
  21256132.1864   -6728485.48849  -5223898.01147                  21256129.1114
        46.7504         30.2504
  22005392.9364   -3757271.68449  -2926864.43147                  22005390.3814
        47.5004         32.2504
  23441047.0294    5234778.96949   4066421.94346                  23441044.0644
        43.7504         25.5004
  23133464.5374   -6903111.76649  -5343156.47247                  23133460.4204
        45.5004         28.0004
  23717165.1784   -4093966.01249  -3181749.35546                  23717163.7214
        39.7504         23.5004
 04  6 29 14 41 39.9980000  0 11G16G 6G10G17G18G21G26G29G30G22G15
  23522633.7324   -6703781.03549  -5214245.51346                  23522629.8114
        43.2504         22.7504
  19844234.2874   -2737584.29349  -2132626.63848                  19844231.3854
        52.0004         41.7504
  23988465.4594    5759271.07849   4473653.45446                  23988464.5494
        39.5004         22.5004
  23520257.4124    2347558.15149   1820218.02246                  23520255.6894
        40.5004         19.7504
  20783079.9824   -9233880.14549  -7183540.01447                  20783076.1394
        50.7504         39.0004
  20701493.5294   -6289270.89149  -4895073.41947                  20701489.0764
        49.2504         38.5004
  21252408.7564   -6748054.15649  -5239146.34947                  21252405.7994
        46.5004         31.5004
  22003764.3974   -3765829.35949  -2933532.76147                  22003761.6044
        47.0004         32.5004
  23444857.7874    5254806.38349   4082027.69647                  23444855.4514
        45.0004         25.7504
  23125038.2404   -6947391.70749  -5377660.30547                  23125033.5724
        43.2504         29.0004
  23710047.2324   -4131366.58649  -3210892.71446                  23710046.1974
        40.0004         22.5004
 04  6 29 14 41 49.9980000  0 11G16G 6G10G17G18G21G26G29G30G22G15
  23517659.9434   -6729919.02049  -5234612.75346                  23517655.9084
        42.2504         23.2504
  19843230.9594   -2742854.06649  -2136732.96548                  19843228.0614
        51.5004         41.5004
  23992699.8034    5781518.11349   4490988.76946                  23992698.1744
        40.5004         22.5004
  23521896.9674    2356170.10249   1826928.65046                  23521894.6274
        41.5004         19.0004
  20776990.5924   -9265880.95749  -7208475.70747                  20776986.3894
        50.5004         38.7504
  20696945.1934   -6313172.46949  -4913698.02347                  20696940.7014
        50.0004         38.2504
  21248697.7324   -6767555.71149  -5254342.35847                  21248695.0804
        47.2504         31.5004
  22002147.5064   -3774328.46149  -2940155.43347                  22002144.6624
        47.2504         32.2504
  23448668.2644    5274828.33249   4097629.20346                  23448666.2644
        44.5004         25.2504
  23116616.5924   -6991649.25849  -5412146.68947                  23116611.7794
        45.5004         27.7504
  23702931.6544   -4168767.03549  -3240035.80846                  23702929.2054
        42.0004         23.7504
 04  6 29 14 41 59.9980000  0 11G16G 6G10G17G18G21G26G29G30G22G15
  23512695.8814   -6756003.91449  -5254938.64146                  23512692.0574
        42.5004         22.0004
  19842238.2564   -2748071.59449  -2140798.56348                  19842235.4864
        51.5004         41.5004
  23996933.3504    5803764.35249   4508323.49646                  23996931.6744
        40.2504         22.5004
  23523536.9674    2364786.43449   1833642.64746                  23523533.9944
        42.0004         19.7504
  20770908.8504   -9297838.91849  -7233378.00947                  20770904.9364
        51.0004         38.7504
  20692399.4594   -6337060.54349  -4932312.10447                  20692395.1584
        50.0004         38.2504
  21244999.2324   -6786989.20349  -5269485.33247                  21244997.2174
        47.5004         32.0004
  22000541.1474   -3782768.19949  -2946731.86147                  22000538.8304
        47.0004         33.5004
  23452477.5144    5294845.51249   4113227.02346                  23452475.0884
        45.0004         25.5004
  23108198.8424   -7035883.53149  -5446614.96247                  23108194.6664
        46.0004         28.0004
  23695813.8184   -4206166.42649  -3269178.22046                  23695812.7404
        41.0004         24.5004
